<?xml version="1.0" encoding="UTF-8" standalone="no" ?>
<gpx xmlns="http://www.topografix.com/GPX/1/1" xmlns:xsi="http://www.w3.org/2001/XMLSchema-instance" xsi:schemaLocation="http://www.topografix.com/GPX/1/1 http://www.topografix.com/GPX/1/1/gpx.xsd" version="1.1" creator="VisuGPX - https://www.visugpx.com">
  <metadata>
    <name>randonnée region des lacs</name>
    <desc><![CDATA[Départ des crozets 39260 itinéraire sauvage avec de belles descentes. ]]></desc>
  </metadata>
  <trk>
    <name><![CDATA[coupet pratz chassal gorges du lison]]></name>
    <trkseg>
      <trkpt lat="46.45035" lon="5.79861">
        <ele>769</ele>
        <time>2011-04-04T10:21:25Z</time>
      </trkpt>
      <trkpt lat="46.45037" lon="5.79862">
        <ele>769</ele>
        <time>2011-04-04T10:21:45Z</time>
      </trkpt>
      <trkpt lat="46.45032" lon="5.79855">
        <ele>769</ele>
        <time>2011-04-04T10:21:50Z</time>
      </trkpt>
      <trkpt lat="46.45032" lon="5.79843">
        <ele>769</ele>
        <time>2011-04-04T10:21:54Z</time>
      </trkpt>
      <trkpt lat="46.45033" lon="5.79829">
        <ele>769</ele>
        <time>2011-04-04T10:22:01Z</time>
      </trkpt>
      <trkpt lat="46.45028" lon="5.79815">
        <ele>770</ele>
        <time>2011-04-04T10:22:07Z</time>
      </trkpt>
      <trkpt lat="46.45019" lon="5.79804">
        <ele>771</ele>
        <time>2011-04-04T10:22:14Z</time>
      </trkpt>
      <trkpt lat="46.45004" lon="5.798">
        <ele>772</ele>
        <time>2011-04-04T10:22:22Z</time>
      </trkpt>
      <trkpt lat="46.44989" lon="5.79797">
        <ele>773</ele>
        <time>2011-04-04T10:22:29Z</time>
      </trkpt>
      <trkpt lat="46.44973" lon="5.79796">
        <ele>775</ele>
        <time>2011-04-04T10:22:37Z</time>
      </trkpt>
      <trkpt lat="46.44962" lon="5.79801">
        <ele>776</ele>
        <time>2011-04-04T10:22:43Z</time>
      </trkpt>
      <trkpt lat="46.4496" lon="5.79803">
        <ele>777</ele>
        <time>2011-04-04T10:22:45Z</time>
      </trkpt>
      <trkpt lat="46.44954" lon="5.79812">
        <ele>778</ele>
        <time>2011-04-04T10:22:51Z</time>
      </trkpt>
      <trkpt lat="46.44945" lon="5.79822">
        <ele>779</ele>
        <time>2011-04-04T10:22:58Z</time>
      </trkpt>
      <trkpt lat="46.44939" lon="5.79827">
        <ele>779</ele>
        <time>2011-04-04T10:23:02Z</time>
      </trkpt>
      <trkpt lat="46.44933" lon="5.79838">
        <ele>781</ele>
        <time>2011-04-04T10:23:10Z</time>
      </trkpt>
      <trkpt lat="46.44928" lon="5.7984">
        <ele>782</ele>
        <time>2011-04-04T10:23:13Z</time>
      </trkpt>
      <trkpt lat="46.44921" lon="5.79849">
        <ele>783</ele>
        <time>2011-04-04T10:23:19Z</time>
      </trkpt>
      <trkpt lat="46.44916" lon="5.79853">
        <ele>784</ele>
        <time>2011-04-04T10:23:25Z</time>
      </trkpt>
      <trkpt lat="46.4491" lon="5.79859">
        <ele>786</ele>
        <time>2011-04-04T10:23:31Z</time>
      </trkpt>
      <trkpt lat="46.44897" lon="5.79862">
        <ele>787</ele>
        <time>2011-04-04T10:23:39Z</time>
      </trkpt>
      <trkpt lat="46.44882" lon="5.79869">
        <ele>785</ele>
        <time>2011-04-04T10:23:45Z</time>
      </trkpt>
      <trkpt lat="46.44871" lon="5.79869">
        <ele>784</ele>
        <time>2011-04-04T10:23:47Z</time>
      </trkpt>
      <trkpt lat="46.44838" lon="5.79859">
        <ele>780</ele>
        <time>2011-04-04T10:23:52Z</time>
      </trkpt>
      <trkpt lat="46.44811" lon="5.79849">
        <ele>781</ele>
        <time>2011-04-04T10:23:57Z</time>
      </trkpt>
      <trkpt lat="46.44797" lon="5.79849">
        <ele>782</ele>
        <time>2011-04-04T10:24:01Z</time>
      </trkpt>
      <trkpt lat="46.4478" lon="5.79846">
        <ele>783</ele>
        <time>2011-04-04T10:24:05Z</time>
      </trkpt>
      <trkpt lat="46.44765" lon="5.79844">
        <ele>784</ele>
        <time>2011-04-04T10:24:10Z</time>
      </trkpt>
      <trkpt lat="46.44754" lon="5.7984">
        <ele>785</ele>
        <time>2011-04-04T10:24:16Z</time>
      </trkpt>
      <trkpt lat="46.44741" lon="5.79832">
        <ele>786</ele>
        <time>2011-04-04T10:24:23Z</time>
      </trkpt>
      <trkpt lat="46.44725" lon="5.79825">
        <ele>786</ele>
        <time>2011-04-04T10:24:29Z</time>
      </trkpt>
      <trkpt lat="46.4472" lon="5.79824">
        <ele>785</ele>
        <time>2011-04-04T10:24:32Z</time>
      </trkpt>
      <trkpt lat="46.44715" lon="5.79821">
        <ele>785</ele>
        <time>2011-04-04T10:24:38Z</time>
      </trkpt>
      <trkpt lat="46.44709" lon="5.79819">
        <ele>786</ele>
        <time>2011-04-04T10:24:45Z</time>
      </trkpt>
      <trkpt lat="46.44707" lon="5.79818">
        <ele>786</ele>
        <time>2011-04-04T10:24:51Z</time>
      </trkpt>
      <trkpt lat="46.44705" lon="5.79818">
        <ele>786</ele>
        <time>2011-04-04T10:24:54Z</time>
      </trkpt>
      <trkpt lat="46.44694" lon="5.79816">
        <ele>786</ele>
        <time>2011-04-04T10:25:03Z</time>
      </trkpt>
      <trkpt lat="46.44685" lon="5.79815">
        <ele>788</ele>
        <time>2011-04-04T10:25:12Z</time>
      </trkpt>
      <trkpt lat="46.4468" lon="5.79814">
        <ele>789</ele>
        <time>2011-04-04T10:25:17Z</time>
      </trkpt>
      <trkpt lat="46.44675" lon="5.79812">
        <ele>790</ele>
        <time>2011-04-04T10:25:22Z</time>
      </trkpt>
      <trkpt lat="46.44669" lon="5.79809">
        <ele>792</ele>
        <time>2011-04-04T10:25:31Z</time>
      </trkpt>
      <trkpt lat="46.44664" lon="5.79805">
        <ele>792</ele>
        <time>2011-04-04T10:25:38Z</time>
      </trkpt>
      <trkpt lat="46.44662" lon="5.79804">
        <ele>792</ele>
        <time>2011-04-04T10:25:42Z</time>
      </trkpt>
      <trkpt lat="46.44658" lon="5.79804">
        <ele>791</ele>
        <time>2011-04-04T10:25:47Z</time>
      </trkpt>
      <trkpt lat="46.44657" lon="5.79804">
        <ele>792</ele>
        <time>2011-04-04T10:25:48Z</time>
      </trkpt>
      <trkpt lat="46.44647" lon="5.79802">
        <ele>792</ele>
        <time>2011-04-04T10:25:56Z</time>
      </trkpt>
      <trkpt lat="46.4464" lon="5.79802">
        <ele>792</ele>
        <time>2011-04-04T10:26:05Z</time>
      </trkpt>
      <trkpt lat="46.44631" lon="5.79799">
        <ele>791</ele>
        <time>2011-04-04T10:26:11Z</time>
      </trkpt>
      <trkpt lat="46.44622" lon="5.79796">
        <ele>791</ele>
        <time>2011-04-04T10:26:17Z</time>
      </trkpt>
      <trkpt lat="46.44616" lon="5.79793">
        <ele>790</ele>
        <time>2011-04-04T10:26:22Z</time>
      </trkpt>
      <trkpt lat="46.44612" lon="5.79789">
        <ele>790</ele>
        <time>2011-04-04T10:26:34Z</time>
      </trkpt>
      <trkpt lat="46.44611" lon="5.79784">
        <ele>790</ele>
        <time>2011-04-04T10:26:39Z</time>
      </trkpt>
      <trkpt lat="46.44605" lon="5.79779">
        <ele>790</ele>
        <time>2011-04-04T10:26:47Z</time>
      </trkpt>
      <trkpt lat="46.44603" lon="5.79768">
        <ele>791</ele>
        <time>2011-04-04T10:27:04Z</time>
      </trkpt>
      <trkpt lat="46.44599" lon="5.79767">
        <ele>791</ele>
        <time>2011-04-04T10:27:10Z</time>
      </trkpt>
      <trkpt lat="46.44597" lon="5.79765">
        <ele>792</ele>
        <time>2011-04-04T10:27:15Z</time>
      </trkpt>
      <trkpt lat="46.44594" lon="5.79761">
        <ele>792</ele>
        <time>2011-04-04T10:27:20Z</time>
      </trkpt>
      <trkpt lat="46.44592" lon="5.79758">
        <ele>792</ele>
        <time>2011-04-04T10:27:25Z</time>
      </trkpt>
      <trkpt lat="46.44591" lon="5.79757">
        <ele>792</ele>
        <time>2011-04-04T10:27:26Z</time>
      </trkpt>
      <trkpt lat="46.44587" lon="5.79756">
        <ele>792</ele>
        <time>2011-04-04T10:27:31Z</time>
      </trkpt>
      <trkpt lat="46.44584" lon="5.79756">
        <ele>793</ele>
        <time>2011-04-04T10:27:37Z</time>
      </trkpt>
      <trkpt lat="46.44578" lon="5.79759">
        <ele>793</ele>
        <time>2011-04-04T10:27:46Z</time>
      </trkpt>
      <trkpt lat="46.44567" lon="5.79757">
        <ele>793</ele>
        <time>2011-04-04T10:27:54Z</time>
      </trkpt>
      <trkpt lat="46.4456" lon="5.79755">
        <ele>793</ele>
        <time>2011-04-04T10:28:00Z</time>
      </trkpt>
      <trkpt lat="46.44552" lon="5.79751">
        <ele>793</ele>
        <time>2011-04-04T10:28:05Z</time>
      </trkpt>
      <trkpt lat="46.44544" lon="5.79743">
        <ele>794</ele>
        <time>2011-04-04T10:28:12Z</time>
      </trkpt>
      <trkpt lat="46.4454" lon="5.79742">
        <ele>794</ele>
        <time>2011-04-04T10:28:17Z</time>
      </trkpt>
      <trkpt lat="46.4454" lon="5.79741">
        <ele>794</ele>
        <time>2011-04-04T10:28:18Z</time>
      </trkpt>
      <trkpt lat="46.44538" lon="5.7974">
        <ele>794</ele>
        <time>2011-04-04T10:28:23Z</time>
      </trkpt>
      <trkpt lat="46.44531" lon="5.79736">
        <ele>794</ele>
        <time>2011-04-04T10:28:27Z</time>
      </trkpt>
      <trkpt lat="46.44521" lon="5.79721">
        <ele>796</ele>
        <time>2011-04-04T10:28:35Z</time>
      </trkpt>
      <trkpt lat="46.44513" lon="5.79712">
        <ele>798</ele>
        <time>2011-04-04T10:28:41Z</time>
      </trkpt>
      <trkpt lat="46.4451" lon="5.797">
        <ele>800</ele>
        <time>2011-04-04T10:28:48Z</time>
      </trkpt>
      <trkpt lat="46.44505" lon="5.79681">
        <ele>801</ele>
        <time>2011-04-04T10:29:00Z</time>
      </trkpt>
      <trkpt lat="46.44501" lon="5.79672">
        <ele>804</ele>
        <time>2011-04-04T10:29:07Z</time>
      </trkpt>
      <trkpt lat="46.44496" lon="5.79668">
        <ele>805</ele>
        <time>2011-04-04T10:29:14Z</time>
      </trkpt>
      <trkpt lat="46.44491" lon="5.79664">
        <ele>806</ele>
        <time>2011-04-04T10:29:21Z</time>
      </trkpt>
      <trkpt lat="46.44489" lon="5.79663">
        <ele>807</ele>
        <time>2011-04-04T10:29:26Z</time>
      </trkpt>
      <trkpt lat="46.44484" lon="5.79661">
        <ele>808</ele>
        <time>2011-04-04T10:29:32Z</time>
      </trkpt>
      <trkpt lat="46.44478" lon="5.79656">
        <ele>809</ele>
        <time>2011-04-04T10:29:41Z</time>
      </trkpt>
      <trkpt lat="46.4447" lon="5.79651">
        <ele>810</ele>
        <time>2011-04-04T10:29:49Z</time>
      </trkpt>
      <trkpt lat="46.44463" lon="5.79646">
        <ele>811</ele>
        <time>2011-04-04T10:29:56Z</time>
      </trkpt>
      <trkpt lat="46.44456" lon="5.79641">
        <ele>813</ele>
        <time>2011-04-04T10:30:03Z</time>
      </trkpt>
      <trkpt lat="46.4445" lon="5.79636">
        <ele>815</ele>
        <time>2011-04-04T10:30:10Z</time>
      </trkpt>
      <trkpt lat="46.44443" lon="5.79625">
        <ele>816</ele>
        <time>2011-04-04T10:30:18Z</time>
      </trkpt>
      <trkpt lat="46.44438" lon="5.79622">
        <ele>817</ele>
        <time>2011-04-04T10:30:23Z</time>
      </trkpt>
      <trkpt lat="46.44432" lon="5.79616">
        <ele>818</ele>
        <time>2011-04-04T10:30:29Z</time>
      </trkpt>
      <trkpt lat="46.44427" lon="5.79609">
        <ele>820</ele>
        <time>2011-04-04T10:30:35Z</time>
      </trkpt>
      <trkpt lat="46.4442" lon="5.79603">
        <ele>821</ele>
        <time>2011-04-04T10:30:43Z</time>
      </trkpt>
      <trkpt lat="46.44407" lon="5.79595">
        <ele>821</ele>
        <time>2011-04-04T10:30:50Z</time>
      </trkpt>
      <trkpt lat="46.44399" lon="5.79585">
        <ele>821</ele>
        <time>2011-04-04T10:30:57Z</time>
      </trkpt>
      <trkpt lat="46.44391" lon="5.79579">
        <ele>821</ele>
        <time>2011-04-04T10:31:03Z</time>
      </trkpt>
      <trkpt lat="46.4438" lon="5.79568">
        <ele>821</ele>
        <time>2011-04-04T10:31:10Z</time>
      </trkpt>
      <trkpt lat="46.44372" lon="5.79563">
        <ele>821</ele>
        <time>2011-04-04T10:31:16Z</time>
      </trkpt>
      <trkpt lat="46.44364" lon="5.79556">
        <ele>821</ele>
        <time>2011-04-04T10:31:22Z</time>
      </trkpt>
      <trkpt lat="46.44356" lon="5.79544">
        <ele>821</ele>
        <time>2011-04-04T10:31:28Z</time>
      </trkpt>
      <trkpt lat="46.44346" lon="5.79536">
        <ele>821</ele>
        <time>2011-04-04T10:31:35Z</time>
      </trkpt>
      <trkpt lat="46.44335" lon="5.79526">
        <ele>822</ele>
        <time>2011-04-04T10:31:42Z</time>
      </trkpt>
      <trkpt lat="46.44329" lon="5.79517">
        <ele>823</ele>
        <time>2011-04-04T10:31:46Z</time>
      </trkpt>
      <trkpt lat="46.44318" lon="5.79509">
        <ele>825</ele>
        <time>2011-04-04T10:31:52Z</time>
      </trkpt>
      <trkpt lat="46.44308" lon="5.79501">
        <ele>829</ele>
        <time>2011-04-04T10:31:57Z</time>
      </trkpt>
      <trkpt lat="46.44301" lon="5.79491">
        <ele>830</ele>
        <time>2011-04-04T10:32:02Z</time>
      </trkpt>
      <trkpt lat="46.44279" lon="5.79488">
        <ele>830</ele>
        <time>2011-04-04T10:32:09Z</time>
      </trkpt>
      <trkpt lat="46.44247" lon="5.79486">
        <ele>830</ele>
        <time>2011-04-04T10:32:17Z</time>
      </trkpt>
      <trkpt lat="46.44211" lon="5.79481">
        <ele>830</ele>
        <time>2011-04-04T10:32:24Z</time>
      </trkpt>
      <trkpt lat="46.44163" lon="5.7947">
        <ele>830</ele>
        <time>2011-04-04T10:32:32Z</time>
      </trkpt>
      <trkpt lat="46.4411" lon="5.79457">
        <ele>828</ele>
        <time>2011-04-04T10:32:40Z</time>
      </trkpt>
      <trkpt lat="46.44078" lon="5.79447">
        <ele>828</ele>
        <time>2011-04-04T10:32:45Z</time>
      </trkpt>
      <trkpt lat="46.44021" lon="5.79434">
        <ele>827</ele>
        <time>2011-04-04T10:32:54Z</time>
      </trkpt>
      <trkpt lat="46.43972" lon="5.79426">
        <ele>827</ele>
        <time>2011-04-04T10:33:01Z</time>
      </trkpt>
      <trkpt lat="46.43916" lon="5.79418">
        <ele>824</ele>
        <time>2011-04-04T10:33:08Z</time>
      </trkpt>
      <trkpt lat="46.43846" lon="5.79406">
        <ele>821</ele>
        <time>2011-04-04T10:33:16Z</time>
      </trkpt>
      <trkpt lat="46.43791" lon="5.79385">
        <ele>819</ele>
        <time>2011-04-04T10:33:22Z</time>
      </trkpt>
      <trkpt lat="46.43771" lon="5.79376">
        <ele>818</ele>
        <time>2011-04-04T10:33:24Z</time>
      </trkpt>
      <trkpt lat="46.43715" lon="5.7936">
        <ele>815</ele>
        <time>2011-04-04T10:33:30Z</time>
      </trkpt>
      <trkpt lat="46.43681" lon="5.79354">
        <ele>815</ele>
        <time>2011-04-04T10:33:34Z</time>
      </trkpt>
      <trkpt lat="46.43633" lon="5.79362">
        <ele>816</ele>
        <time>2011-04-04T10:33:40Z</time>
      </trkpt>
      <trkpt lat="46.436" lon="5.79365">
        <ele>817</ele>
        <time>2011-04-04T10:33:45Z</time>
      </trkpt>
      <trkpt lat="46.43559" lon="5.79356">
        <ele>819</ele>
        <time>2011-04-04T10:33:52Z</time>
      </trkpt>
      <trkpt lat="46.43536" lon="5.79347">
        <ele>819</ele>
        <time>2011-04-04T10:33:57Z</time>
      </trkpt>
      <trkpt lat="46.43534" lon="5.79345">
        <ele>820</ele>
        <time>2011-04-04T10:34:00Z</time>
      </trkpt>
      <trkpt lat="46.43541" lon="5.79343">
        <ele>822</ele>
        <time>2011-04-04T10:34:37Z</time>
      </trkpt>
      <trkpt lat="46.43529" lon="5.79343">
        <ele>822</ele>
        <time>2011-04-04T10:34:42Z</time>
      </trkpt>
      <trkpt lat="46.43505" lon="5.79337">
        <ele>822</ele>
        <time>2011-04-04T10:34:48Z</time>
      </trkpt>
      <trkpt lat="46.43464" lon="5.79316">
        <ele>823</ele>
        <time>2011-04-04T10:34:56Z</time>
      </trkpt>
      <trkpt lat="46.43429" lon="5.79284">
        <ele>823</ele>
        <time>2011-04-04T10:35:04Z</time>
      </trkpt>
      <trkpt lat="46.43386" lon="5.79252">
        <ele>823</ele>
        <time>2011-04-04T10:35:12Z</time>
      </trkpt>
      <trkpt lat="46.43338" lon="5.79232">
        <ele>823</ele>
        <time>2011-04-04T10:35:20Z</time>
      </trkpt>
      <trkpt lat="46.43285" lon="5.79222">
        <ele>823</ele>
        <time>2011-04-04T10:35:29Z</time>
      </trkpt>
      <trkpt lat="46.4324" lon="5.79214">
        <ele>823</ele>
        <time>2011-04-04T10:35:38Z</time>
      </trkpt>
      <trkpt lat="46.43208" lon="5.79206">
        <ele>823</ele>
        <time>2011-04-04T10:35:45Z</time>
      </trkpt>
      <trkpt lat="46.43181" lon="5.79201">
        <ele>823</ele>
        <time>2011-04-04T10:35:50Z</time>
      </trkpt>
      <trkpt lat="46.4314" lon="5.79191">
        <ele>823</ele>
        <time>2011-04-04T10:35:56Z</time>
      </trkpt>
      <trkpt lat="46.43096" lon="5.7917">
        <ele>823</ele>
        <time>2011-04-04T10:36:01Z</time>
      </trkpt>
      <trkpt lat="46.43067" lon="5.79149">
        <ele>823</ele>
        <time>2011-04-04T10:36:04Z</time>
      </trkpt>
      <trkpt lat="46.43021" lon="5.79137">
        <ele>823</ele>
        <time>2011-04-04T10:36:08Z</time>
      </trkpt>
      <trkpt lat="46.42997" lon="5.79141">
        <ele>823</ele>
        <time>2011-04-04T10:36:10Z</time>
      </trkpt>
      <trkpt lat="46.42963" lon="5.79154">
        <ele>823</ele>
        <time>2011-04-04T10:36:14Z</time>
      </trkpt>
      <trkpt lat="46.42946" lon="5.79156">
        <ele>823</ele>
        <time>2011-04-04T10:36:18Z</time>
      </trkpt>
      <trkpt lat="46.42945" lon="5.79165">
        <ele>823</ele>
        <time>2011-04-04T10:36:20Z</time>
      </trkpt>
      <trkpt lat="46.42947" lon="5.7917">
        <ele>823</ele>
        <time>2011-04-04T10:36:21Z</time>
      </trkpt>
      <trkpt lat="46.42956" lon="5.79195">
        <ele>823</ele>
        <time>2011-04-04T10:36:25Z</time>
      </trkpt>
      <trkpt lat="46.42962" lon="5.79216">
        <ele>823</ele>
        <time>2011-04-04T10:36:28Z</time>
      </trkpt>
      <trkpt lat="46.42974" lon="5.79246">
        <ele>823</ele>
        <time>2011-04-04T10:36:33Z</time>
      </trkpt>
      <trkpt lat="46.42981" lon="5.79268">
        <ele>823</ele>
        <time>2011-04-04T10:36:36Z</time>
      </trkpt>
      <trkpt lat="46.4299" lon="5.79304">
        <ele>823</ele>
        <time>2011-04-04T10:36:41Z</time>
      </trkpt>
      <trkpt lat="46.42991" lon="5.79339">
        <ele>823</ele>
        <time>2011-04-04T10:36:45Z</time>
      </trkpt>
      <trkpt lat="46.42996" lon="5.79363">
        <ele>812</ele>
        <time>2011-04-04T10:36:49Z</time>
      </trkpt>
      <trkpt lat="46.43" lon="5.79371">
        <ele>800</ele>
        <time>2011-04-04T10:36:51Z</time>
      </trkpt>
      <trkpt lat="46.43004" lon="5.79376">
        <ele>788</ele>
        <time>2011-04-04T10:36:53Z</time>
      </trkpt>
      <trkpt lat="46.43008" lon="5.79384">
        <ele>775</ele>
        <time>2011-04-04T10:36:55Z</time>
      </trkpt>
      <trkpt lat="46.43011" lon="5.79388">
        <ele>774</ele>
        <time>2011-04-04T10:36:56Z</time>
      </trkpt>
      <trkpt lat="46.43023" lon="5.79417">
        <ele>769</ele>
        <time>2011-04-04T10:37:01Z</time>
      </trkpt>
      <trkpt lat="46.43024" lon="5.79422">
        <ele>769</ele>
        <time>2011-04-04T10:37:02Z</time>
      </trkpt>
      <trkpt lat="46.43024" lon="5.79431">
        <ele>767</ele>
        <time>2011-04-04T10:37:04Z</time>
      </trkpt>
      <trkpt lat="46.43024" lon="5.79452">
        <ele>763</ele>
        <time>2011-04-04T10:37:07Z</time>
      </trkpt>
      <trkpt lat="46.43026" lon="5.79489">
        <ele>757</ele>
        <time>2011-04-04T10:37:12Z</time>
      </trkpt>
      <trkpt lat="46.43027" lon="5.79542">
        <ele>750</ele>
        <time>2011-04-04T10:37:17Z</time>
      </trkpt>
      <trkpt lat="46.43027" lon="5.79571">
        <ele>746</ele>
        <time>2011-04-04T10:37:20Z</time>
      </trkpt>
      <trkpt lat="46.4303" lon="5.79583">
        <ele>745</ele>
        <time>2011-04-04T10:37:21Z</time>
      </trkpt>
      <trkpt lat="46.43045" lon="5.79646">
        <ele>736</ele>
        <time>2011-04-04T10:37:26Z</time>
      </trkpt>
      <trkpt lat="46.43047" lon="5.79651">
        <ele>735</ele>
        <time>2011-04-04T10:37:27Z</time>
      </trkpt>
      <trkpt lat="46.43044" lon="5.79657">
        <ele>734</ele>
        <time>2011-04-04T10:37:29Z</time>
      </trkpt>
      <trkpt lat="46.43034" lon="5.79648">
        <ele>734</ele>
        <time>2011-04-04T10:37:32Z</time>
      </trkpt>
      <trkpt lat="46.4302" lon="5.79633">
        <ele>734</ele>
        <time>2011-04-04T10:37:34Z</time>
      </trkpt>
      <trkpt lat="46.42977" lon="5.79595">
        <ele>728</ele>
        <time>2011-04-04T10:37:40Z</time>
      </trkpt>
      <trkpt lat="46.42961" lon="5.79574">
        <ele>720</ele>
        <time>2011-04-04T10:37:44Z</time>
      </trkpt>
      <trkpt lat="46.42927" lon="5.79535">
        <ele>714</ele>
        <time>2011-04-04T10:37:50Z</time>
      </trkpt>
      <trkpt lat="46.42897" lon="5.79507">
        <ele>711</ele>
        <time>2011-04-04T10:37:55Z</time>
      </trkpt>
      <trkpt lat="46.42879" lon="5.79489">
        <ele>710</ele>
        <time>2011-04-04T10:37:58Z</time>
      </trkpt>
      <trkpt lat="46.42873" lon="5.79484">
        <ele>710</ele>
        <time>2011-04-04T10:37:59Z</time>
      </trkpt>
      <trkpt lat="46.42846" lon="5.7946">
        <ele>710</ele>
        <time>2011-04-04T10:38:04Z</time>
      </trkpt>
      <trkpt lat="46.4284" lon="5.79455">
        <ele>709</ele>
        <time>2011-04-04T10:38:05Z</time>
      </trkpt>
      <trkpt lat="46.42818" lon="5.79423">
        <ele>707</ele>
        <time>2011-04-04T10:38:09Z</time>
      </trkpt>
      <trkpt lat="46.42812" lon="5.79414">
        <ele>707</ele>
        <time>2011-04-04T10:38:10Z</time>
      </trkpt>
      <trkpt lat="46.42777" lon="5.79378">
        <ele>698</ele>
        <time>2011-04-04T10:38:15Z</time>
      </trkpt>
      <trkpt lat="46.42765" lon="5.79364">
        <ele>695</ele>
        <time>2011-04-04T10:38:17Z</time>
      </trkpt>
      <trkpt lat="46.42753" lon="5.79349">
        <ele>693</ele>
        <time>2011-04-04T10:38:19Z</time>
      </trkpt>
      <trkpt lat="46.42746" lon="5.79347">
        <ele>693</ele>
        <time>2011-04-04T10:38:22Z</time>
      </trkpt>
      <trkpt lat="46.42748" lon="5.79352">
        <ele>694</ele>
        <time>2011-04-04T10:38:27Z</time>
      </trkpt>
      <trkpt lat="46.42745" lon="5.79358">
        <ele>694</ele>
        <time>2011-04-04T10:38:30Z</time>
      </trkpt>
      <trkpt lat="46.42743" lon="5.79377">
        <ele>694</ele>
        <time>2011-04-04T10:38:36Z</time>
      </trkpt>
      <trkpt lat="46.4275" lon="5.79398">
        <ele>695</ele>
        <time>2011-04-04T10:38:42Z</time>
      </trkpt>
      <trkpt lat="46.42756" lon="5.79417">
        <ele>696</ele>
        <time>2011-04-04T10:38:48Z</time>
      </trkpt>
      <trkpt lat="46.42757" lon="5.79431">
        <ele>697</ele>
        <time>2011-04-04T10:38:53Z</time>
      </trkpt>
      <trkpt lat="46.42757" lon="5.79446">
        <ele>697</ele>
        <time>2011-04-04T10:38:58Z</time>
      </trkpt>
      <trkpt lat="46.42758" lon="5.79454">
        <ele>698</ele>
        <time>2011-04-04T10:39:01Z</time>
      </trkpt>
      <trkpt lat="46.42758" lon="5.79472">
        <ele>699</ele>
        <time>2011-04-04T10:39:07Z</time>
      </trkpt>
      <trkpt lat="46.42755" lon="5.7949">
        <ele>701</ele>
        <time>2011-04-04T10:39:14Z</time>
      </trkpt>
      <trkpt lat="46.4275" lon="5.79499">
        <ele>703</ele>
        <time>2011-04-04T10:39:20Z</time>
      </trkpt>
      <trkpt lat="46.42741" lon="5.79507">
        <ele>704</ele>
        <time>2011-04-04T10:39:26Z</time>
      </trkpt>
      <trkpt lat="46.42718" lon="5.79518">
        <ele>705</ele>
        <time>2011-04-04T10:39:35Z</time>
      </trkpt>
      <trkpt lat="46.427" lon="5.79531">
        <ele>705</ele>
        <time>2011-04-04T10:39:40Z</time>
      </trkpt>
      <trkpt lat="46.42693" lon="5.79536">
        <ele>705</ele>
        <time>2011-04-04T10:39:42Z</time>
      </trkpt>
      <trkpt lat="46.42677" lon="5.79552">
        <ele>704</ele>
        <time>2011-04-04T10:39:47Z</time>
      </trkpt>
      <trkpt lat="46.4267" lon="5.79548">
        <ele>704</ele>
        <time>2011-04-04T10:39:51Z</time>
      </trkpt>
      <trkpt lat="46.42663" lon="5.79544">
        <ele>706</ele>
        <time>2011-04-04T10:39:55Z</time>
      </trkpt>
      <trkpt lat="46.4265" lon="5.7954">
        <ele>709</ele>
        <time>2011-04-04T10:40:04Z</time>
      </trkpt>
      <trkpt lat="46.42639" lon="5.79537">
        <ele>711</ele>
        <time>2011-04-04T10:40:11Z</time>
      </trkpt>
      <trkpt lat="46.42629" lon="5.79535">
        <ele>713</ele>
        <time>2011-04-04T10:40:18Z</time>
      </trkpt>
      <trkpt lat="46.42616" lon="5.79534">
        <ele>714</ele>
        <time>2011-04-04T10:40:25Z</time>
      </trkpt>
      <trkpt lat="46.42604" lon="5.79533">
        <ele>715</ele>
        <time>2011-04-04T10:40:33Z</time>
      </trkpt>
      <trkpt lat="46.4259" lon="5.79534">
        <ele>717</ele>
        <time>2011-04-04T10:40:42Z</time>
      </trkpt>
      <trkpt lat="46.42574" lon="5.79534">
        <ele>718</ele>
        <time>2011-04-04T10:40:49Z</time>
      </trkpt>
      <trkpt lat="46.42558" lon="5.79536">
        <ele>718</ele>
        <time>2011-04-04T10:40:55Z</time>
      </trkpt>
      <trkpt lat="46.42546" lon="5.79537">
        <ele>720</ele>
        <time>2011-04-04T10:41:02Z</time>
      </trkpt>
      <trkpt lat="46.42532" lon="5.79541">
        <ele>722</ele>
        <time>2011-04-04T10:41:09Z</time>
      </trkpt>
      <trkpt lat="46.42521" lon="5.79542">
        <ele>724</ele>
        <time>2011-04-04T10:41:15Z</time>
      </trkpt>
      <trkpt lat="46.42507" lon="5.79545">
        <ele>726</ele>
        <time>2011-04-04T10:41:22Z</time>
      </trkpt>
      <trkpt lat="46.42488" lon="5.79547">
        <ele>727</ele>
        <time>2011-04-04T10:41:30Z</time>
      </trkpt>
      <trkpt lat="46.42478" lon="5.79544">
        <ele>728</ele>
        <time>2011-04-04T10:41:36Z</time>
      </trkpt>
      <trkpt lat="46.42465" lon="5.79537">
        <ele>731</ele>
        <time>2011-04-04T10:41:45Z</time>
      </trkpt>
      <trkpt lat="46.42453" lon="5.79531">
        <ele>733</ele>
        <time>2011-04-04T10:41:52Z</time>
      </trkpt>
      <trkpt lat="46.42442" lon="5.79527">
        <ele>736</ele>
        <time>2011-04-04T10:41:59Z</time>
      </trkpt>
      <trkpt lat="46.42429" lon="5.79518">
        <ele>739</ele>
        <time>2011-04-04T10:42:08Z</time>
      </trkpt>
      <trkpt lat="46.42419" lon="5.79514">
        <ele>740</ele>
        <time>2011-04-04T10:42:14Z</time>
      </trkpt>
      <trkpt lat="46.42417" lon="5.79513">
        <ele>740</ele>
        <time>2011-04-04T10:42:15Z</time>
      </trkpt>
      <trkpt lat="46.42399" lon="5.79508">
        <ele>742</ele>
        <time>2011-04-04T10:42:26Z</time>
      </trkpt>
      <trkpt lat="46.4239" lon="5.795">
        <ele>744</ele>
        <time>2011-04-04T10:42:32Z</time>
      </trkpt>
      <trkpt lat="46.4238" lon="5.79491">
        <ele>744</ele>
        <time>2011-04-04T10:42:38Z</time>
      </trkpt>
      <trkpt lat="46.4237" lon="5.79485">
        <ele>745</ele>
        <time>2011-04-04T10:42:43Z</time>
      </trkpt>
      <trkpt lat="46.42358" lon="5.79479">
        <ele>745</ele>
        <time>2011-04-04T10:42:48Z</time>
      </trkpt>
      <trkpt lat="46.42342" lon="5.79471">
        <ele>746</ele>
        <time>2011-04-04T10:42:54Z</time>
      </trkpt>
      <trkpt lat="46.42332" lon="5.79464">
        <ele>746</ele>
        <time>2011-04-04T10:42:59Z</time>
      </trkpt>
      <trkpt lat="46.42321" lon="5.79458">
        <ele>747</ele>
        <time>2011-04-04T10:43:04Z</time>
      </trkpt>
      <trkpt lat="46.42307" lon="5.79451">
        <ele>748</ele>
        <time>2011-04-04T10:43:11Z</time>
      </trkpt>
      <trkpt lat="46.42294" lon="5.79442">
        <ele>749</ele>
        <time>2011-04-04T10:43:18Z</time>
      </trkpt>
      <trkpt lat="46.42279" lon="5.79434">
        <ele>751</ele>
        <time>2011-04-04T10:43:25Z</time>
      </trkpt>
      <trkpt lat="46.42266" lon="5.79428">
        <ele>752</ele>
        <time>2011-04-04T10:43:31Z</time>
      </trkpt>
      <trkpt lat="46.42253" lon="5.79419">
        <ele>753</ele>
        <time>2011-04-04T10:43:36Z</time>
      </trkpt>
      <trkpt lat="46.42241" lon="5.79411">
        <ele>752</ele>
        <time>2011-04-04T10:43:39Z</time>
      </trkpt>
      <trkpt lat="46.42232" lon="5.794">
        <ele>751</ele>
        <time>2011-04-04T10:43:41Z</time>
      </trkpt>
      <trkpt lat="46.42222" lon="5.7939">
        <ele>751</ele>
        <time>2011-04-04T10:43:43Z</time>
      </trkpt>
      <trkpt lat="46.42202" lon="5.79368">
        <ele>748</ele>
        <time>2011-04-04T10:43:47Z</time>
      </trkpt>
      <trkpt lat="46.42179" lon="5.79352">
        <ele>746</ele>
        <time>2011-04-04T10:43:51Z</time>
      </trkpt>
      <trkpt lat="46.42162" lon="5.79339">
        <ele>745</ele>
        <time>2011-04-04T10:43:54Z</time>
      </trkpt>
      <trkpt lat="46.42144" lon="5.7932">
        <ele>745</ele>
        <time>2011-04-04T10:43:59Z</time>
      </trkpt>
      <trkpt lat="46.42133" lon="5.79309">
        <ele>746</ele>
        <time>2011-04-04T10:44:03Z</time>
      </trkpt>
      <trkpt lat="46.42117" lon="5.79297">
        <ele>747</ele>
        <time>2011-04-04T10:44:08Z</time>
      </trkpt>
      <trkpt lat="46.42107" lon="5.79294">
        <ele>748</ele>
        <time>2011-04-04T10:44:11Z</time>
      </trkpt>
      <trkpt lat="46.42099" lon="5.7929">
        <ele>748</ele>
        <time>2011-04-04T10:44:13Z</time>
      </trkpt>
      <trkpt lat="46.42081" lon="5.79273">
        <ele>748</ele>
        <time>2011-04-04T10:44:19Z</time>
      </trkpt>
      <trkpt lat="46.42063" lon="5.79262">
        <ele>749</ele>
        <time>2011-04-04T10:44:25Z</time>
      </trkpt>
      <trkpt lat="46.42047" lon="5.79253">
        <ele>750</ele>
        <time>2011-04-04T10:44:30Z</time>
      </trkpt>
      <trkpt lat="46.42036" lon="5.79249">
        <ele>750</ele>
        <time>2011-04-04T10:44:33Z</time>
      </trkpt>
      <trkpt lat="46.4202" lon="5.79239">
        <ele>751</ele>
        <time>2011-04-04T10:44:38Z</time>
      </trkpt>
      <trkpt lat="46.42005" lon="5.79228">
        <ele>753</ele>
        <time>2011-04-04T10:44:45Z</time>
      </trkpt>
      <trkpt lat="46.41993" lon="5.79221">
        <ele>755</ele>
        <time>2011-04-04T10:44:52Z</time>
      </trkpt>
      <trkpt lat="46.41988" lon="5.79214">
        <ele>756</ele>
        <time>2011-04-04T10:44:57Z</time>
      </trkpt>
      <trkpt lat="46.41975" lon="5.79199">
        <ele>758</ele>
        <time>2011-04-04T10:45:05Z</time>
      </trkpt>
      <trkpt lat="46.41962" lon="5.79183">
        <ele>760</ele>
        <time>2011-04-04T10:45:13Z</time>
      </trkpt>
      <trkpt lat="46.41946" lon="5.79177">
        <ele>761</ele>
        <time>2011-04-04T10:45:19Z</time>
      </trkpt>
      <trkpt lat="46.41928" lon="5.79169">
        <ele>762</ele>
        <time>2011-04-04T10:45:26Z</time>
      </trkpt>
      <trkpt lat="46.41911" lon="5.79163">
        <ele>764</ele>
        <time>2011-04-04T10:45:34Z</time>
      </trkpt>
      <trkpt lat="46.41897" lon="5.7915">
        <ele>764</ele>
        <time>2011-04-04T10:45:40Z</time>
      </trkpt>
      <trkpt lat="46.41884" lon="5.79136">
        <ele>764</ele>
        <time>2011-04-04T10:45:45Z</time>
      </trkpt>
      <trkpt lat="46.41877" lon="5.79128">
        <ele>765</ele>
        <time>2011-04-04T10:45:50Z</time>
      </trkpt>
      <trkpt lat="46.41872" lon="5.79116">
        <ele>767</ele>
        <time>2011-04-04T10:45:56Z</time>
      </trkpt>
      <trkpt lat="46.41867" lon="5.79099">
        <ele>769</ele>
        <time>2011-04-04T10:46:03Z</time>
      </trkpt>
      <trkpt lat="46.41865" lon="5.7908">
        <ele>772</ele>
        <time>2011-04-04T10:46:11Z</time>
      </trkpt>
      <trkpt lat="46.41865" lon="5.79066">
        <ele>774</ele>
        <time>2011-04-04T10:46:18Z</time>
      </trkpt>
      <trkpt lat="46.4186" lon="5.79052">
        <ele>776</ele>
        <time>2011-04-04T10:46:26Z</time>
      </trkpt>
      <trkpt lat="46.41854" lon="5.79042">
        <ele>778</ele>
        <time>2011-04-04T10:46:33Z</time>
      </trkpt>
      <trkpt lat="46.41847" lon="5.7903">
        <ele>781</ele>
        <time>2011-04-04T10:46:41Z</time>
      </trkpt>
      <trkpt lat="46.41838" lon="5.79021">
        <ele>784</ele>
        <time>2011-04-04T10:46:49Z</time>
      </trkpt>
      <trkpt lat="46.41829" lon="5.79009">
        <ele>785</ele>
        <time>2011-04-04T10:46:57Z</time>
      </trkpt>
      <trkpt lat="46.41824" lon="5.78997">
        <ele>788</ele>
        <time>2011-04-04T10:47:05Z</time>
      </trkpt>
      <trkpt lat="46.41819" lon="5.78988">
        <ele>790</ele>
        <time>2011-04-04T10:47:12Z</time>
      </trkpt>
      <trkpt lat="46.41816" lon="5.78977">
        <ele>791</ele>
        <time>2011-04-04T10:47:17Z</time>
      </trkpt>
      <trkpt lat="46.41807" lon="5.78957">
        <ele>793</ele>
        <time>2011-04-04T10:47:26Z</time>
      </trkpt>
      <trkpt lat="46.41789" lon="5.7894">
        <ele>795</ele>
        <time>2011-04-04T10:47:35Z</time>
      </trkpt>
      <trkpt lat="46.41768" lon="5.78914">
        <ele>795</ele>
        <time>2011-04-04T10:47:47Z</time>
      </trkpt>
      <trkpt lat="46.41755" lon="5.78895">
        <ele>798</ele>
        <time>2011-04-04T10:47:54Z</time>
      </trkpt>
      <trkpt lat="46.41751" lon="5.78891">
        <ele>799</ele>
        <time>2011-04-04T10:47:56Z</time>
      </trkpt>
      <trkpt lat="46.41739" lon="5.78871">
        <ele>802</ele>
        <time>2011-04-04T10:48:04Z</time>
      </trkpt>
      <trkpt lat="46.41729" lon="5.78847">
        <ele>804</ele>
        <time>2011-04-04T10:48:12Z</time>
      </trkpt>
      <trkpt lat="46.41716" lon="5.7882">
        <ele>807</ele>
        <time>2011-04-04T10:48:20Z</time>
      </trkpt>
      <trkpt lat="46.41701" lon="5.78799">
        <ele>809</ele>
        <time>2011-04-04T10:48:28Z</time>
      </trkpt>
      <trkpt lat="46.4169" lon="5.7878">
        <ele>811</ele>
        <time>2011-04-04T10:48:35Z</time>
      </trkpt>
      <trkpt lat="46.41678" lon="5.78756">
        <ele>813</ele>
        <time>2011-04-04T10:48:43Z</time>
      </trkpt>
      <trkpt lat="46.41669" lon="5.78737">
        <ele>815</ele>
        <time>2011-04-04T10:48:49Z</time>
      </trkpt>
      <trkpt lat="46.41662" lon="5.78717">
        <ele>817</ele>
        <time>2011-04-04T10:48:56Z</time>
      </trkpt>
      <trkpt lat="46.41659" lon="5.78706">
        <ele>818</ele>
        <time>2011-04-04T10:49:02Z</time>
      </trkpt>
      <trkpt lat="46.41659" lon="5.78706">
        <ele>818</ele>
        <time>2011-04-04T10:49:05Z</time>
      </trkpt>
      <trkpt lat="46.41658" lon="5.78704">
        <ele>818</ele>
        <time>2011-04-04T10:49:12Z</time>
      </trkpt>
      <trkpt lat="46.41655" lon="5.78692">
        <ele>818</ele>
        <time>2011-04-04T10:49:16Z</time>
      </trkpt>
      <trkpt lat="46.41651" lon="5.78683">
        <ele>818</ele>
        <time>2011-04-04T10:49:18Z</time>
      </trkpt>
      <trkpt lat="46.41639" lon="5.78666">
        <ele>817</ele>
        <time>2011-04-04T10:49:22Z</time>
      </trkpt>
      <trkpt lat="46.41626" lon="5.78654">
        <ele>816</ele>
        <time>2011-04-04T10:49:25Z</time>
      </trkpt>
      <trkpt lat="46.41607" lon="5.78628">
        <ele>814</ele>
        <time>2011-04-04T10:49:29Z</time>
      </trkpt>
      <trkpt lat="46.41579" lon="5.78599">
        <ele>812</ele>
        <time>2011-04-04T10:49:34Z</time>
      </trkpt>
      <trkpt lat="46.41546" lon="5.78574">
        <ele>811</ele>
        <time>2011-04-04T10:49:39Z</time>
      </trkpt>
      <trkpt lat="46.41539" lon="5.78568">
        <ele>811</ele>
        <time>2011-04-04T10:49:40Z</time>
      </trkpt>
      <trkpt lat="46.41512" lon="5.78526">
        <ele>808</ele>
        <time>2011-04-04T10:49:45Z</time>
      </trkpt>
      <trkpt lat="46.41492" lon="5.78481">
        <ele>806</ele>
        <time>2011-04-04T10:49:50Z</time>
      </trkpt>
      <trkpt lat="46.41482" lon="5.78447">
        <ele>805</ele>
        <time>2011-04-04T10:49:53Z</time>
      </trkpt>
      <trkpt lat="46.41463" lon="5.78424">
        <ele>805</ele>
        <time>2011-04-04T10:49:57Z</time>
      </trkpt>
      <trkpt lat="46.4145" lon="5.78424">
        <ele>806</ele>
        <time>2011-04-04T10:50:00Z</time>
      </trkpt>
      <trkpt lat="46.41447" lon="5.78424">
        <ele>808</ele>
        <time>2011-04-04T10:50:02Z</time>
      </trkpt>
      <trkpt lat="46.41442" lon="5.78413">
        <ele>809</ele>
        <time>2011-04-04T10:50:07Z</time>
      </trkpt>
      <trkpt lat="46.4144" lon="5.7841">
        <ele>809</ele>
        <time>2011-04-04T10:50:08Z</time>
      </trkpt>
      <trkpt lat="46.41425" lon="5.78395">
        <ele>809</ele>
        <time>2011-04-04T10:50:15Z</time>
      </trkpt>
      <trkpt lat="46.41411" lon="5.78377">
        <ele>810</ele>
        <time>2011-04-04T10:50:22Z</time>
      </trkpt>
      <trkpt lat="46.41399" lon="5.78365">
        <ele>811</ele>
        <time>2011-04-04T10:50:28Z</time>
      </trkpt>
      <trkpt lat="46.41383" lon="5.78358">
        <ele>813</ele>
        <time>2011-04-04T10:50:35Z</time>
      </trkpt>
      <trkpt lat="46.41376" lon="5.78359">
        <ele>815</ele>
        <time>2011-04-04T10:50:39Z</time>
      </trkpt>
      <trkpt lat="46.41374" lon="5.78354">
        <ele>816</ele>
        <time>2011-04-04T10:50:43Z</time>
      </trkpt>
      <trkpt lat="46.41367" lon="5.78347">
        <ele>816</ele>
        <time>2011-04-04T10:50:47Z</time>
      </trkpt>
      <trkpt lat="46.41359" lon="5.7834">
        <ele>815</ele>
        <time>2011-04-04T10:50:52Z</time>
      </trkpt>
      <trkpt lat="46.41354" lon="5.7833">
        <ele>816</ele>
        <time>2011-04-04T10:50:57Z</time>
      </trkpt>
      <trkpt lat="46.41349" lon="5.78318">
        <ele>815</ele>
        <time>2011-04-04T10:51:01Z</time>
      </trkpt>
      <trkpt lat="46.41342" lon="5.78299">
        <ele>813</ele>
        <time>2011-04-04T10:51:07Z</time>
      </trkpt>
      <trkpt lat="46.41331" lon="5.78279">
        <ele>813</ele>
        <time>2011-04-04T10:51:12Z</time>
      </trkpt>
      <trkpt lat="46.4133" lon="5.78276">
        <ele>813</ele>
        <time>2011-04-04T10:51:13Z</time>
      </trkpt>
      <trkpt lat="46.41322" lon="5.78262">
        <ele>813</ele>
        <time>2011-04-04T10:51:18Z</time>
      </trkpt>
      <trkpt lat="46.41315" lon="5.78251">
        <ele>813</ele>
        <time>2011-04-04T10:51:22Z</time>
      </trkpt>
      <trkpt lat="46.41312" lon="5.78244">
        <ele>813</ele>
        <time>2011-04-04T10:51:24Z</time>
      </trkpt>
      <trkpt lat="46.41307" lon="5.78238">
        <ele>813</ele>
        <time>2011-04-04T10:51:27Z</time>
      </trkpt>
      <trkpt lat="46.41298" lon="5.78232">
        <ele>813</ele>
        <time>2011-04-04T10:51:33Z</time>
      </trkpt>
      <trkpt lat="46.41296" lon="5.78231">
        <ele>813</ele>
        <time>2011-04-04T10:51:34Z</time>
      </trkpt>
      <trkpt lat="46.41294" lon="5.7822">
        <ele>814</ele>
        <time>2011-04-04T10:51:40Z</time>
      </trkpt>
      <trkpt lat="46.41286" lon="5.78197">
        <ele>814</ele>
        <time>2011-04-04T10:51:43Z</time>
      </trkpt>
      <trkpt lat="46.41281" lon="5.78191">
        <ele>813</ele>
        <time>2011-04-04T10:51:45Z</time>
      </trkpt>
      <trkpt lat="46.41273" lon="5.78182">
        <ele>813</ele>
        <time>2011-04-04T10:51:48Z</time>
      </trkpt>
      <trkpt lat="46.41259" lon="5.78179">
        <ele>814</ele>
        <time>2011-04-04T10:51:53Z</time>
      </trkpt>
      <trkpt lat="46.41247" lon="5.78173">
        <ele>815</ele>
        <time>2011-04-04T10:51:57Z</time>
      </trkpt>
      <trkpt lat="46.41231" lon="5.78161">
        <ele>816</ele>
        <time>2011-04-04T10:52:04Z</time>
      </trkpt>
      <trkpt lat="46.41213" lon="5.78143">
        <ele>818</ele>
        <time>2011-04-04T10:52:10Z</time>
      </trkpt>
      <trkpt lat="46.41202" lon="5.78131">
        <ele>819</ele>
        <time>2011-04-04T10:52:15Z</time>
      </trkpt>
      <trkpt lat="46.41187" lon="5.78117">
        <ele>819</ele>
        <time>2011-04-04T10:52:20Z</time>
      </trkpt>
      <trkpt lat="46.4117" lon="5.78103">
        <ele>820</ele>
        <time>2011-04-04T10:52:26Z</time>
      </trkpt>
      <trkpt lat="46.41155" lon="5.7809">
        <ele>821</ele>
        <time>2011-04-04T10:52:31Z</time>
      </trkpt>
      <trkpt lat="46.41152" lon="5.78088">
        <ele>821</ele>
        <time>2011-04-04T10:52:32Z</time>
      </trkpt>
      <trkpt lat="46.41132" lon="5.78085">
        <ele>821</ele>
        <time>2011-04-04T10:52:39Z</time>
      </trkpt>
      <trkpt lat="46.41121" lon="5.78076">
        <ele>822</ele>
        <time>2011-04-04T10:52:44Z</time>
      </trkpt>
      <trkpt lat="46.41103" lon="5.78064">
        <ele>823</ele>
        <time>2011-04-04T10:52:51Z</time>
      </trkpt>
      <trkpt lat="46.41095" lon="5.78058">
        <ele>823</ele>
        <time>2011-04-04T10:52:54Z</time>
      </trkpt>
      <trkpt lat="46.41082" lon="5.78045">
        <ele>823</ele>
        <time>2011-04-04T10:53:00Z</time>
      </trkpt>
      <trkpt lat="46.41074" lon="5.78038">
        <ele>823</ele>
        <time>2011-04-04T10:53:04Z</time>
      </trkpt>
      <trkpt lat="46.4106" lon="5.78035">
        <ele>823</ele>
        <time>2011-04-04T10:53:10Z</time>
      </trkpt>
      <trkpt lat="46.41055" lon="5.78035">
        <ele>824</ele>
        <time>2011-04-04T10:53:12Z</time>
      </trkpt>
      <trkpt lat="46.41035" lon="5.78027">
        <ele>824</ele>
        <time>2011-04-04T10:53:18Z</time>
      </trkpt>
      <trkpt lat="46.41026" lon="5.78024">
        <ele>824</ele>
        <time>2011-04-04T10:53:21Z</time>
      </trkpt>
      <trkpt lat="46.41011" lon="5.78016">
        <ele>824</ele>
        <time>2011-04-04T10:53:26Z</time>
      </trkpt>
      <trkpt lat="46.41001" lon="5.78004">
        <ele>825</ele>
        <time>2011-04-04T10:53:31Z</time>
      </trkpt>
      <trkpt lat="46.40986" lon="5.77988">
        <ele>825</ele>
        <time>2011-04-04T10:53:36Z</time>
      </trkpt>
      <trkpt lat="46.40961" lon="5.7797">
        <ele>825</ele>
        <time>2011-04-04T10:53:43Z</time>
      </trkpt>
      <trkpt lat="46.40951" lon="5.7796">
        <ele>826</ele>
        <time>2011-04-04T10:53:48Z</time>
      </trkpt>
      <trkpt lat="46.40941" lon="5.77949">
        <ele>827</ele>
        <time>2011-04-04T10:53:53Z</time>
      </trkpt>
      <trkpt lat="46.4094" lon="5.77947">
        <ele>828</ele>
        <time>2011-04-04T10:53:54Z</time>
      </trkpt>
      <trkpt lat="46.40928" lon="5.7794">
        <ele>829</ele>
        <time>2011-04-04T10:54:01Z</time>
      </trkpt>
      <trkpt lat="46.40914" lon="5.77923">
        <ele>830</ele>
        <time>2011-04-04T10:54:07Z</time>
      </trkpt>
      <trkpt lat="46.40901" lon="5.77902">
        <ele>830</ele>
        <time>2011-04-04T10:54:13Z</time>
      </trkpt>
      <trkpt lat="46.40887" lon="5.77883">
        <ele>830</ele>
        <time>2011-04-04T10:54:18Z</time>
      </trkpt>
      <trkpt lat="46.40878" lon="5.77866">
        <ele>830</ele>
        <time>2011-04-04T10:54:23Z</time>
      </trkpt>
      <trkpt lat="46.40868" lon="5.77855">
        <ele>830</ele>
        <time>2011-04-04T10:54:28Z</time>
      </trkpt>
      <trkpt lat="46.40857" lon="5.77844">
        <ele>831</ele>
        <time>2011-04-04T10:54:33Z</time>
      </trkpt>
      <trkpt lat="46.40841" lon="5.77826">
        <ele>832</ele>
        <time>2011-04-04T10:54:39Z</time>
      </trkpt>
      <trkpt lat="46.40826" lon="5.77802">
        <ele>832</ele>
        <time>2011-04-04T10:54:46Z</time>
      </trkpt>
      <trkpt lat="46.40817" lon="5.77792">
        <ele>833</ele>
        <time>2011-04-04T10:54:51Z</time>
      </trkpt>
      <trkpt lat="46.4079" lon="5.77782">
        <ele>836</ele>
        <time>2011-04-04T10:57:09Z</time>
      </trkpt>
      <trkpt lat="46.40783" lon="5.7777">
        <ele>837</ele>
        <time>2011-04-04T10:57:15Z</time>
      </trkpt>
      <trkpt lat="46.4077" lon="5.77758">
        <ele>837</ele>
        <time>2011-04-04T10:57:22Z</time>
      </trkpt>
      <trkpt lat="46.40753" lon="5.77737">
        <ele>838</ele>
        <time>2011-04-04T10:57:31Z</time>
      </trkpt>
      <trkpt lat="46.40738" lon="5.77718">
        <ele>839</ele>
        <time>2011-04-04T10:57:39Z</time>
      </trkpt>
      <trkpt lat="46.40734" lon="5.77707">
        <ele>841</ele>
        <time>2011-04-04T10:57:44Z</time>
      </trkpt>
      <trkpt lat="46.40725" lon="5.77687">
        <ele>842</ele>
        <time>2011-04-04T10:57:51Z</time>
      </trkpt>
      <trkpt lat="46.40718" lon="5.77665">
        <ele>843</ele>
        <time>2011-04-04T10:57:58Z</time>
      </trkpt>
      <trkpt lat="46.40705" lon="5.77651">
        <ele>844</ele>
        <time>2011-04-04T10:58:04Z</time>
      </trkpt>
      <trkpt lat="46.40695" lon="5.77639">
        <ele>845</ele>
        <time>2011-04-04T10:58:09Z</time>
      </trkpt>
      <trkpt lat="46.40682" lon="5.77625">
        <ele>846</ele>
        <time>2011-04-04T10:58:15Z</time>
      </trkpt>
      <trkpt lat="46.4067" lon="5.77613">
        <ele>848</ele>
        <time>2011-04-04T10:58:21Z</time>
      </trkpt>
      <trkpt lat="46.40659" lon="5.77602">
        <ele>849</ele>
        <time>2011-04-04T10:58:27Z</time>
      </trkpt>
      <trkpt lat="46.40641" lon="5.77588">
        <ele>850</ele>
        <time>2011-04-04T10:58:32Z</time>
      </trkpt>
      <trkpt lat="46.40621" lon="5.77573">
        <ele>849</ele>
        <time>2011-04-04T10:58:37Z</time>
      </trkpt>
      <trkpt lat="46.40609" lon="5.77565">
        <ele>849</ele>
        <time>2011-04-04T10:58:41Z</time>
      </trkpt>
      <trkpt lat="46.40608" lon="5.77563">
        <ele>849</ele>
        <time>2011-04-04T10:58:42Z</time>
      </trkpt>
      <trkpt lat="46.4061" lon="5.77547">
        <ele>849</ele>
        <time>2011-04-04T10:58:47Z</time>
      </trkpt>
      <trkpt lat="46.4061" lon="5.77543">
        <ele>849</ele>
        <time>2011-04-04T10:58:50Z</time>
      </trkpt>
      <trkpt lat="46.40611" lon="5.77539">
        <ele>849</ele>
        <time>2011-04-04T10:58:54Z</time>
      </trkpt>
      <trkpt lat="46.40609" lon="5.77534">
        <ele>849</ele>
        <time>2011-04-04T10:58:57Z</time>
      </trkpt>
      <trkpt lat="46.40607" lon="5.77528">
        <ele>851</ele>
        <time>2011-04-04T10:59:01Z</time>
      </trkpt>
      <trkpt lat="46.40606" lon="5.77523">
        <ele>853</ele>
        <time>2011-04-04T10:59:07Z</time>
      </trkpt>
      <trkpt lat="46.40608" lon="5.7752">
        <ele>855</ele>
        <time>2011-04-04T10:59:15Z</time>
      </trkpt>
      <trkpt lat="46.4061" lon="5.77513">
        <ele>856</ele>
        <time>2011-04-04T10:59:23Z</time>
      </trkpt>
      <trkpt lat="46.40606" lon="5.77506">
        <ele>857</ele>
        <time>2011-04-04T10:59:32Z</time>
      </trkpt>
      <trkpt lat="46.40599" lon="5.77494">
        <ele>857</ele>
        <time>2011-04-04T10:59:39Z</time>
      </trkpt>
      <trkpt lat="46.40597" lon="5.77489">
        <ele>858</ele>
        <time>2011-04-04T10:59:44Z</time>
      </trkpt>
      <trkpt lat="46.40594" lon="5.77483">
        <ele>858</ele>
        <time>2011-04-04T10:59:49Z</time>
      </trkpt>
      <trkpt lat="46.40589" lon="5.7747">
        <ele>859</ele>
        <time>2011-04-04T10:59:55Z</time>
      </trkpt>
      <trkpt lat="46.40583" lon="5.77453">
        <ele>860</ele>
        <time>2011-04-04T11:00:02Z</time>
      </trkpt>
      <trkpt lat="46.40581" lon="5.77438">
        <ele>861</ele>
        <time>2011-04-04T11:00:08Z</time>
      </trkpt>
      <trkpt lat="46.4058" lon="5.77424">
        <ele>862</ele>
        <time>2011-04-04T11:00:16Z</time>
      </trkpt>
      <trkpt lat="46.40579" lon="5.77415">
        <ele>863</ele>
        <time>2011-04-04T11:00:23Z</time>
      </trkpt>
      <trkpt lat="46.40577" lon="5.77405">
        <ele>863</ele>
        <time>2011-04-04T11:00:28Z</time>
      </trkpt>
      <trkpt lat="46.40575" lon="5.77396">
        <ele>864</ele>
        <time>2011-04-04T11:00:33Z</time>
      </trkpt>
      <trkpt lat="46.40575" lon="5.77386">
        <ele>866</ele>
        <time>2011-04-04T11:00:39Z</time>
      </trkpt>
      <trkpt lat="46.40574" lon="5.77373">
        <ele>868</ele>
        <time>2011-04-04T11:00:46Z</time>
      </trkpt>
      <trkpt lat="46.40574" lon="5.7736">
        <ele>870</ele>
        <time>2011-04-04T11:00:53Z</time>
      </trkpt>
      <trkpt lat="46.40574" lon="5.77348">
        <ele>872</ele>
        <time>2011-04-04T11:00:59Z</time>
      </trkpt>
      <trkpt lat="46.4057" lon="5.77332">
        <ele>874</ele>
        <time>2011-04-04T11:01:07Z</time>
      </trkpt>
      <trkpt lat="46.40566" lon="5.77321">
        <ele>875</ele>
        <time>2011-04-04T11:01:14Z</time>
      </trkpt>
      <trkpt lat="46.40562" lon="5.7731">
        <ele>875</ele>
        <time>2011-04-04T11:01:20Z</time>
      </trkpt>
      <trkpt lat="46.40551" lon="5.7729">
        <ele>876</ele>
        <time>2011-04-04T11:01:27Z</time>
      </trkpt>
      <trkpt lat="46.40538" lon="5.77278">
        <ele>877</ele>
        <time>2011-04-04T11:01:34Z</time>
      </trkpt>
      <trkpt lat="46.40529" lon="5.77269">
        <ele>878</ele>
        <time>2011-04-04T11:01:39Z</time>
      </trkpt>
      <trkpt lat="46.40522" lon="5.77262">
        <ele>879</ele>
        <time>2011-04-04T11:01:44Z</time>
      </trkpt>
      <trkpt lat="46.40512" lon="5.77251">
        <ele>880</ele>
        <time>2011-04-04T11:01:49Z</time>
      </trkpt>
      <trkpt lat="46.40504" lon="5.77241">
        <ele>881</ele>
        <time>2011-04-04T11:01:54Z</time>
      </trkpt>
      <trkpt lat="46.40491" lon="5.77224">
        <ele>883</ele>
        <time>2011-04-04T11:02:01Z</time>
      </trkpt>
      <trkpt lat="46.40481" lon="5.77205">
        <ele>884</ele>
        <time>2011-04-04T11:02:08Z</time>
      </trkpt>
      <trkpt lat="46.40473" lon="5.77191">
        <ele>885</ele>
        <time>2011-04-04T11:02:13Z</time>
      </trkpt>
      <trkpt lat="46.40464" lon="5.7717">
        <ele>886</ele>
        <time>2011-04-04T11:02:20Z</time>
      </trkpt>
      <trkpt lat="46.40459" lon="5.77149">
        <ele>887</ele>
        <time>2011-04-04T11:02:26Z</time>
      </trkpt>
      <trkpt lat="46.4046" lon="5.77124">
        <ele>888</ele>
        <time>2011-04-04T11:02:33Z</time>
      </trkpt>
      <trkpt lat="46.40463" lon="5.77106">
        <ele>890</ele>
        <time>2011-04-04T11:02:39Z</time>
      </trkpt>
      <trkpt lat="46.4046" lon="5.77088">
        <ele>890</ele>
        <time>2011-04-04T11:02:44Z</time>
      </trkpt>
      <trkpt lat="46.40448" lon="5.77073">
        <ele>891</ele>
        <time>2011-04-04T11:02:50Z</time>
      </trkpt>
      <trkpt lat="46.40433" lon="5.77058">
        <ele>893</ele>
        <time>2011-04-04T11:02:57Z</time>
      </trkpt>
      <trkpt lat="46.40416" lon="5.77037">
        <ele>892</ele>
        <time>2011-04-04T11:03:04Z</time>
      </trkpt>
      <trkpt lat="46.40398" lon="5.77011">
        <ele>890</ele>
        <time>2011-04-04T11:03:09Z</time>
      </trkpt>
      <trkpt lat="46.40388" lon="5.76998">
        <ele>889</ele>
        <time>2011-04-04T11:03:11Z</time>
      </trkpt>
      <trkpt lat="46.40354" lon="5.76975">
        <ele>885</ele>
        <time>2011-04-04T11:03:16Z</time>
      </trkpt>
      <trkpt lat="46.40323" lon="5.76954">
        <ele>884</ele>
        <time>2011-04-04T11:03:21Z</time>
      </trkpt>
      <trkpt lat="46.40291" lon="5.76932">
        <ele>883</ele>
        <time>2011-04-04T11:03:26Z</time>
      </trkpt>
      <trkpt lat="46.40264" lon="5.76911">
        <ele>881</ele>
        <time>2011-04-04T11:03:30Z</time>
      </trkpt>
      <trkpt lat="46.40221" lon="5.76889">
        <ele>876</ele>
        <time>2011-04-04T11:03:35Z</time>
      </trkpt>
      <trkpt lat="46.40211" lon="5.76886">
        <ele>875</ele>
        <time>2011-04-04T11:03:36Z</time>
      </trkpt>
      <trkpt lat="46.40169" lon="5.76887">
        <ele>871</ele>
        <time>2011-04-04T11:03:40Z</time>
      </trkpt>
      <trkpt lat="46.4015" lon="5.76886">
        <ele>870</ele>
        <time>2011-04-04T11:03:42Z</time>
      </trkpt>
      <trkpt lat="46.40092" lon="5.76873">
        <ele>870</ele>
        <time>2011-04-04T11:03:49Z</time>
      </trkpt>
      <trkpt lat="46.40063" lon="5.76863">
        <ele>873</ele>
        <time>2011-04-04T11:03:54Z</time>
      </trkpt>
      <trkpt lat="46.40034" lon="5.7685">
        <ele>875</ele>
        <time>2011-04-04T11:04:00Z</time>
      </trkpt>
      <trkpt lat="46.40008" lon="5.76837">
        <ele>877</ele>
        <time>2011-04-04T11:04:06Z</time>
      </trkpt>
      <trkpt lat="46.39985" lon="5.7682">
        <ele>878</ele>
        <time>2011-04-04T11:04:12Z</time>
      </trkpt>
      <trkpt lat="46.39972" lon="5.76801">
        <ele>880</ele>
        <time>2011-04-04T11:04:16Z</time>
      </trkpt>
      <trkpt lat="46.39963" lon="5.76784">
        <ele>880</ele>
        <time>2011-04-04T11:04:19Z</time>
      </trkpt>
      <trkpt lat="46.39944" lon="5.76766">
        <ele>882</ele>
        <time>2011-04-04T11:04:24Z</time>
      </trkpt>
      <trkpt lat="46.39916" lon="5.76747">
        <ele>883</ele>
        <time>2011-04-04T11:04:31Z</time>
      </trkpt>
      <trkpt lat="46.39893" lon="5.76724">
        <ele>884</ele>
        <time>2011-04-04T11:04:37Z</time>
      </trkpt>
      <trkpt lat="46.39889" lon="5.7672">
        <ele>884</ele>
        <time>2011-04-04T11:04:38Z</time>
      </trkpt>
      <trkpt lat="46.39871" lon="5.76712">
        <ele>885</ele>
        <time>2011-04-04T11:04:42Z</time>
      </trkpt>
      <trkpt lat="46.39859" lon="5.76723">
        <ele>885</ele>
        <time>2011-04-04T11:04:45Z</time>
      </trkpt>
      <trkpt lat="46.39844" lon="5.76744">
        <ele>885</ele>
        <time>2011-04-04T11:04:49Z</time>
      </trkpt>
      <trkpt lat="46.39824" lon="5.76755">
        <ele>884</ele>
        <time>2011-04-04T11:04:53Z</time>
      </trkpt>
      <trkpt lat="46.39812" lon="5.76745">
        <ele>884</ele>
        <time>2011-04-04T11:04:56Z</time>
      </trkpt>
      <trkpt lat="46.39807" lon="5.76737">
        <ele>885</ele>
        <time>2011-04-04T11:04:59Z</time>
      </trkpt>
      <trkpt lat="46.39798" lon="5.76724">
        <ele>889</ele>
        <time>2011-04-04T11:05:06Z</time>
      </trkpt>
      <trkpt lat="46.39791" lon="5.76712">
        <ele>890</ele>
        <time>2011-04-04T11:05:11Z</time>
      </trkpt>
      <trkpt lat="46.39786" lon="5.76707">
        <ele>891</ele>
        <time>2011-04-04T11:05:16Z</time>
      </trkpt>
      <trkpt lat="46.39784" lon="5.76705">
        <ele>892</ele>
        <time>2011-04-04T11:05:18Z</time>
      </trkpt>
      <trkpt lat="46.39778" lon="5.767">
        <ele>894</ele>
        <time>2011-04-04T11:05:23Z</time>
      </trkpt>
      <trkpt lat="46.39776" lon="5.76697">
        <ele>895</ele>
        <time>2011-04-04T11:05:27Z</time>
      </trkpt>
      <trkpt lat="46.39768" lon="5.76685">
        <ele>897</ele>
        <time>2011-04-04T11:05:35Z</time>
      </trkpt>
      <trkpt lat="46.39757" lon="5.7667">
        <ele>897</ele>
        <time>2011-04-04T11:05:41Z</time>
      </trkpt>
      <trkpt lat="46.39753" lon="5.76667">
        <ele>897</ele>
        <time>2011-04-04T11:05:42Z</time>
      </trkpt>
      <trkpt lat="46.39737" lon="5.76645">
        <ele>895</ele>
        <time>2011-04-04T11:05:47Z</time>
      </trkpt>
      <trkpt lat="46.39731" lon="5.76636">
        <ele>894</ele>
        <time>2011-04-04T11:05:50Z</time>
      </trkpt>
      <trkpt lat="46.39728" lon="5.76631">
        <ele>894</ele>
        <time>2011-04-04T11:05:52Z</time>
      </trkpt>
      <trkpt lat="46.39711" lon="5.76626">
        <ele>893</ele>
        <time>2011-04-04T11:05:57Z</time>
      </trkpt>
      <trkpt lat="46.39696" lon="5.76613">
        <ele>891</ele>
        <time>2011-04-04T11:06:01Z</time>
      </trkpt>
      <trkpt lat="46.39687" lon="5.766">
        <ele>889</ele>
        <time>2011-04-04T11:06:05Z</time>
      </trkpt>
      <trkpt lat="46.39682" lon="5.76586">
        <ele>890</ele>
        <time>2011-04-04T11:06:10Z</time>
      </trkpt>
      <trkpt lat="46.39671" lon="5.7657">
        <ele>891</ele>
        <time>2011-04-04T11:06:16Z</time>
      </trkpt>
      <trkpt lat="46.39664" lon="5.7656">
        <ele>890</ele>
        <time>2011-04-04T11:06:18Z</time>
      </trkpt>
      <trkpt lat="46.39655" lon="5.7654">
        <ele>888</ele>
        <time>2011-04-04T11:06:21Z</time>
      </trkpt>
      <trkpt lat="46.39642" lon="5.76526">
        <ele>884</ele>
        <time>2011-04-04T11:06:25Z</time>
      </trkpt>
      <trkpt lat="46.39639" lon="5.76524">
        <ele>885</ele>
        <time>2011-04-04T11:06:32Z</time>
      </trkpt>
      <trkpt lat="46.39635" lon="5.76518">
        <ele>886</ele>
        <time>2011-04-04T11:06:37Z</time>
      </trkpt>
      <trkpt lat="46.39631" lon="5.76508">
        <ele>887</ele>
        <time>2011-04-04T11:06:42Z</time>
      </trkpt>
      <trkpt lat="46.39621" lon="5.76493">
        <ele>888</ele>
        <time>2011-04-04T11:06:48Z</time>
      </trkpt>
      <trkpt lat="46.39603" lon="5.7647">
        <ele>887</ele>
        <time>2011-04-04T11:06:54Z</time>
      </trkpt>
      <trkpt lat="46.39599" lon="5.76465">
        <ele>886</ele>
        <time>2011-04-04T11:06:55Z</time>
      </trkpt>
      <trkpt lat="46.39589" lon="5.76441">
        <ele>883</ele>
        <time>2011-04-04T11:06:59Z</time>
      </trkpt>
      <trkpt lat="46.39581" lon="5.7643">
        <ele>881</ele>
        <time>2011-04-04T11:07:03Z</time>
      </trkpt>
      <trkpt lat="46.39573" lon="5.76438">
        <ele>881</ele>
        <time>2011-04-04T11:07:07Z</time>
      </trkpt>
      <trkpt lat="46.39569" lon="5.76443">
        <ele>882</ele>
        <time>2011-04-04T11:07:09Z</time>
      </trkpt>
      <trkpt lat="46.39559" lon="5.76464">
        <ele>882</ele>
        <time>2011-04-04T11:07:14Z</time>
      </trkpt>
      <trkpt lat="46.39543" lon="5.76474">
        <ele>880</ele>
        <time>2011-04-04T11:07:18Z</time>
      </trkpt>
      <trkpt lat="46.39526" lon="5.76461">
        <ele>877</ele>
        <time>2011-04-04T11:07:21Z</time>
      </trkpt>
      <trkpt lat="46.39508" lon="5.76443">
        <ele>874</ele>
        <time>2011-04-04T11:07:24Z</time>
      </trkpt>
      <trkpt lat="46.39475" lon="5.76423">
        <ele>870</ele>
        <time>2011-04-04T11:07:29Z</time>
      </trkpt>
      <trkpt lat="46.39462" lon="5.76418">
        <ele>868</ele>
        <time>2011-04-04T11:07:31Z</time>
      </trkpt>
      <trkpt lat="46.39451" lon="5.76415">
        <ele>868</ele>
        <time>2011-04-04T11:07:33Z</time>
      </trkpt>
      <trkpt lat="46.39428" lon="5.76406">
        <ele>865</ele>
        <time>2011-04-04T11:07:37Z</time>
      </trkpt>
      <trkpt lat="46.39409" lon="5.76401">
        <ele>860</ele>
        <time>2011-04-04T11:07:42Z</time>
      </trkpt>
      <trkpt lat="46.39401" lon="5.76408">
        <ele>857</ele>
        <time>2011-04-04T11:07:46Z</time>
      </trkpt>
      <trkpt lat="46.39408" lon="5.76425">
        <ele>853</ele>
        <time>2011-04-04T11:07:49Z</time>
      </trkpt>
      <trkpt lat="46.39417" lon="5.76435">
        <ele>852</ele>
        <time>2011-04-04T11:07:51Z</time>
      </trkpt>
      <trkpt lat="46.39426" lon="5.76445">
        <ele>850</ele>
        <time>2011-04-04T11:07:53Z</time>
      </trkpt>
      <trkpt lat="46.39443" lon="5.76466">
        <ele>848</ele>
        <time>2011-04-04T11:07:56Z</time>
      </trkpt>
      <trkpt lat="46.39471" lon="5.76517">
        <ele>843</ele>
        <time>2011-04-04T11:08:02Z</time>
      </trkpt>
      <trkpt lat="46.39493" lon="5.76553">
        <ele>839</ele>
        <time>2011-04-04T11:08:06Z</time>
      </trkpt>
      <trkpt lat="46.39508" lon="5.76579">
        <ele>837</ele>
        <time>2011-04-04T11:08:09Z</time>
      </trkpt>
      <trkpt lat="46.39509" lon="5.76589">
        <ele>836</ele>
        <time>2011-04-04T11:08:12Z</time>
      </trkpt>
      <trkpt lat="46.39503" lon="5.7658">
        <ele>837</ele>
        <time>2011-04-04T11:08:15Z</time>
      </trkpt>
      <trkpt lat="46.39489" lon="5.7656">
        <ele>837</ele>
        <time>2011-04-04T11:08:21Z</time>
      </trkpt>
      <trkpt lat="46.39476" lon="5.76547">
        <ele>837</ele>
        <time>2011-04-04T11:08:25Z</time>
      </trkpt>
      <trkpt lat="46.39459" lon="5.76531">
        <ele>838</ele>
        <time>2011-04-04T11:08:29Z</time>
      </trkpt>
      <trkpt lat="46.39444" lon="5.76517">
        <ele>841</ele>
        <time>2011-04-04T11:08:35Z</time>
      </trkpt>
      <trkpt lat="46.39431" lon="5.76503">
        <ele>842</ele>
        <time>2011-04-04T11:08:41Z</time>
      </trkpt>
      <trkpt lat="46.39429" lon="5.76501">
        <ele>842</ele>
        <time>2011-04-04T11:08:42Z</time>
      </trkpt>
      <trkpt lat="46.39419" lon="5.76487">
        <ele>842</ele>
        <time>2011-04-04T11:08:47Z</time>
      </trkpt>
      <trkpt lat="46.39402" lon="5.76471">
        <ele>842</ele>
        <time>2011-04-04T11:08:51Z</time>
      </trkpt>
      <trkpt lat="46.39377" lon="5.76448">
        <ele>841</ele>
        <time>2011-04-04T11:08:57Z</time>
      </trkpt>
      <trkpt lat="46.39365" lon="5.76437">
        <ele>842</ele>
        <time>2011-04-04T11:09:01Z</time>
      </trkpt>
      <trkpt lat="46.39345" lon="5.76416">
        <ele>841</ele>
        <time>2011-04-04T11:09:07Z</time>
      </trkpt>
      <trkpt lat="46.39342" lon="5.76412">
        <ele>841</ele>
        <time>2011-04-04T11:09:08Z</time>
      </trkpt>
      <trkpt lat="46.39317" lon="5.7639">
        <ele>839</ele>
        <time>2011-04-04T11:09:13Z</time>
      </trkpt>
      <trkpt lat="46.39299" lon="5.76367">
        <ele>835</ele>
        <time>2011-04-04T11:09:16Z</time>
      </trkpt>
      <trkpt lat="46.39273" lon="5.76312">
        <ele>831</ele>
        <time>2011-04-04T11:09:21Z</time>
      </trkpt>
      <trkpt lat="46.39261" lon="5.76279">
        <ele>831</ele>
        <time>2011-04-04T11:09:25Z</time>
      </trkpt>
      <trkpt lat="46.39258" lon="5.76268">
        <ele>832</ele>
        <time>2011-04-04T11:09:28Z</time>
      </trkpt>
      <trkpt lat="46.39249" lon="5.76254">
        <ele>834</ele>
        <time>2011-04-04T11:09:32Z</time>
      </trkpt>
      <trkpt lat="46.39244" lon="5.76241">
        <ele>834</ele>
        <time>2011-04-04T11:09:36Z</time>
      </trkpt>
      <trkpt lat="46.39232" lon="5.76218">
        <ele>834</ele>
        <time>2011-04-04T11:09:42Z</time>
      </trkpt>
      <trkpt lat="46.39218" lon="5.76198">
        <ele>834</ele>
        <time>2011-04-04T11:09:47Z</time>
      </trkpt>
      <trkpt lat="46.39208" lon="5.76184">
        <ele>835</ele>
        <time>2011-04-04T11:09:52Z</time>
      </trkpt>
      <trkpt lat="46.39203" lon="5.76168">
        <ele>837</ele>
        <time>2011-04-04T11:09:59Z</time>
      </trkpt>
      <trkpt lat="46.39199" lon="5.76155">
        <ele>838</ele>
        <time>2011-04-04T11:10:04Z</time>
      </trkpt>
      <trkpt lat="46.39192" lon="5.76145">
        <ele>840</ele>
        <time>2011-04-04T11:10:10Z</time>
      </trkpt>
      <trkpt lat="46.39183" lon="5.76132">
        <ele>844</ele>
        <time>2011-04-04T11:10:18Z</time>
      </trkpt>
      <trkpt lat="46.39179" lon="5.76128">
        <ele>844</ele>
        <time>2011-04-04T11:10:20Z</time>
      </trkpt>
      <trkpt lat="46.39177" lon="5.76117">
        <ele>845</ele>
        <time>2011-04-04T11:10:25Z</time>
      </trkpt>
      <trkpt lat="46.39171" lon="5.76104">
        <ele>845</ele>
        <time>2011-04-04T11:10:29Z</time>
      </trkpt>
      <trkpt lat="46.39164" lon="5.76086">
        <ele>844</ele>
        <time>2011-04-04T11:10:32Z</time>
      </trkpt>
      <trkpt lat="46.3916" lon="5.76059">
        <ele>842</ele>
        <time>2011-04-04T11:10:36Z</time>
      </trkpt>
      <trkpt lat="46.39159" lon="5.76055">
        <ele>842</ele>
        <time>2011-04-04T11:10:37Z</time>
      </trkpt>
      <trkpt lat="46.39157" lon="5.76023">
        <ele>844</ele>
        <time>2011-04-04T11:10:45Z</time>
      </trkpt>
      <trkpt lat="46.39157" lon="5.75997">
        <ele>845</ele>
        <time>2011-04-04T11:10:52Z</time>
      </trkpt>
      <trkpt lat="46.39155" lon="5.75982">
        <ele>846</ele>
        <time>2011-04-04T11:10:57Z</time>
      </trkpt>
      <trkpt lat="46.39147" lon="5.75974">
        <ele>848</ele>
        <time>2011-04-04T11:11:02Z</time>
      </trkpt>
      <trkpt lat="46.39132" lon="5.75965">
        <ele>850</ele>
        <time>2011-04-04T11:11:09Z</time>
      </trkpt>
      <trkpt lat="46.39115" lon="5.75968">
        <ele>851</ele>
        <time>2011-04-04T11:11:15Z</time>
      </trkpt>
      <trkpt lat="46.39092" lon="5.75981">
        <ele>852</ele>
        <time>2011-04-04T11:11:24Z</time>
      </trkpt>
      <trkpt lat="46.39074" lon="5.75994">
        <ele>853</ele>
        <time>2011-04-04T11:11:31Z</time>
      </trkpt>
      <trkpt lat="46.39061" lon="5.76008">
        <ele>854</ele>
        <time>2011-04-04T11:11:37Z</time>
      </trkpt>
      <trkpt lat="46.39043" lon="5.76028">
        <ele>855</ele>
        <time>2011-04-04T11:11:44Z</time>
      </trkpt>
      <trkpt lat="46.39025" lon="5.76038">
        <ele>855</ele>
        <time>2011-04-04T11:11:49Z</time>
      </trkpt>
      <trkpt lat="46.39015" lon="5.76042">
        <ele>855</ele>
        <time>2011-04-04T11:11:52Z</time>
      </trkpt>
      <trkpt lat="46.39007" lon="5.76061">
        <ele>855</ele>
        <time>2011-04-04T11:11:56Z</time>
      </trkpt>
      <trkpt lat="46.39003" lon="5.7608">
        <ele>855</ele>
        <time>2011-04-04T11:11:59Z</time>
      </trkpt>
      <trkpt lat="46.38993" lon="5.76106">
        <ele>854</ele>
        <time>2011-04-04T11:12:03Z</time>
      </trkpt>
      <trkpt lat="46.38975" lon="5.76123">
        <ele>853</ele>
        <time>2011-04-04T11:12:07Z</time>
      </trkpt>
      <trkpt lat="46.38961" lon="5.76155">
        <ele>851</ele>
        <time>2011-04-04T11:12:11Z</time>
      </trkpt>
      <trkpt lat="46.38946" lon="5.76177">
        <ele>849</ele>
        <time>2011-04-04T11:12:15Z</time>
      </trkpt>
      <trkpt lat="46.38941" lon="5.76176">
        <ele>849</ele>
        <time>2011-04-04T11:12:16Z</time>
      </trkpt>
      <trkpt lat="46.38923" lon="5.76174">
        <ele>848</ele>
        <time>2011-04-04T11:12:19Z</time>
      </trkpt>
      <trkpt lat="46.3889" lon="5.76161">
        <ele>845</ele>
        <time>2011-04-04T11:12:24Z</time>
      </trkpt>
      <trkpt lat="46.38872" lon="5.76164">
        <ele>843</ele>
        <time>2011-04-04T11:12:27Z</time>
      </trkpt>
      <trkpt lat="46.3884" lon="5.76168">
        <ele>840</ele>
        <time>2011-04-04T11:12:31Z</time>
      </trkpt>
      <trkpt lat="46.38796" lon="5.76175">
        <ele>836</ele>
        <time>2011-04-04T11:12:36Z</time>
      </trkpt>
      <trkpt lat="46.38748" lon="5.76185">
        <ele>831</ele>
        <time>2011-04-04T11:12:41Z</time>
      </trkpt>
      <trkpt lat="46.38707" lon="5.76186">
        <ele>826</ele>
        <time>2011-04-04T11:12:45Z</time>
      </trkpt>
      <trkpt lat="46.38689" lon="5.76179">
        <ele>824</ele>
        <time>2011-04-04T11:12:47Z</time>
      </trkpt>
      <trkpt lat="46.38665" lon="5.76191">
        <ele>822</ele>
        <time>2011-04-04T11:12:51Z</time>
      </trkpt>
      <trkpt lat="46.38641" lon="5.76192">
        <ele>823</ele>
        <time>2011-04-04T11:12:56Z</time>
      </trkpt>
      <trkpt lat="46.38619" lon="5.7618">
        <ele>823</ele>
        <time>2011-04-04T11:13:00Z</time>
      </trkpt>
      <trkpt lat="46.38585" lon="5.76163">
        <ele>822</ele>
        <time>2011-04-04T11:13:06Z</time>
      </trkpt>
      <trkpt lat="46.3857" lon="5.76159">
        <ele>822</ele>
        <time>2011-04-04T11:13:09Z</time>
      </trkpt>
      <trkpt lat="46.38552" lon="5.76158">
        <ele>823</ele>
        <time>2011-04-04T11:13:14Z</time>
      </trkpt>
      <trkpt lat="46.38538" lon="5.76158">
        <ele>824</ele>
        <time>2011-04-04T11:13:17Z</time>
      </trkpt>
      <trkpt lat="46.38518" lon="5.76166">
        <ele>824</ele>
        <time>2011-04-04T11:13:22Z</time>
      </trkpt>
      <trkpt lat="46.38499" lon="5.76174">
        <ele>824</ele>
        <time>2011-04-04T11:13:27Z</time>
      </trkpt>
      <trkpt lat="46.38497" lon="5.76174">
        <ele>824</ele>
        <time>2011-04-04T11:13:28Z</time>
      </trkpt>
      <trkpt lat="46.38492" lon="5.76175">
        <ele>824</ele>
        <time>2011-04-04T11:13:30Z</time>
      </trkpt>
      <trkpt lat="46.38474" lon="5.76179">
        <ele>824</ele>
        <time>2011-04-04T11:13:35Z</time>
      </trkpt>
      <trkpt lat="46.38466" lon="5.7618">
        <ele>825</ele>
        <time>2011-04-04T11:13:38Z</time>
      </trkpt>
      <trkpt lat="46.38454" lon="5.76185">
        <ele>825</ele>
        <time>2011-04-04T11:13:41Z</time>
      </trkpt>
      <trkpt lat="46.38442" lon="5.76185">
        <ele>824</ele>
        <time>2011-04-04T11:13:45Z</time>
      </trkpt>
      <trkpt lat="46.38434" lon="5.76192">
        <ele>823</ele>
        <time>2011-04-04T11:13:49Z</time>
      </trkpt>
      <trkpt lat="46.3843" lon="5.76191">
        <ele>822</ele>
        <time>2011-04-04T11:13:51Z</time>
      </trkpt>
      <trkpt lat="46.38418" lon="5.7619">
        <ele>821</ele>
        <time>2011-04-04T11:13:55Z</time>
      </trkpt>
      <trkpt lat="46.38398" lon="5.76188">
        <ele>820</ele>
        <time>2011-04-04T11:14:00Z</time>
      </trkpt>
      <trkpt lat="46.38385" lon="5.76184">
        <ele>818</ele>
        <time>2011-04-04T11:14:02Z</time>
      </trkpt>
      <trkpt lat="46.38373" lon="5.76176">
        <ele>817</ele>
        <time>2011-04-04T11:14:04Z</time>
      </trkpt>
      <trkpt lat="46.38354" lon="5.76151">
        <ele>813</ele>
        <time>2011-04-04T11:14:08Z</time>
      </trkpt>
      <trkpt lat="46.38323" lon="5.76127">
        <ele>807</ele>
        <time>2011-04-04T11:14:14Z</time>
      </trkpt>
      <trkpt lat="46.38304" lon="5.76125">
        <ele>804</ele>
        <time>2011-04-04T11:14:17Z</time>
      </trkpt>
      <trkpt lat="46.38287" lon="5.76121">
        <ele>799</ele>
        <time>2011-04-04T11:14:20Z</time>
      </trkpt>
      <trkpt lat="46.38275" lon="5.76114">
        <ele>796</ele>
        <time>2011-04-04T11:14:22Z</time>
      </trkpt>
      <trkpt lat="46.38244" lon="5.76098">
        <ele>788</ele>
        <time>2011-04-04T11:14:27Z</time>
      </trkpt>
      <trkpt lat="46.38225" lon="5.76091">
        <ele>784</ele>
        <time>2011-04-04T11:14:30Z</time>
      </trkpt>
      <trkpt lat="46.38202" lon="5.76088">
        <ele>779</ele>
        <time>2011-04-04T11:14:33Z</time>
      </trkpt>
      <trkpt lat="46.38164" lon="5.76093">
        <ele>772</ele>
        <time>2011-04-04T11:14:38Z</time>
      </trkpt>
      <trkpt lat="46.38154" lon="5.76097">
        <ele>771</ele>
        <time>2011-04-04T11:14:40Z</time>
      </trkpt>
      <trkpt lat="46.38144" lon="5.76103">
        <ele>771</ele>
        <time>2011-04-04T11:14:42Z</time>
      </trkpt>
      <trkpt lat="46.38124" lon="5.76115">
        <ele>771</ele>
        <time>2011-04-04T11:14:46Z</time>
      </trkpt>
      <trkpt lat="46.38116" lon="5.76126">
        <ele>769</ele>
        <time>2011-04-04T11:14:50Z</time>
      </trkpt>
      <trkpt lat="46.38114" lon="5.76129">
        <ele>769</ele>
        <time>2011-04-04T11:14:51Z</time>
      </trkpt>
      <trkpt lat="46.38104" lon="5.76133">
        <ele>767</ele>
        <time>2011-04-04T11:14:54Z</time>
      </trkpt>
      <trkpt lat="46.38084" lon="5.76136">
        <ele>763</ele>
        <time>2011-04-04T11:14:59Z</time>
      </trkpt>
      <trkpt lat="46.3808" lon="5.76136">
        <ele>762</ele>
        <time>2011-04-04T11:15:00Z</time>
      </trkpt>
      <trkpt lat="46.38063" lon="5.76135">
        <ele>757</ele>
        <time>2011-04-04T11:15:05Z</time>
      </trkpt>
      <trkpt lat="46.38054" lon="5.76133">
        <ele>756</ele>
        <time>2011-04-04T11:15:07Z</time>
      </trkpt>
      <trkpt lat="46.3802" lon="5.76122">
        <ele>750</ele>
        <time>2011-04-04T11:15:12Z</time>
      </trkpt>
      <trkpt lat="46.38003" lon="5.76116">
        <ele>747</ele>
        <time>2011-04-04T11:15:14Z</time>
      </trkpt>
      <trkpt lat="46.37979" lon="5.76112">
        <ele>742</ele>
        <time>2011-04-04T11:15:18Z</time>
      </trkpt>
      <trkpt lat="46.37966" lon="5.76133">
        <ele>738</ele>
        <time>2011-04-04T11:15:21Z</time>
      </trkpt>
      <trkpt lat="46.37957" lon="5.76171">
        <ele>731</ele>
        <time>2011-04-04T11:15:25Z</time>
      </trkpt>
      <trkpt lat="46.37953" lon="5.76179">
        <ele>729</ele>
        <time>2011-04-04T11:15:26Z</time>
      </trkpt>
      <trkpt lat="46.37936" lon="5.76207">
        <ele>724</ele>
        <time>2011-04-04T11:15:30Z</time>
      </trkpt>
      <trkpt lat="46.37922" lon="5.7622">
        <ele>722</ele>
        <time>2011-04-04T11:15:33Z</time>
      </trkpt>
      <trkpt lat="46.37886" lon="5.76247">
        <ele>720</ele>
        <time>2011-04-04T11:15:40Z</time>
      </trkpt>
      <trkpt lat="46.37863" lon="5.76258">
        <ele>719</ele>
        <time>2011-04-04T11:15:44Z</time>
      </trkpt>
      <trkpt lat="46.37844" lon="5.76268">
        <ele>718</ele>
        <time>2011-04-04T11:15:47Z</time>
      </trkpt>
      <trkpt lat="46.37827" lon="5.7629">
        <ele>717</ele>
        <time>2011-04-04T11:15:51Z</time>
      </trkpt>
      <trkpt lat="46.3782" lon="5.76304">
        <ele>717</ele>
        <time>2011-04-04T11:15:54Z</time>
      </trkpt>
      <trkpt lat="46.37796" lon="5.76318">
        <ele>715</ele>
        <time>2011-04-04T11:16:00Z</time>
      </trkpt>
      <trkpt lat="46.37786" lon="5.76312">
        <ele>714</ele>
        <time>2011-04-04T11:16:02Z</time>
      </trkpt>
      <trkpt lat="46.37764" lon="5.76292">
        <ele>711</ele>
        <time>2011-04-04T11:16:06Z</time>
      </trkpt>
      <trkpt lat="46.37726" lon="5.76233">
        <ele>709</ele>
        <time>2011-04-04T11:16:14Z</time>
      </trkpt>
      <trkpt lat="46.37697" lon="5.76187">
        <ele>709</ele>
        <time>2011-04-04T11:16:21Z</time>
      </trkpt>
      <trkpt lat="46.37672" lon="5.76152">
        <ele>708</ele>
        <time>2011-04-04T11:16:27Z</time>
      </trkpt>
      <trkpt lat="46.37664" lon="5.76142">
        <ele>708</ele>
        <time>2011-04-04T11:16:29Z</time>
      </trkpt>
      <trkpt lat="46.3765" lon="5.76125">
        <ele>707</ele>
        <time>2011-04-04T11:16:34Z</time>
      </trkpt>
      <trkpt lat="46.37648" lon="5.76121">
        <ele>707</ele>
        <time>2011-04-04T11:16:35Z</time>
      </trkpt>
      <trkpt lat="46.37638" lon="5.76122">
        <ele>707</ele>
        <time>2011-04-04T11:16:39Z</time>
      </trkpt>
      <trkpt lat="46.37631" lon="5.76137">
        <ele>707</ele>
        <time>2011-04-04T11:16:43Z</time>
      </trkpt>
      <trkpt lat="46.37621" lon="5.76142">
        <ele>708</ele>
        <time>2011-04-04T11:16:48Z</time>
      </trkpt>
      <trkpt lat="46.37617" lon="5.76141">
        <ele>708</ele>
        <time>2011-04-04T11:16:49Z</time>
      </trkpt>
      <trkpt lat="46.37608" lon="5.76141">
        <ele>709</ele>
        <time>2011-04-04T11:16:51Z</time>
      </trkpt>
      <trkpt lat="46.3756" lon="5.76128">
        <ele>707</ele>
        <time>2011-04-04T11:17:00Z</time>
      </trkpt>
      <trkpt lat="46.37519" lon="5.76109">
        <ele>706</ele>
        <time>2011-04-04T11:17:07Z</time>
      </trkpt>
      <trkpt lat="46.37477" lon="5.76087">
        <ele>703</ele>
        <time>2011-04-04T11:17:13Z</time>
      </trkpt>
      <trkpt lat="46.3747" lon="5.76084">
        <ele>703</ele>
        <time>2011-04-04T11:17:14Z</time>
      </trkpt>
      <trkpt lat="46.37439" lon="5.76053">
        <ele>702</ele>
        <time>2011-04-04T11:17:19Z</time>
      </trkpt>
      <trkpt lat="46.37422" lon="5.76034">
        <ele>702</ele>
        <time>2011-04-04T11:17:22Z</time>
      </trkpt>
      <trkpt lat="46.37405" lon="5.76029">
        <ele>702</ele>
        <time>2011-04-04T11:17:25Z</time>
      </trkpt>
      <trkpt lat="46.374" lon="5.76034">
        <ele>702</ele>
        <time>2011-04-04T11:17:26Z</time>
      </trkpt>
      <trkpt lat="46.37376" lon="5.76064">
        <ele>703</ele>
        <time>2011-04-04T11:17:32Z</time>
      </trkpt>
      <trkpt lat="46.37383" lon="5.76097">
        <ele>703</ele>
        <time>2011-04-04T11:17:37Z</time>
      </trkpt>
      <trkpt lat="46.37378" lon="5.76109">
        <ele>703</ele>
        <time>2011-04-04T11:17:39Z</time>
      </trkpt>
      <trkpt lat="46.37365" lon="5.76142">
        <ele>702</ele>
        <time>2011-04-04T11:17:44Z</time>
      </trkpt>
      <trkpt lat="46.37364" lon="5.76202">
        <ele>701</ele>
        <time>2011-04-04T11:17:51Z</time>
      </trkpt>
      <trkpt lat="46.37358" lon="5.76252">
        <ele>699</ele>
        <time>2011-04-04T11:17:56Z</time>
      </trkpt>
      <trkpt lat="46.37358" lon="5.76283">
        <ele>697</ele>
        <time>2011-04-04T11:17:59Z</time>
      </trkpt>
      <trkpt lat="46.3735" lon="5.76317">
        <ele>695</ele>
        <time>2011-04-04T11:18:03Z</time>
      </trkpt>
      <trkpt lat="46.37344" lon="5.76335">
        <ele>695</ele>
        <time>2011-04-04T11:18:05Z</time>
      </trkpt>
      <trkpt lat="46.37334" lon="5.76363">
        <ele>695</ele>
        <time>2011-04-04T11:18:09Z</time>
      </trkpt>
      <trkpt lat="46.37331" lon="5.76363">
        <ele>695</ele>
        <time>2011-04-04T11:18:10Z</time>
      </trkpt>
      <trkpt lat="46.37312" lon="5.76363">
        <ele>696</ele>
        <time>2011-04-04T11:18:16Z</time>
      </trkpt>
      <trkpt lat="46.37302" lon="5.7636">
        <ele>697</ele>
        <time>2011-04-04T11:18:19Z</time>
      </trkpt>
      <trkpt lat="46.37293" lon="5.76345">
        <ele>698</ele>
        <time>2011-04-04T11:18:23Z</time>
      </trkpt>
      <trkpt lat="46.37276" lon="5.76315">
        <ele>699</ele>
        <time>2011-04-04T11:18:30Z</time>
      </trkpt>
      <trkpt lat="46.37272" lon="5.76297">
        <ele>701</ele>
        <time>2011-04-04T11:18:34Z</time>
      </trkpt>
      <trkpt lat="46.37258" lon="5.76281">
        <ele>702</ele>
        <time>2011-04-04T11:18:39Z</time>
      </trkpt>
      <trkpt lat="46.37254" lon="5.76278">
        <ele>702</ele>
        <time>2011-04-04T11:18:40Z</time>
      </trkpt>
      <trkpt lat="46.3724" lon="5.76263">
        <ele>702</ele>
        <time>2011-04-04T11:18:44Z</time>
      </trkpt>
      <trkpt lat="46.37225" lon="5.76248">
        <ele>701</ele>
        <time>2011-04-04T11:18:49Z</time>
      </trkpt>
      <trkpt lat="46.37212" lon="5.76237">
        <ele>701</ele>
        <time>2011-04-04T11:18:53Z</time>
      </trkpt>
      <trkpt lat="46.37202" lon="5.7622">
        <ele>701</ele>
        <time>2011-04-04T11:18:58Z</time>
      </trkpt>
      <trkpt lat="46.37196" lon="5.76209">
        <ele>702</ele>
        <time>2011-04-04T11:19:01Z</time>
      </trkpt>
      <trkpt lat="46.37192" lon="5.76202">
        <ele>702</ele>
        <time>2011-04-04T11:19:03Z</time>
      </trkpt>
      <trkpt lat="46.37185" lon="5.7619">
        <ele>704</ele>
        <time>2011-04-04T11:19:08Z</time>
      </trkpt>
      <trkpt lat="46.37177" lon="5.76181">
        <ele>707</ele>
        <time>2011-04-04T11:19:14Z</time>
      </trkpt>
      <trkpt lat="46.37165" lon="5.76171">
        <ele>708</ele>
        <time>2011-04-04T11:19:19Z</time>
      </trkpt>
      <trkpt lat="46.37161" lon="5.76157">
        <ele>708</ele>
        <time>2011-04-04T11:19:23Z</time>
      </trkpt>
      <trkpt lat="46.37153" lon="5.76141">
        <ele>710</ele>
        <time>2011-04-04T11:19:29Z</time>
      </trkpt>
      <trkpt lat="46.37147" lon="5.76128">
        <ele>712</ele>
        <time>2011-04-04T11:19:34Z</time>
      </trkpt>
      <trkpt lat="46.37135" lon="5.76111">
        <ele>714</ele>
        <time>2011-04-04T11:19:41Z</time>
      </trkpt>
      <trkpt lat="46.37124" lon="5.76094">
        <ele>715</ele>
        <time>2011-04-04T11:19:47Z</time>
      </trkpt>
      <trkpt lat="46.37121" lon="5.76075">
        <ele>715</ele>
        <time>2011-04-04T11:19:52Z</time>
      </trkpt>
      <trkpt lat="46.37128" lon="5.76045">
        <ele>718</ele>
        <time>2011-04-04T11:20:01Z</time>
      </trkpt>
      <trkpt lat="46.37138" lon="5.76018">
        <ele>720</ele>
        <time>2011-04-04T11:20:09Z</time>
      </trkpt>
      <trkpt lat="46.37143" lon="5.75998">
        <ele>720</ele>
        <time>2011-04-04T11:20:14Z</time>
      </trkpt>
      <trkpt lat="46.37154" lon="5.75975">
        <ele>719</ele>
        <time>2011-04-04T11:20:18Z</time>
      </trkpt>
      <trkpt lat="46.37177" lon="5.7597">
        <ele>716</ele>
        <time>2011-04-04T11:20:22Z</time>
      </trkpt>
      <trkpt lat="46.37205" lon="5.7596">
        <ele>714</ele>
        <time>2011-04-04T11:20:27Z</time>
      </trkpt>
      <trkpt lat="46.37211" lon="5.75956">
        <ele>714</ele>
        <time>2011-04-04T11:20:28Z</time>
      </trkpt>
      <trkpt lat="46.37247" lon="5.75931">
        <ele>711</ele>
        <time>2011-04-04T11:20:34Z</time>
      </trkpt>
      <trkpt lat="46.3725" lon="5.75925">
        <ele>711</ele>
        <time>2011-04-04T11:20:35Z</time>
      </trkpt>
      <trkpt lat="46.37263" lon="5.75888">
        <ele>712</ele>
        <time>2011-04-04T11:20:41Z</time>
      </trkpt>
      <trkpt lat="46.37265" lon="5.75868">
        <ele>711</ele>
        <time>2011-04-04T11:20:43Z</time>
      </trkpt>
      <trkpt lat="46.37264" lon="5.75849">
        <ele>709</ele>
        <time>2011-04-04T11:20:45Z</time>
      </trkpt>
      <trkpt lat="46.37242" lon="5.75814">
        <ele>703</ele>
        <time>2011-04-04T11:20:50Z</time>
      </trkpt>
      <trkpt lat="46.37222" lon="5.75797">
        <ele>699</ele>
        <time>2011-04-04T11:20:53Z</time>
      </trkpt>
      <trkpt lat="46.37203" lon="5.75776">
        <ele>694</ele>
        <time>2011-04-04T11:20:58Z</time>
      </trkpt>
      <trkpt lat="46.37196" lon="5.75771">
        <ele>692</ele>
        <time>2011-04-04T11:21:00Z</time>
      </trkpt>
      <trkpt lat="46.37187" lon="5.7577">
        <ele>691</ele>
        <time>2011-04-04T11:21:02Z</time>
      </trkpt>
      <trkpt lat="46.37174" lon="5.75781">
        <ele>688</ele>
        <time>2011-04-04T11:21:06Z</time>
      </trkpt>
      <trkpt lat="46.37167" lon="5.75788">
        <ele>688</ele>
        <time>2011-04-04T11:21:10Z</time>
      </trkpt>
      <trkpt lat="46.37152" lon="5.75782">
        <ele>687</ele>
        <time>2011-04-04T11:21:14Z</time>
      </trkpt>
      <trkpt lat="46.37139" lon="5.75777">
        <ele>686</ele>
        <time>2011-04-04T11:21:17Z</time>
      </trkpt>
      <trkpt lat="46.37125" lon="5.7575">
        <ele>686</ele>
        <time>2011-04-04T11:21:23Z</time>
      </trkpt>
      <trkpt lat="46.37114" lon="5.75744">
        <ele>687</ele>
        <time>2011-04-04T11:21:27Z</time>
      </trkpt>
      <trkpt lat="46.371" lon="5.75733">
        <ele>687</ele>
        <time>2011-04-04T11:21:32Z</time>
      </trkpt>
      <trkpt lat="46.37081" lon="5.75722">
        <ele>686</ele>
        <time>2011-04-04T11:21:36Z</time>
      </trkpt>
      <trkpt lat="46.37076" lon="5.7572">
        <ele>685</ele>
        <time>2011-04-04T11:21:37Z</time>
      </trkpt>
      <trkpt lat="46.37056" lon="5.75709">
        <ele>684</ele>
        <time>2011-04-04T11:21:41Z</time>
      </trkpt>
      <trkpt lat="46.37023" lon="5.75679">
        <ele>685</ele>
        <time>2011-04-04T11:21:48Z</time>
      </trkpt>
      <trkpt lat="46.36986" lon="5.75649">
        <ele>686</ele>
        <time>2011-04-04T11:21:56Z</time>
      </trkpt>
      <trkpt lat="46.36974" lon="5.75638">
        <ele>686</ele>
        <time>2011-04-04T11:21:59Z</time>
      </trkpt>
      <trkpt lat="46.36961" lon="5.75627">
        <ele>686</ele>
        <time>2011-04-04T11:22:02Z</time>
      </trkpt>
      <trkpt lat="46.36944" lon="5.75614">
        <ele>686</ele>
        <time>2011-04-04T11:22:06Z</time>
      </trkpt>
      <trkpt lat="46.3693" lon="5.75605">
        <ele>687</ele>
        <time>2011-04-04T11:22:09Z</time>
      </trkpt>
      <trkpt lat="46.36892" lon="5.75586">
        <ele>687</ele>
        <time>2011-04-04T11:22:16Z</time>
      </trkpt>
      <trkpt lat="46.36842" lon="5.75565">
        <ele>687</ele>
        <time>2011-04-04T11:22:25Z</time>
      </trkpt>
      <trkpt lat="46.36801" lon="5.75556">
        <ele>686</ele>
        <time>2011-04-04T11:22:32Z</time>
      </trkpt>
      <trkpt lat="46.36766" lon="5.75553">
        <ele>683</ele>
        <time>2011-04-04T11:22:37Z</time>
      </trkpt>
      <trkpt lat="46.36727" lon="5.75548">
        <ele>680</ele>
        <time>2011-04-04T11:22:42Z</time>
      </trkpt>
      <trkpt lat="46.36674" lon="5.75538">
        <ele>677</ele>
        <time>2011-04-04T11:22:48Z</time>
      </trkpt>
      <trkpt lat="46.36648" lon="5.75512">
        <ele>674</ele>
        <time>2011-04-04T11:22:52Z</time>
      </trkpt>
      <trkpt lat="46.36632" lon="5.75495">
        <ele>672</ele>
        <time>2011-04-04T11:22:55Z</time>
      </trkpt>
      <trkpt lat="46.36608" lon="5.75477">
        <ele>668</ele>
        <time>2011-04-04T11:23:00Z</time>
      </trkpt>
      <trkpt lat="46.36592" lon="5.75444">
        <ele>664</ele>
        <time>2011-04-04T11:23:04Z</time>
      </trkpt>
      <trkpt lat="46.36591" lon="5.75424">
        <ele>662</ele>
        <time>2011-04-04T11:23:06Z</time>
      </trkpt>
      <trkpt lat="46.36591" lon="5.75404">
        <ele>661</ele>
        <time>2011-04-04T11:23:08Z</time>
      </trkpt>
      <trkpt lat="46.3659" lon="5.75385">
        <ele>661</ele>
        <time>2011-04-04T11:23:10Z</time>
      </trkpt>
      <trkpt lat="46.36575" lon="5.75371">
        <ele>661</ele>
        <time>2011-04-04T11:23:13Z</time>
      </trkpt>
      <trkpt lat="46.36547" lon="5.75374">
        <ele>660</ele>
        <time>2011-04-04T11:23:17Z</time>
      </trkpt>
      <trkpt lat="46.36528" lon="5.75391">
        <ele>658</ele>
        <time>2011-04-04T11:23:20Z</time>
      </trkpt>
      <trkpt lat="46.36513" lon="5.75394">
        <ele>656</ele>
        <time>2011-04-04T11:23:22Z</time>
      </trkpt>
      <trkpt lat="46.36487" lon="5.75398">
        <ele>654</ele>
        <time>2011-04-04T11:23:25Z</time>
      </trkpt>
      <trkpt lat="46.36461" lon="5.7542">
        <ele>652</ele>
        <time>2011-04-04T11:23:29Z</time>
      </trkpt>
      <trkpt lat="46.36442" lon="5.75447">
        <ele>651</ele>
        <time>2011-04-04T11:23:33Z</time>
      </trkpt>
      <trkpt lat="46.36433" lon="5.75484">
        <ele>652</ele>
        <time>2011-04-04T11:23:38Z</time>
      </trkpt>
      <trkpt lat="46.36435" lon="5.755">
        <ele>652</ele>
        <time>2011-04-04T11:23:40Z</time>
      </trkpt>
      <trkpt lat="46.36436" lon="5.75525">
        <ele>654</ele>
        <time>2011-04-04T11:23:44Z</time>
      </trkpt>
      <trkpt lat="46.36436" lon="5.75559">
        <ele>656</ele>
        <time>2011-04-04T11:23:50Z</time>
      </trkpt>
      <trkpt lat="46.36435" lon="5.75576">
        <ele>657</ele>
        <time>2011-04-04T11:23:53Z</time>
      </trkpt>
      <trkpt lat="46.36434" lon="5.7559">
        <ele>657</ele>
        <time>2011-04-04T11:23:55Z</time>
      </trkpt>
      <trkpt lat="46.36432" lon="5.75611">
        <ele>656</ele>
        <time>2011-04-04T11:23:58Z</time>
      </trkpt>
      <trkpt lat="46.36432" lon="5.75635">
        <ele>654</ele>
        <time>2011-04-04T11:24:01Z</time>
      </trkpt>
      <trkpt lat="46.36442" lon="5.75662">
        <ele>652</ele>
        <time>2011-04-04T11:24:05Z</time>
      </trkpt>
      <trkpt lat="46.36451" lon="5.75674">
        <ele>651</ele>
        <time>2011-04-04T11:24:07Z</time>
      </trkpt>
      <trkpt lat="46.36462" lon="5.75684">
        <ele>649</ele>
        <time>2011-04-04T11:24:09Z</time>
      </trkpt>
      <trkpt lat="46.36477" lon="5.7571">
        <ele>646</ele>
        <time>2011-04-04T11:24:13Z</time>
      </trkpt>
      <trkpt lat="46.36473" lon="5.75729">
        <ele>643</ele>
        <time>2011-04-04T11:24:16Z</time>
      </trkpt>
      <trkpt lat="46.36462" lon="5.75747">
        <ele>641</ele>
        <time>2011-04-04T11:24:19Z</time>
      </trkpt>
      <trkpt lat="46.36443" lon="5.75765">
        <ele>638</ele>
        <time>2011-04-04T11:24:24Z</time>
      </trkpt>
      <trkpt lat="46.36434" lon="5.75778">
        <ele>635</ele>
        <time>2011-04-04T11:24:27Z</time>
      </trkpt>
      <trkpt lat="46.36421" lon="5.75813">
        <ele>630</ele>
        <time>2011-04-04T11:24:32Z</time>
      </trkpt>
      <trkpt lat="46.36419" lon="5.75841">
        <ele>627</ele>
        <time>2011-04-04T11:24:35Z</time>
      </trkpt>
      <trkpt lat="46.36431" lon="5.75883">
        <ele>622</ele>
        <time>2011-04-04T11:24:39Z</time>
      </trkpt>
      <trkpt lat="46.36439" lon="5.75907">
        <ele>620</ele>
        <time>2011-04-04T11:24:41Z</time>
      </trkpt>
      <trkpt lat="46.36456" lon="5.75967">
        <ele>614</ele>
        <time>2011-04-04T11:24:46Z</time>
      </trkpt>
      <trkpt lat="46.36467" lon="5.76021">
        <ele>611</ele>
        <time>2011-04-04T11:24:50Z</time>
      </trkpt>
      <trkpt lat="46.36483" lon="5.76078">
        <ele>607</ele>
        <time>2011-04-04T11:24:55Z</time>
      </trkpt>
      <trkpt lat="46.36485" lon="5.76098">
        <ele>606</ele>
        <time>2011-04-04T11:24:57Z</time>
      </trkpt>
      <trkpt lat="46.3648" lon="5.76112">
        <ele>606</ele>
        <time>2011-04-04T11:25:00Z</time>
      </trkpt>
      <trkpt lat="46.3647" lon="5.76105">
        <ele>605</ele>
        <time>2011-04-04T11:25:03Z</time>
      </trkpt>
      <trkpt lat="46.36453" lon="5.76089">
        <ele>600</ele>
        <time>2011-04-04T11:25:08Z</time>
      </trkpt>
      <trkpt lat="46.36442" lon="5.76084">
        <ele>596</ele>
        <time>2011-04-04T11:25:12Z</time>
      </trkpt>
      <trkpt lat="46.36433" lon="5.76076">
        <ele>594</ele>
        <time>2011-04-04T11:25:15Z</time>
      </trkpt>
      <trkpt lat="46.36423" lon="5.76052">
        <ele>590</ele>
        <time>2011-04-04T11:25:19Z</time>
      </trkpt>
      <trkpt lat="46.36403" lon="5.76017">
        <ele>582</ele>
        <time>2011-04-04T11:25:26Z</time>
      </trkpt>
      <trkpt lat="46.36397" lon="5.76007">
        <ele>580</ele>
        <time>2011-04-04T11:25:28Z</time>
      </trkpt>
      <trkpt lat="46.36384" lon="5.75988">
        <ele>576</ele>
        <time>2011-04-04T11:25:33Z</time>
      </trkpt>
      <trkpt lat="46.36382" lon="5.75986">
        <ele>575</ele>
        <time>2011-04-04T11:25:34Z</time>
      </trkpt>
      <trkpt lat="46.3637" lon="5.75977">
        <ele>572</ele>
        <time>2011-04-04T11:25:39Z</time>
      </trkpt>
      <trkpt lat="46.36367" lon="5.75978">
        <ele>572</ele>
        <time>2011-04-04T11:25:40Z</time>
      </trkpt>
      <trkpt lat="46.36362" lon="5.75979">
        <ele>570</ele>
        <time>2011-04-04T11:25:42Z</time>
      </trkpt>
      <trkpt lat="46.36339" lon="5.76006">
        <ele>565</ele>
        <time>2011-04-04T11:25:46Z</time>
      </trkpt>
      <trkpt lat="46.3633" lon="5.76024">
        <ele>563</ele>
        <time>2011-04-04T11:25:49Z</time>
      </trkpt>
      <trkpt lat="46.36327" lon="5.76037">
        <ele>562</ele>
        <time>2011-04-04T11:25:51Z</time>
      </trkpt>
      <trkpt lat="46.36328" lon="5.76062">
        <ele>560</ele>
        <time>2011-04-04T11:25:54Z</time>
      </trkpt>
      <trkpt lat="46.3634" lon="5.76081">
        <ele>557</ele>
        <time>2011-04-04T11:25:57Z</time>
      </trkpt>
      <trkpt lat="46.36357" lon="5.76102">
        <ele>553</ele>
        <time>2011-04-04T11:26:02Z</time>
      </trkpt>
      <trkpt lat="46.3636" lon="5.7612">
        <ele>551</ele>
        <time>2011-04-04T11:26:06Z</time>
      </trkpt>
      <trkpt lat="46.36356" lon="5.76124">
        <ele>547</ele>
        <time>2011-04-04T11:26:10Z</time>
      </trkpt>
      <trkpt lat="46.3635" lon="5.7612">
        <ele>544</ele>
        <time>2011-04-04T11:26:14Z</time>
      </trkpt>
      <trkpt lat="46.36352" lon="5.76133">
        <ele>542</ele>
        <time>2011-04-04T11:26:17Z</time>
      </trkpt>
      <trkpt lat="46.36354" lon="5.76137">
        <ele>541</ele>
        <time>2011-04-04T11:26:18Z</time>
      </trkpt>
      <trkpt lat="46.36366" lon="5.76159">
        <ele>536</ele>
        <time>2011-04-04T11:26:22Z</time>
      </trkpt>
      <trkpt lat="46.36372" lon="5.76179">
        <ele>533</ele>
        <time>2011-04-04T11:26:24Z</time>
      </trkpt>
      <trkpt lat="46.36378" lon="5.76223">
        <ele>527</ele>
        <time>2011-04-04T11:26:28Z</time>
      </trkpt>
      <trkpt lat="46.36385" lon="5.76266">
        <ele>523</ele>
        <time>2011-04-04T11:26:31Z</time>
      </trkpt>
      <trkpt lat="46.36387" lon="5.76281">
        <ele>522</ele>
        <time>2011-04-04T11:26:32Z</time>
      </trkpt>
      <trkpt lat="46.36385" lon="5.76339">
        <ele>514</ele>
        <time>2011-04-04T11:26:36Z</time>
      </trkpt>
      <trkpt lat="46.36385" lon="5.76392">
        <ele>511</ele>
        <time>2011-04-04T11:26:41Z</time>
      </trkpt>
      <trkpt lat="46.36387" lon="5.76432">
        <ele>511</ele>
        <time>2011-04-04T11:26:46Z</time>
      </trkpt>
      <trkpt lat="46.36385" lon="5.7645">
        <ele>510</ele>
        <time>2011-04-04T11:26:48Z</time>
      </trkpt>
      <trkpt lat="46.36384" lon="5.765">
        <ele>506</ele>
        <time>2011-04-04T11:26:53Z</time>
      </trkpt>
      <trkpt lat="46.3639" lon="5.7653">
        <ele>504</ele>
        <time>2011-04-04T11:26:56Z</time>
      </trkpt>
      <trkpt lat="46.36406" lon="5.76577">
        <ele>500</ele>
        <time>2011-04-04T11:27:01Z</time>
      </trkpt>
      <trkpt lat="46.36415" lon="5.76595">
        <ele>498</ele>
        <time>2011-04-04T11:27:03Z</time>
      </trkpt>
      <trkpt lat="46.36426" lon="5.7662">
        <ele>496</ele>
        <time>2011-04-04T11:27:06Z</time>
      </trkpt>
      <trkpt lat="46.36448" lon="5.76654">
        <ele>492</ele>
        <time>2011-04-04T11:27:10Z</time>
      </trkpt>
      <trkpt lat="46.36477" lon="5.76681">
        <ele>487</ele>
        <time>2011-04-04T11:27:15Z</time>
      </trkpt>
      <trkpt lat="46.36483" lon="5.76686">
        <ele>486</ele>
        <time>2011-04-04T11:27:16Z</time>
      </trkpt>
      <trkpt lat="46.36493" lon="5.76698">
        <ele>485</ele>
        <time>2011-04-04T11:27:18Z</time>
      </trkpt>
      <trkpt lat="46.36503" lon="5.76734">
        <ele>482</ele>
        <time>2011-04-04T11:27:22Z</time>
      </trkpt>
      <trkpt lat="46.36503" lon="5.76744">
        <ele>481</ele>
        <time>2011-04-04T11:27:23Z</time>
      </trkpt>
      <trkpt lat="46.36502" lon="5.76761">
        <ele>479</ele>
        <time>2011-04-04T11:27:25Z</time>
      </trkpt>
      <trkpt lat="46.36492" lon="5.76797">
        <ele>474</ele>
        <time>2011-04-04T11:27:29Z</time>
      </trkpt>
      <trkpt lat="46.36476" lon="5.76845">
        <ele>468</ele>
        <time>2011-04-04T11:27:34Z</time>
      </trkpt>
      <trkpt lat="46.36476" lon="5.7688">
        <ele>467</ele>
        <time>2011-04-04T11:27:38Z</time>
      </trkpt>
      <trkpt lat="46.36477" lon="5.76915">
        <ele>464</ele>
        <time>2011-04-04T11:27:42Z</time>
      </trkpt>
      <trkpt lat="46.36474" lon="5.76965">
        <ele>461</ele>
        <time>2011-04-04T11:27:46Z</time>
      </trkpt>
      <trkpt lat="46.36471" lon="5.76977">
        <ele>461</ele>
        <time>2011-04-04T11:27:47Z</time>
      </trkpt>
      <trkpt lat="46.36457" lon="5.77001">
        <ele>459</ele>
        <time>2011-04-04T11:27:50Z</time>
      </trkpt>
      <trkpt lat="46.36445" lon="5.77023">
        <ele>457</ele>
        <time>2011-04-04T11:27:53Z</time>
      </trkpt>
      <trkpt lat="46.36431" lon="5.77049">
        <ele>453</ele>
        <time>2011-04-04T11:27:56Z</time>
      </trkpt>
      <trkpt lat="46.36413" lon="5.7707">
        <ele>449</ele>
        <time>2011-04-04T11:28:00Z</time>
      </trkpt>
      <trkpt lat="46.36406" lon="5.77078">
        <ele>448</ele>
        <time>2011-04-04T11:28:02Z</time>
      </trkpt>
      <trkpt lat="46.36392" lon="5.77104">
        <ele>443</ele>
        <time>2011-04-04T11:28:07Z</time>
      </trkpt>
      <trkpt lat="46.36386" lon="5.77115">
        <ele>441</ele>
        <time>2011-04-04T11:28:09Z</time>
      </trkpt>
      <trkpt lat="46.3638" lon="5.77137">
        <ele>439</ele>
        <time>2011-04-04T11:28:12Z</time>
      </trkpt>
      <trkpt lat="46.36378" lon="5.77145">
        <ele>438</ele>
        <time>2011-04-04T11:28:13Z</time>
      </trkpt>
      <trkpt lat="46.36372" lon="5.77162">
        <ele>436</ele>
        <time>2011-04-04T11:28:15Z</time>
      </trkpt>
      <trkpt lat="46.36359" lon="5.77185">
        <ele>432</ele>
        <time>2011-04-04T11:28:18Z</time>
      </trkpt>
      <trkpt lat="46.36338" lon="5.77219">
        <ele>426</ele>
        <time>2011-04-04T11:28:23Z</time>
      </trkpt>
      <trkpt lat="46.36327" lon="5.77241">
        <ele>423</ele>
        <time>2011-04-04T11:28:27Z</time>
      </trkpt>
      <trkpt lat="46.36325" lon="5.77245">
        <ele>422</ele>
        <time>2011-04-04T11:28:28Z</time>
      </trkpt>
      <trkpt lat="46.36313" lon="5.7727">
        <ele>418</ele>
        <time>2011-04-04T11:28:34Z</time>
      </trkpt>
      <trkpt lat="46.36308" lon="5.77282">
        <ele>417</ele>
        <time>2011-04-04T11:28:36Z</time>
      </trkpt>
      <trkpt lat="46.36301" lon="5.77296">
        <ele>416</ele>
        <time>2011-04-04T11:28:38Z</time>
      </trkpt>
      <trkpt lat="46.36277" lon="5.77321">
        <ele>411</ele>
        <time>2011-04-04T11:28:42Z</time>
      </trkpt>
      <trkpt lat="46.36248" lon="5.77343">
        <ele>407</ele>
        <time>2011-04-04T11:28:46Z</time>
      </trkpt>
      <trkpt lat="46.36224" lon="5.77344">
        <ele>404</ele>
        <time>2011-04-04T11:28:50Z</time>
      </trkpt>
      <trkpt lat="46.36177" lon="5.7734">
        <ele>399</ele>
        <time>2011-04-04T11:28:56Z</time>
      </trkpt>
      <trkpt lat="46.36151" lon="5.77341">
        <ele>397</ele>
        <time>2011-04-04T11:28:59Z</time>
      </trkpt>
      <trkpt lat="46.36107" lon="5.77356">
        <ele>395</ele>
        <time>2011-04-04T11:29:05Z</time>
      </trkpt>
      <trkpt lat="46.36072" lon="5.77376">
        <ele>395</ele>
        <time>2011-04-04T11:29:11Z</time>
      </trkpt>
      <trkpt lat="46.36032" lon="5.77411">
        <ele>395</ele>
        <time>2011-04-04T11:29:19Z</time>
      </trkpt>
      <trkpt lat="46.36027" lon="5.77415">
        <ele>395</ele>
        <time>2011-04-04T11:29:20Z</time>
      </trkpt>
      <trkpt lat="46.36004" lon="5.77416">
        <ele>395</ele>
        <time>2011-04-04T11:29:24Z</time>
      </trkpt>
      <trkpt lat="46.35999" lon="5.77413">
        <ele>395</ele>
        <time>2011-04-04T11:29:25Z</time>
      </trkpt>
      <trkpt lat="46.35978" lon="5.774">
        <ele>396</ele>
        <time>2011-04-04T11:29:29Z</time>
      </trkpt>
      <trkpt lat="46.35967" lon="5.77396">
        <ele>396</ele>
        <time>2011-04-04T11:29:31Z</time>
      </trkpt>
      <trkpt lat="46.35946" lon="5.77399">
        <ele>396</ele>
        <time>2011-04-04T11:29:35Z</time>
      </trkpt>
      <trkpt lat="46.35936" lon="5.77405">
        <ele>396</ele>
        <time>2011-04-04T11:29:37Z</time>
      </trkpt>
      <trkpt lat="46.35921" lon="5.77416">
        <ele>396</ele>
        <time>2011-04-04T11:29:40Z</time>
      </trkpt>
      <trkpt lat="46.35906" lon="5.7744">
        <ele>397</ele>
        <time>2011-04-04T11:29:44Z</time>
      </trkpt>
      <trkpt lat="46.3591" lon="5.77465">
        <ele>397</ele>
        <time>2011-04-04T11:29:47Z</time>
      </trkpt>
      <trkpt lat="46.35913" lon="5.77472">
        <ele>397</ele>
        <time>2011-04-04T11:29:48Z</time>
      </trkpt>
      <trkpt lat="46.35923" lon="5.77491">
        <ele>397</ele>
        <time>2011-04-04T11:29:51Z</time>
      </trkpt>
      <trkpt lat="46.3593" lon="5.77527">
        <ele>397</ele>
        <time>2011-04-04T11:29:56Z</time>
      </trkpt>
      <trkpt lat="46.35921" lon="5.77544">
        <ele>397</ele>
        <time>2011-04-04T11:29:59Z</time>
      </trkpt>
      <trkpt lat="46.35904" lon="5.7756">
        <ele>397</ele>
        <time>2011-04-04T11:30:03Z</time>
      </trkpt>
      <trkpt lat="46.35888" lon="5.77558">
        <ele>397</ele>
        <time>2011-04-04T11:30:06Z</time>
      </trkpt>
      <trkpt lat="46.35849" lon="5.77535">
        <ele>397</ele>
        <time>2011-04-04T11:30:14Z</time>
      </trkpt>
      <trkpt lat="46.35825" lon="5.77521">
        <ele>397</ele>
        <time>2011-04-04T11:30:19Z</time>
      </trkpt>
      <trkpt lat="46.35796" lon="5.77524">
        <ele>397</ele>
        <time>2011-04-04T11:30:25Z</time>
      </trkpt>
      <trkpt lat="46.35756" lon="5.7754">
        <ele>397</ele>
        <time>2011-04-04T11:30:34Z</time>
      </trkpt>
      <trkpt lat="46.35752" lon="5.77542">
        <ele>397</ele>
        <time>2011-04-04T11:30:35Z</time>
      </trkpt>
      <trkpt lat="46.35728" lon="5.77558">
        <ele>398</ele>
        <time>2011-04-04T11:30:41Z</time>
      </trkpt>
      <trkpt lat="46.3572" lon="5.77562">
        <ele>397</ele>
        <time>2011-04-04T11:30:43Z</time>
      </trkpt>
      <trkpt lat="46.35702" lon="5.77577">
        <ele>397</ele>
        <time>2011-04-04T11:30:48Z</time>
      </trkpt>
      <trkpt lat="46.35698" lon="5.77597">
        <ele>397</ele>
        <time>2011-04-04T11:30:52Z</time>
      </trkpt>
      <trkpt lat="46.35688" lon="5.77604">
        <ele>397</ele>
        <time>2011-04-04T11:30:55Z</time>
      </trkpt>
      <trkpt lat="46.35674" lon="5.77609">
        <ele>396</ele>
        <time>2011-04-04T11:30:59Z</time>
      </trkpt>
      <trkpt lat="46.35661" lon="5.77632">
        <ele>393</ele>
        <time>2011-04-04T11:31:04Z</time>
      </trkpt>
      <trkpt lat="46.35657" lon="5.7765">
        <ele>393</ele>
        <time>2011-04-04T11:31:10Z</time>
      </trkpt>
      <trkpt lat="46.35657" lon="5.77654">
        <ele>394</ele>
        <time>2011-04-04T11:31:12Z</time>
      </trkpt>
      <trkpt lat="46.35658" lon="5.77673">
        <ele>391</ele>
        <time>2011-04-04T11:31:17Z</time>
      </trkpt>
      <trkpt lat="46.35658" lon="5.77693">
        <ele>388</ele>
        <time>2011-04-04T11:31:20Z</time>
      </trkpt>
      <trkpt lat="46.35656" lon="5.77705">
        <ele>383</ele>
        <time>2011-04-04T11:31:24Z</time>
      </trkpt>
      <trkpt lat="46.35656" lon="5.77707">
        <ele>381</ele>
        <time>2011-04-04T11:31:37Z</time>
      </trkpt>
      <trkpt lat="46.35656" lon="5.77708">
        <ele>381</ele>
        <time>2011-04-04T11:32:17Z</time>
      </trkpt>
      <trkpt lat="46.35662" lon="5.77718">
        <ele>381</ele>
        <time>2011-04-04T11:32:22Z</time>
      </trkpt>
      <trkpt lat="46.35672" lon="5.77754">
        <ele>378</ele>
        <time>2011-04-04T11:32:29Z</time>
      </trkpt>
      <trkpt lat="46.3568" lon="5.77791">
        <ele>378</ele>
        <time>2011-04-04T11:32:36Z</time>
      </trkpt>
      <trkpt lat="46.35687" lon="5.77823">
        <ele>379</ele>
        <time>2011-04-04T11:32:42Z</time>
      </trkpt>
      <trkpt lat="46.35694" lon="5.77838">
        <ele>380</ele>
        <time>2011-04-04T11:32:46Z</time>
      </trkpt>
      <trkpt lat="46.35704" lon="5.77857">
        <ele>381</ele>
        <time>2011-04-04T11:32:51Z</time>
      </trkpt>
      <trkpt lat="46.35725" lon="5.77893">
        <ele>382</ele>
        <time>2011-04-04T11:32:59Z</time>
      </trkpt>
      <trkpt lat="46.35754" lon="5.77936">
        <ele>382</ele>
        <time>2011-04-04T11:33:09Z</time>
      </trkpt>
      <trkpt lat="46.35785" lon="5.77977">
        <ele>382</ele>
        <time>2011-04-04T11:33:19Z</time>
      </trkpt>
      <trkpt lat="46.35798" lon="5.77994">
        <ele>383</ele>
        <time>2011-04-04T11:33:23Z</time>
      </trkpt>
      <trkpt lat="46.35824" lon="5.78035">
        <ele>383</ele>
        <time>2011-04-04T11:33:32Z</time>
      </trkpt>
      <trkpt lat="46.35845" lon="5.78077">
        <ele>384</ele>
        <time>2011-04-04T11:33:40Z</time>
      </trkpt>
      <trkpt lat="46.3585" lon="5.78088">
        <ele>384</ele>
        <time>2011-04-04T11:33:42Z</time>
      </trkpt>
      <trkpt lat="46.35868" lon="5.78134">
        <ele>385</ele>
        <time>2011-04-04T11:33:50Z</time>
      </trkpt>
      <trkpt lat="46.35878" lon="5.78165">
        <ele>386</ele>
        <time>2011-04-04T11:33:56Z</time>
      </trkpt>
      <trkpt lat="46.35886" lon="5.78193">
        <ele>388</ele>
        <time>2011-04-04T11:34:02Z</time>
      </trkpt>
      <trkpt lat="46.35894" lon="5.78223">
        <ele>390</ele>
        <time>2011-04-04T11:34:09Z</time>
      </trkpt>
      <trkpt lat="46.35905" lon="5.78249">
        <ele>393</ele>
        <time>2011-04-04T11:34:15Z</time>
      </trkpt>
      <trkpt lat="46.35915" lon="5.78275">
        <ele>394</ele>
        <time>2011-04-04T11:34:21Z</time>
      </trkpt>
      <trkpt lat="46.35939" lon="5.78315">
        <ele>394</ele>
        <time>2011-04-04T11:34:29Z</time>
      </trkpt>
      <trkpt lat="46.3597" lon="5.78363">
        <ele>395</ele>
        <time>2011-04-04T11:34:38Z</time>
      </trkpt>
      <trkpt lat="46.35981" lon="5.78381">
        <ele>396</ele>
        <time>2011-04-04T11:34:42Z</time>
      </trkpt>
      <trkpt lat="46.36004" lon="5.78415">
        <ele>397</ele>
        <time>2011-04-04T11:34:49Z</time>
      </trkpt>
      <trkpt lat="46.36043" lon="5.78471">
        <ele>397</ele>
        <time>2011-04-04T11:35:00Z</time>
      </trkpt>
      <trkpt lat="46.36065" lon="5.78511">
        <ele>396</ele>
        <time>2011-04-04T11:35:06Z</time>
      </trkpt>
      <trkpt lat="46.36086" lon="5.78546">
        <ele>395</ele>
        <time>2011-04-04T11:35:11Z</time>
      </trkpt>
      <trkpt lat="46.36096" lon="5.78573">
        <ele>393</ele>
        <time>2011-04-04T11:35:15Z</time>
      </trkpt>
      <trkpt lat="46.3609" lon="5.7858">
        <ele>391</ele>
        <time>2011-04-04T11:35:18Z</time>
      </trkpt>
      <trkpt lat="46.36085" lon="5.7858">
        <ele>391</ele>
        <time>2011-04-04T11:35:19Z</time>
      </trkpt>
      <trkpt lat="46.36077" lon="5.78577">
        <ele>390</ele>
        <time>2011-04-04T11:35:21Z</time>
      </trkpt>
      <trkpt lat="46.36069" lon="5.78588">
        <ele>389</ele>
        <time>2011-04-04T11:35:24Z</time>
      </trkpt>
      <trkpt lat="46.36075" lon="5.78614">
        <ele>387</ele>
        <time>2011-04-04T11:35:27Z</time>
      </trkpt>
      <trkpt lat="46.36098" lon="5.78706">
        <ele>381</ele>
        <time>2011-04-04T11:35:35Z</time>
      </trkpt>
      <trkpt lat="46.361" lon="5.78717">
        <ele>380</ele>
        <time>2011-04-04T11:35:36Z</time>
      </trkpt>
      <trkpt lat="46.36119" lon="5.78787">
        <ele>381</ele>
        <time>2011-04-04T11:35:43Z</time>
      </trkpt>
      <trkpt lat="46.36131" lon="5.78842">
        <ele>381</ele>
        <time>2011-04-04T11:35:49Z</time>
      </trkpt>
      <trkpt lat="46.36148" lon="5.78909">
        <ele>382</ele>
        <time>2011-04-04T11:35:57Z</time>
      </trkpt>
      <trkpt lat="46.36164" lon="5.78967">
        <ele>385</ele>
        <time>2011-04-04T11:36:05Z</time>
      </trkpt>
      <trkpt lat="46.36173" lon="5.79007">
        <ele>387</ele>
        <time>2011-04-04T11:36:10Z</time>
      </trkpt>
      <trkpt lat="46.36183" lon="5.79048">
        <ele>387</ele>
        <time>2011-04-04T11:36:15Z</time>
      </trkpt>
      <trkpt lat="46.36193" lon="5.79121">
        <ele>388</ele>
        <time>2011-04-04T11:36:24Z</time>
      </trkpt>
      <trkpt lat="46.36195" lon="5.79168">
        <ele>389</ele>
        <time>2011-04-04T11:36:30Z</time>
      </trkpt>
      <trkpt lat="46.36198" lon="5.79235">
        <ele>389</ele>
        <time>2011-04-04T11:36:38Z</time>
      </trkpt>
      <trkpt lat="46.36199" lon="5.79288">
        <ele>388</ele>
        <time>2011-04-04T11:36:44Z</time>
      </trkpt>
      <trkpt lat="46.362" lon="5.7935">
        <ele>387</ele>
        <time>2011-04-04T11:36:50Z</time>
      </trkpt>
      <trkpt lat="46.36205" lon="5.7941">
        <ele>386</ele>
        <time>2011-04-04T11:36:56Z</time>
      </trkpt>
      <trkpt lat="46.36216" lon="5.79473">
        <ele>386</ele>
        <time>2011-04-04T11:37:03Z</time>
      </trkpt>
      <trkpt lat="46.36226" lon="5.79539">
        <ele>386</ele>
        <time>2011-04-04T11:37:10Z</time>
      </trkpt>
      <trkpt lat="46.36238" lon="5.79602">
        <ele>386</ele>
        <time>2011-04-04T11:37:17Z</time>
      </trkpt>
      <trkpt lat="46.36253" lon="5.79662">
        <ele>387</ele>
        <time>2011-04-04T11:37:24Z</time>
      </trkpt>
      <trkpt lat="46.36269" lon="5.79718">
        <ele>387</ele>
        <time>2011-04-04T11:37:31Z</time>
      </trkpt>
      <trkpt lat="46.36289" lon="5.79772">
        <ele>388</ele>
        <time>2011-04-04T11:37:38Z</time>
      </trkpt>
      <trkpt lat="46.36313" lon="5.79826">
        <ele>387</ele>
        <time>2011-04-04T11:37:45Z</time>
      </trkpt>
      <trkpt lat="46.36344" lon="5.79884">
        <ele>387</ele>
        <time>2011-04-04T11:37:53Z</time>
      </trkpt>
      <trkpt lat="46.36368" lon="5.79936">
        <ele>388</ele>
        <time>2011-04-04T11:38:00Z</time>
      </trkpt>
      <trkpt lat="46.36384" lon="5.79963">
        <ele>388</ele>
        <time>2011-04-04T11:38:04Z</time>
      </trkpt>
      <trkpt lat="46.36417" lon="5.80016">
        <ele>388</ele>
        <time>2011-04-04T11:38:12Z</time>
      </trkpt>
      <trkpt lat="46.36435" lon="5.8004">
        <ele>388</ele>
        <time>2011-04-04T11:38:16Z</time>
      </trkpt>
      <trkpt lat="46.36472" lon="5.80087">
        <ele>388</ele>
        <time>2011-04-04T11:38:24Z</time>
      </trkpt>
      <trkpt lat="46.36499" lon="5.80114">
        <ele>388</ele>
        <time>2011-04-04T11:38:29Z</time>
      </trkpt>
      <trkpt lat="46.36504" lon="5.80118">
        <ele>388</ele>
        <time>2011-04-04T11:38:30Z</time>
      </trkpt>
      <trkpt lat="46.36515" lon="5.80126">
        <ele>387</ele>
        <time>2011-04-04T11:38:32Z</time>
      </trkpt>
      <trkpt lat="46.36555" lon="5.80141">
        <ele>389</ele>
        <time>2011-04-04T11:38:39Z</time>
      </trkpt>
      <trkpt lat="46.36587" lon="5.8016">
        <ele>389</ele>
        <time>2011-04-04T11:38:45Z</time>
      </trkpt>
      <trkpt lat="46.36615" lon="5.80172">
        <ele>390</ele>
        <time>2011-04-04T11:38:50Z</time>
      </trkpt>
      <trkpt lat="46.36637" lon="5.8018">
        <ele>390</ele>
        <time>2011-04-04T11:38:54Z</time>
      </trkpt>
      <trkpt lat="46.36654" lon="5.80185">
        <ele>390</ele>
        <time>2011-04-04T11:38:57Z</time>
      </trkpt>
      <trkpt lat="46.36693" lon="5.80184">
        <ele>391</ele>
        <time>2011-04-04T11:39:04Z</time>
      </trkpt>
      <trkpt lat="46.36699" lon="5.80183">
        <ele>391</ele>
        <time>2011-04-04T11:39:05Z</time>
      </trkpt>
      <trkpt lat="46.36738" lon="5.80168">
        <ele>390</ele>
        <time>2011-04-04T11:39:11Z</time>
      </trkpt>
      <trkpt lat="46.36745" lon="5.80167">
        <ele>389</ele>
        <time>2011-04-04T11:39:12Z</time>
      </trkpt>
      <trkpt lat="46.36785" lon="5.80147">
        <ele>390</ele>
        <time>2011-04-04T11:39:19Z</time>
      </trkpt>
      <trkpt lat="46.3681" lon="5.80136">
        <ele>393</ele>
        <time>2011-04-04T11:39:25Z</time>
      </trkpt>
      <trkpt lat="46.36815" lon="5.80135">
        <ele>393</ele>
        <time>2011-04-04T11:39:26Z</time>
      </trkpt>
      <trkpt lat="46.36838" lon="5.80127">
        <ele>393</ele>
        <time>2011-04-04T11:39:30Z</time>
      </trkpt>
      <trkpt lat="46.3687" lon="5.80103">
        <ele>391</ele>
        <time>2011-04-04T11:39:35Z</time>
      </trkpt>
      <trkpt lat="46.36909" lon="5.80078">
        <ele>387</ele>
        <time>2011-04-04T11:39:40Z</time>
      </trkpt>
      <trkpt lat="46.3694" lon="5.80058">
        <ele>384</ele>
        <time>2011-04-04T11:39:44Z</time>
      </trkpt>
      <trkpt lat="46.36971" lon="5.80034">
        <ele>383</ele>
        <time>2011-04-04T11:39:49Z</time>
      </trkpt>
      <trkpt lat="46.3698" lon="5.80025">
        <ele>383</ele>
        <time>2011-04-04T11:39:51Z</time>
      </trkpt>
      <trkpt lat="46.36994" lon="5.80016">
        <ele>384</ele>
        <time>2011-04-04T11:39:54Z</time>
      </trkpt>
      <trkpt lat="46.37032" lon="5.79999">
        <ele>385</ele>
        <time>2011-04-04T11:40:02Z</time>
      </trkpt>
      <trkpt lat="46.3706" lon="5.79989">
        <ele>386</ele>
        <time>2011-04-04T11:40:08Z</time>
      </trkpt>
      <trkpt lat="46.37087" lon="5.79981">
        <ele>388</ele>
        <time>2011-04-04T11:40:14Z</time>
      </trkpt>
      <trkpt lat="46.37105" lon="5.79974">
        <ele>390</ele>
        <time>2011-04-04T11:40:19Z</time>
      </trkpt>
      <trkpt lat="46.37121" lon="5.79971">
        <ele>391</ele>
        <time>2011-04-04T11:40:24Z</time>
      </trkpt>
      <trkpt lat="46.37145" lon="5.79966">
        <ele>392</ele>
        <time>2011-04-04T11:40:30Z</time>
      </trkpt>
      <trkpt lat="46.37166" lon="5.79956">
        <ele>393</ele>
        <time>2011-04-04T11:40:36Z</time>
      </trkpt>
      <trkpt lat="46.37191" lon="5.79945">
        <ele>397</ele>
        <time>2011-04-04T11:40:45Z</time>
      </trkpt>
      <trkpt lat="46.37218" lon="5.79933">
        <ele>400</ele>
        <time>2011-04-04T11:40:55Z</time>
      </trkpt>
      <trkpt lat="46.37242" lon="5.79919">
        <ele>402</ele>
        <time>2011-04-04T11:41:04Z</time>
      </trkpt>
      <trkpt lat="46.37259" lon="5.79901">
        <ele>404</ele>
        <time>2011-04-04T11:41:12Z</time>
      </trkpt>
      <trkpt lat="46.3728" lon="5.79888">
        <ele>406</ele>
        <time>2011-04-04T11:41:19Z</time>
      </trkpt>
      <trkpt lat="46.37317" lon="5.79871">
        <ele>405</ele>
        <time>2011-04-04T11:41:29Z</time>
      </trkpt>
      <trkpt lat="46.37329" lon="5.79864">
        <ele>405</ele>
        <time>2011-04-04T11:41:32Z</time>
      </trkpt>
      <trkpt lat="46.37337" lon="5.79863">
        <ele>405</ele>
        <time>2011-04-04T11:41:34Z</time>
      </trkpt>
      <trkpt lat="46.37352" lon="5.79851">
        <ele>405</ele>
        <time>2011-04-04T11:41:38Z</time>
      </trkpt>
      <trkpt lat="46.37355" lon="5.79846">
        <ele>405</ele>
        <time>2011-04-04T11:41:39Z</time>
      </trkpt>
      <trkpt lat="46.37378" lon="5.79794">
        <ele>407</ele>
        <time>2011-04-04T11:41:48Z</time>
      </trkpt>
      <trkpt lat="46.37399" lon="5.79744">
        <ele>408</ele>
        <time>2011-04-04T11:41:56Z</time>
      </trkpt>
      <trkpt lat="46.37424" lon="5.79695">
        <ele>409</ele>
        <time>2011-04-04T11:42:05Z</time>
      </trkpt>
      <trkpt lat="46.37432" lon="5.7968">
        <ele>410</ele>
        <time>2011-04-04T11:42:08Z</time>
      </trkpt>
      <trkpt lat="46.3745" lon="5.79663">
        <ele>410</ele>
        <time>2011-04-04T11:42:13Z</time>
      </trkpt>
      <trkpt lat="46.37469" lon="5.79651">
        <ele>410</ele>
        <time>2011-04-04T11:42:17Z</time>
      </trkpt>
      <trkpt lat="46.37483" lon="5.79626">
        <ele>409</ele>
        <time>2011-04-04T11:42:21Z</time>
      </trkpt>
      <trkpt lat="46.3748" lon="5.79587">
        <ele>406</ele>
        <time>2011-04-04T11:42:25Z</time>
      </trkpt>
      <trkpt lat="46.37486" lon="5.79561">
        <ele>404</ele>
        <time>2011-04-04T11:42:28Z</time>
      </trkpt>
      <trkpt lat="46.37491" lon="5.79553">
        <ele>404</ele>
        <time>2011-04-04T11:42:29Z</time>
      </trkpt>
      <trkpt lat="46.37511" lon="5.7952">
        <ele>402</ele>
        <time>2011-04-04T11:42:33Z</time>
      </trkpt>
      <trkpt lat="46.37536" lon="5.79483">
        <ele>399</ele>
        <time>2011-04-04T11:42:38Z</time>
      </trkpt>
      <trkpt lat="46.37546" lon="5.79466">
        <ele>398</ele>
        <time>2011-04-04T11:42:40Z</time>
      </trkpt>
      <trkpt lat="46.37561" lon="5.79449">
        <ele>397</ele>
        <time>2011-04-04T11:42:43Z</time>
      </trkpt>
      <trkpt lat="46.37581" lon="5.79423">
        <ele>398</ele>
        <time>2011-04-04T11:42:48Z</time>
      </trkpt>
      <trkpt lat="46.37598" lon="5.79408">
        <ele>398</ele>
        <time>2011-04-04T11:42:53Z</time>
      </trkpt>
      <trkpt lat="46.37607" lon="5.79402">
        <ele>398</ele>
        <time>2011-04-04T11:42:55Z</time>
      </trkpt>
      <trkpt lat="46.37624" lon="5.79379">
        <ele>397</ele>
        <time>2011-04-04T11:42:59Z</time>
      </trkpt>
      <trkpt lat="46.37633" lon="5.79351">
        <ele>396</ele>
        <time>2011-04-04T11:43:03Z</time>
      </trkpt>
      <trkpt lat="46.37635" lon="5.79344">
        <ele>396</ele>
        <time>2011-04-04T11:43:04Z</time>
      </trkpt>
      <trkpt lat="46.3764" lon="5.79326">
        <ele>396</ele>
        <time>2011-04-04T11:43:07Z</time>
      </trkpt>
      <trkpt lat="46.37651" lon="5.79312">
        <ele>397</ele>
        <time>2011-04-04T11:43:11Z</time>
      </trkpt>
      <trkpt lat="46.37659" lon="5.79312">
        <ele>398</ele>
        <time>2011-04-04T11:43:13Z</time>
      </trkpt>
      <trkpt lat="46.37666" lon="5.79315">
        <ele>399</ele>
        <time>2011-04-04T11:43:16Z</time>
      </trkpt>
      <trkpt lat="46.37674" lon="5.79323">
        <ele>400</ele>
        <time>2011-04-04T11:43:20Z</time>
      </trkpt>
      <trkpt lat="46.37693" lon="5.79329">
        <ele>398</ele>
        <time>2011-04-04T11:43:26Z</time>
      </trkpt>
      <trkpt lat="46.37702" lon="5.79326">
        <ele>397</ele>
        <time>2011-04-04T11:43:28Z</time>
      </trkpt>
      <trkpt lat="46.37731" lon="5.79321">
        <ele>395</ele>
        <time>2011-04-04T11:43:32Z</time>
      </trkpt>
      <trkpt lat="46.37759" lon="5.79315">
        <ele>394</ele>
        <time>2011-04-04T11:43:37Z</time>
      </trkpt>
      <trkpt lat="46.37771" lon="5.79313">
        <ele>394</ele>
        <time>2011-04-04T11:43:39Z</time>
      </trkpt>
      <trkpt lat="46.37791" lon="5.7931">
        <ele>394</ele>
        <time>2011-04-04T11:43:44Z</time>
      </trkpt>
      <trkpt lat="46.37808" lon="5.79302">
        <ele>392</ele>
        <time>2011-04-04T11:43:49Z</time>
      </trkpt>
      <trkpt lat="46.37817" lon="5.79296">
        <ele>392</ele>
        <time>2011-04-04T11:43:51Z</time>
      </trkpt>
      <trkpt lat="46.37827" lon="5.79282">
        <ele>391</ele>
        <time>2011-04-04T11:43:54Z</time>
      </trkpt>
      <trkpt lat="46.37836" lon="5.79277">
        <ele>390</ele>
        <time>2011-04-04T11:43:59Z</time>
      </trkpt>
      <trkpt lat="46.37839" lon="5.79277">
        <ele>390</ele>
        <time>2011-04-04T11:44:00Z</time>
      </trkpt>
      <trkpt lat="46.37845" lon="5.79279">
        <ele>391</ele>
        <time>2011-04-04T11:44:04Z</time>
      </trkpt>
      <trkpt lat="46.37852" lon="5.79271">
        <ele>393</ele>
        <time>2011-04-04T11:44:09Z</time>
      </trkpt>
      <trkpt lat="46.37859" lon="5.79266">
        <ele>394</ele>
        <time>2011-04-04T11:44:14Z</time>
      </trkpt>
      <trkpt lat="46.37864" lon="5.79266">
        <ele>395</ele>
        <time>2011-04-04T11:44:17Z</time>
      </trkpt>
      <trkpt lat="46.37867" lon="5.79266">
        <ele>396</ele>
        <time>2011-04-04T11:44:19Z</time>
      </trkpt>
      <trkpt lat="46.37875" lon="5.79264">
        <ele>398</ele>
        <time>2011-04-04T11:44:25Z</time>
      </trkpt>
      <trkpt lat="46.37887" lon="5.79264">
        <ele>399</ele>
        <time>2011-04-04T11:44:33Z</time>
      </trkpt>
      <trkpt lat="46.3789" lon="5.79263">
        <ele>400</ele>
        <time>2011-04-04T11:44:35Z</time>
      </trkpt>
      <trkpt lat="46.37892" lon="5.79261">
        <ele>400</ele>
        <time>2011-04-04T11:44:37Z</time>
      </trkpt>
      <trkpt lat="46.37898" lon="5.79259">
        <ele>401</ele>
        <time>2011-04-04T11:44:41Z</time>
      </trkpt>
      <trkpt lat="46.3791" lon="5.79256">
        <ele>404</ele>
        <time>2011-04-04T11:44:49Z</time>
      </trkpt>
      <trkpt lat="46.37918" lon="5.79253">
        <ele>407</ele>
        <time>2011-04-04T11:44:56Z</time>
      </trkpt>
      <trkpt lat="46.37928" lon="5.7925">
        <ele>409</ele>
        <time>2011-04-04T11:45:03Z</time>
      </trkpt>
      <trkpt lat="46.3794" lon="5.79245">
        <ele>411</ele>
        <time>2011-04-04T11:45:12Z</time>
      </trkpt>
      <trkpt lat="46.37951" lon="5.79239">
        <ele>413</ele>
        <time>2011-04-04T11:45:19Z</time>
      </trkpt>
      <trkpt lat="46.37954" lon="5.79237">
        <ele>414</ele>
        <time>2011-04-04T11:45:21Z</time>
      </trkpt>
      <trkpt lat="46.3797" lon="5.79241">
        <ele>415</ele>
        <time>2011-04-04T11:45:29Z</time>
      </trkpt>
      <trkpt lat="46.3798" lon="5.79243">
        <ele>415</ele>
        <time>2011-04-04T11:45:34Z</time>
      </trkpt>
      <trkpt lat="46.37995" lon="5.7924">
        <ele>415</ele>
        <time>2011-04-04T11:47:02Z</time>
      </trkpt>
      <trkpt lat="46.3801" lon="5.79245">
        <ele>415</ele>
        <time>2011-04-04T11:47:07Z</time>
      </trkpt>
      <trkpt lat="46.38032" lon="5.79256">
        <ele>415</ele>
        <time>2011-04-04T11:47:12Z</time>
      </trkpt>
      <trkpt lat="46.38065" lon="5.79273">
        <ele>414</ele>
        <time>2011-04-04T11:47:19Z</time>
      </trkpt>
      <trkpt lat="46.38096" lon="5.79293">
        <ele>414</ele>
        <time>2011-04-04T11:47:26Z</time>
      </trkpt>
      <trkpt lat="46.3812" lon="5.79321">
        <ele>415</ele>
        <time>2011-04-04T11:47:33Z</time>
      </trkpt>
      <trkpt lat="46.38123" lon="5.79325">
        <ele>416</ele>
        <time>2011-04-04T11:47:34Z</time>
      </trkpt>
      <trkpt lat="46.38142" lon="5.79349">
        <ele>417</ele>
        <time>2011-04-04T11:47:40Z</time>
      </trkpt>
      <trkpt lat="46.3815" lon="5.79364">
        <ele>417</ele>
        <time>2011-04-04T11:47:43Z</time>
      </trkpt>
      <trkpt lat="46.38165" lon="5.79392">
        <ele>417</ele>
        <time>2011-04-04T11:47:49Z</time>
      </trkpt>
      <trkpt lat="46.38168" lon="5.79401">
        <ele>416</ele>
        <time>2011-04-04T11:47:50Z</time>
      </trkpt>
      <trkpt lat="46.38176" lon="5.79418">
        <ele>415</ele>
        <time>2011-04-04T11:47:52Z</time>
      </trkpt>
      <trkpt lat="46.38186" lon="5.7945">
        <ele>413</ele>
        <time>2011-04-04T11:47:56Z</time>
      </trkpt>
      <trkpt lat="46.38188" lon="5.79458">
        <ele>414</ele>
        <time>2011-04-04T11:47:57Z</time>
      </trkpt>
      <trkpt lat="46.38203" lon="5.79482">
        <ele>415</ele>
        <time>2011-04-04T11:48:02Z</time>
      </trkpt>
      <trkpt lat="46.38207" lon="5.79486">
        <ele>415</ele>
        <time>2011-04-04T11:48:03Z</time>
      </trkpt>
      <trkpt lat="46.38215" lon="5.79494">
        <ele>415</ele>
        <time>2011-04-04T11:48:05Z</time>
      </trkpt>
      <trkpt lat="46.38241" lon="5.79511">
        <ele>415</ele>
        <time>2011-04-04T11:48:10Z</time>
      </trkpt>
      <trkpt lat="46.38259" lon="5.79533">
        <ele>414</ele>
        <time>2011-04-04T11:48:14Z</time>
      </trkpt>
      <trkpt lat="46.38261" lon="5.79541">
        <ele>414</ele>
        <time>2011-04-04T11:48:15Z</time>
      </trkpt>
      <trkpt lat="46.38274" lon="5.79598">
        <ele>414</ele>
        <time>2011-04-04T11:48:23Z</time>
      </trkpt>
      <trkpt lat="46.38288" lon="5.79647">
        <ele>414</ele>
        <time>2011-04-04T11:48:30Z</time>
      </trkpt>
      <trkpt lat="46.38301" lon="5.79689">
        <ele>414</ele>
        <time>2011-04-04T11:48:36Z</time>
      </trkpt>
      <trkpt lat="46.38326" lon="5.79746">
        <ele>414</ele>
        <time>2011-04-04T11:48:45Z</time>
      </trkpt>
      <trkpt lat="46.3834" lon="5.79775">
        <ele>414</ele>
        <time>2011-04-04T11:48:50Z</time>
      </trkpt>
      <trkpt lat="46.38357" lon="5.79786">
        <ele>414</ele>
        <time>2011-04-04T11:48:55Z</time>
      </trkpt>
      <trkpt lat="46.38366" lon="5.79781">
        <ele>414</ele>
        <time>2011-04-04T11:48:57Z</time>
      </trkpt>
      <trkpt lat="46.38386" lon="5.79783">
        <ele>415</ele>
        <time>2011-04-04T11:49:01Z</time>
      </trkpt>
      <trkpt lat="46.38388" lon="5.79797">
        <ele>415</ele>
        <time>2011-04-04T11:49:03Z</time>
      </trkpt>
      <trkpt lat="46.38391" lon="5.79826">
        <ele>416</ele>
        <time>2011-04-04T11:49:07Z</time>
      </trkpt>
      <trkpt lat="46.38404" lon="5.79871">
        <ele>417</ele>
        <time>2011-04-04T11:49:15Z</time>
      </trkpt>
      <trkpt lat="46.38409" lon="5.79889">
        <ele>418</ele>
        <time>2011-04-04T11:49:20Z</time>
      </trkpt>
      <trkpt lat="46.38416" lon="5.79911">
        <ele>419</ele>
        <time>2011-04-04T11:49:26Z</time>
      </trkpt>
      <trkpt lat="46.38426" lon="5.79952">
        <ele>419</ele>
        <time>2011-04-04T11:49:32Z</time>
      </trkpt>
      <trkpt lat="46.38434" lon="5.80003">
        <ele>420</ele>
        <time>2011-04-04T11:49:39Z</time>
      </trkpt>
      <trkpt lat="46.38436" lon="5.80017">
        <ele>420</ele>
        <time>2011-04-04T11:49:41Z</time>
      </trkpt>
      <trkpt lat="46.38438" lon="5.8003">
        <ele>420</ele>
        <time>2011-04-04T11:49:43Z</time>
      </trkpt>
      <trkpt lat="46.38451" lon="5.80044">
        <ele>421</ele>
        <time>2011-04-04T11:49:47Z</time>
      </trkpt>
      <trkpt lat="46.38456" lon="5.80045">
        <ele>421</ele>
        <time>2011-04-04T11:49:48Z</time>
      </trkpt>
      <trkpt lat="46.38487" lon="5.80047">
        <ele>421</ele>
        <time>2011-04-04T11:49:55Z</time>
      </trkpt>
      <trkpt lat="46.38499" lon="5.80057">
        <ele>422</ele>
        <time>2011-04-04T11:49:59Z</time>
      </trkpt>
      <trkpt lat="46.38505" lon="5.8007">
        <ele>423</ele>
        <time>2011-04-04T11:50:02Z</time>
      </trkpt>
      <trkpt lat="46.38515" lon="5.80085">
        <ele>424</ele>
        <time>2011-04-04T11:50:06Z</time>
      </trkpt>
      <trkpt lat="46.38521" lon="5.80101">
        <ele>424</ele>
        <time>2011-04-04T11:50:10Z</time>
      </trkpt>
      <trkpt lat="46.38525" lon="5.80115">
        <ele>425</ele>
        <time>2011-04-04T11:50:14Z</time>
      </trkpt>
      <trkpt lat="46.38533" lon="5.80146">
        <ele>426</ele>
        <time>2011-04-04T11:50:21Z</time>
      </trkpt>
      <trkpt lat="46.38546" lon="5.80173">
        <ele>427</ele>
        <time>2011-04-04T11:50:28Z</time>
      </trkpt>
      <trkpt lat="46.38561" lon="5.80196">
        <ele>428</ele>
        <time>2011-04-04T11:50:35Z</time>
      </trkpt>
      <trkpt lat="46.38577" lon="5.80212">
        <ele>429</ele>
        <time>2011-04-04T11:50:41Z</time>
      </trkpt>
      <trkpt lat="46.38595" lon="5.80226">
        <ele>430</ele>
        <time>2011-04-04T11:50:47Z</time>
      </trkpt>
      <trkpt lat="46.38618" lon="5.80238">
        <ele>431</ele>
        <time>2011-04-04T11:50:54Z</time>
      </trkpt>
      <trkpt lat="46.38633" lon="5.80239">
        <ele>432</ele>
        <time>2011-04-04T11:50:59Z</time>
      </trkpt>
      <trkpt lat="46.3865" lon="5.80235">
        <ele>433</ele>
        <time>2011-04-04T11:51:04Z</time>
      </trkpt>
      <trkpt lat="46.38666" lon="5.80224">
        <ele>433</ele>
        <time>2011-04-04T11:51:09Z</time>
      </trkpt>
      <trkpt lat="46.38678" lon="5.80208">
        <ele>434</ele>
        <time>2011-04-04T11:51:14Z</time>
      </trkpt>
      <trkpt lat="46.38685" lon="5.8019">
        <ele>435</ele>
        <time>2011-04-04T11:51:18Z</time>
      </trkpt>
      <trkpt lat="46.38691" lon="5.8017">
        <ele>436</ele>
        <time>2011-04-04T11:51:23Z</time>
      </trkpt>
      <trkpt lat="46.387" lon="5.80142">
        <ele>436</ele>
        <time>2011-04-04T11:51:30Z</time>
      </trkpt>
      <trkpt lat="46.38701" lon="5.80133">
        <ele>438</ele>
        <time>2011-04-04T11:51:34Z</time>
      </trkpt>
      <trkpt lat="46.38701" lon="5.80128">
        <ele>440</ele>
        <time>2011-04-04T11:51:40Z</time>
      </trkpt>
      <trkpt lat="46.38703" lon="5.80125">
        <ele>441</ele>
        <time>2011-04-04T11:51:46Z</time>
      </trkpt>
      <trkpt lat="46.38703" lon="5.80125">
        <ele>442</ele>
        <time>2011-04-04T11:51:57Z</time>
      </trkpt>
      <trkpt lat="46.38703" lon="5.80124">
        <ele>442</ele>
        <time>2011-04-04T11:52:10Z</time>
      </trkpt>
      <trkpt lat="46.38703" lon="5.80125">
        <ele>443</ele>
        <time>2011-04-04T11:52:15Z</time>
      </trkpt>
      <trkpt lat="46.38707" lon="5.80133">
        <ele>443</ele>
        <time>2011-04-04T11:52:22Z</time>
      </trkpt>
      <trkpt lat="46.38707" lon="5.80134">
        <ele>444</ele>
        <time>2011-04-04T11:52:23Z</time>
      </trkpt>
      <trkpt lat="46.38715" lon="5.80136">
        <ele>446</ele>
        <time>2011-04-04T11:52:29Z</time>
      </trkpt>
      <trkpt lat="46.3872" lon="5.8013">
        <ele>448</ele>
        <time>2011-04-04T11:52:36Z</time>
      </trkpt>
      <trkpt lat="46.3872" lon="5.80129">
        <ele>448</ele>
        <time>2011-04-04T11:52:38Z</time>
      </trkpt>
      <trkpt lat="46.38715" lon="5.80114">
        <ele>449</ele>
        <time>2011-04-04T11:52:47Z</time>
      </trkpt>
      <trkpt lat="46.38714" lon="5.80105">
        <ele>451</ele>
        <time>2011-04-04T11:52:52Z</time>
      </trkpt>
      <trkpt lat="46.38717" lon="5.80103">
        <ele>452</ele>
        <time>2011-04-04T11:52:57Z</time>
      </trkpt>
      <trkpt lat="46.38721" lon="5.80107">
        <ele>453</ele>
        <time>2011-04-04T11:53:01Z</time>
      </trkpt>
      <trkpt lat="46.3873" lon="5.80113">
        <ele>455</ele>
        <time>2011-04-04T11:53:09Z</time>
      </trkpt>
      <trkpt lat="46.38736" lon="5.80112">
        <ele>456</ele>
        <time>2011-04-04T11:53:14Z</time>
      </trkpt>
      <trkpt lat="46.38743" lon="5.80115">
        <ele>458</ele>
        <time>2011-04-04T11:53:21Z</time>
      </trkpt>
      <trkpt lat="46.38755" lon="5.80125">
        <ele>459</ele>
        <time>2011-04-04T11:53:29Z</time>
      </trkpt>
      <trkpt lat="46.38769" lon="5.80143">
        <ele>460</ele>
        <time>2011-04-04T11:53:38Z</time>
      </trkpt>
      <trkpt lat="46.38782" lon="5.80157">
        <ele>461</ele>
        <time>2011-04-04T11:53:46Z</time>
      </trkpt>
      <trkpt lat="46.38786" lon="5.80161">
        <ele>462</ele>
        <time>2011-04-04T11:53:52Z</time>
      </trkpt>
      <trkpt lat="46.38787" lon="5.80161">
        <ele>462</ele>
        <time>2011-04-04T11:53:59Z</time>
      </trkpt>
      <trkpt lat="46.38788" lon="5.80161">
        <ele>462</ele>
        <time>2011-04-04T11:54:03Z</time>
      </trkpt>
      <trkpt lat="46.38801" lon="5.80161">
        <ele>462</ele>
        <time>2011-04-04T11:54:08Z</time>
      </trkpt>
      <trkpt lat="46.38818" lon="5.80159">
        <ele>462</ele>
        <time>2011-04-04T11:54:13Z</time>
      </trkpt>
      <trkpt lat="46.38825" lon="5.80165">
        <ele>463</ele>
        <time>2011-04-04T11:54:17Z</time>
      </trkpt>
      <trkpt lat="46.38842" lon="5.80179">
        <ele>467</ele>
        <time>2011-04-04T11:54:27Z</time>
      </trkpt>
      <trkpt lat="46.38854" lon="5.80183">
        <ele>468</ele>
        <time>2011-04-04T11:54:33Z</time>
      </trkpt>
      <trkpt lat="46.38857" lon="5.80174">
        <ele>468</ele>
        <time>2011-04-04T11:54:37Z</time>
      </trkpt>
      <trkpt lat="46.38841" lon="5.80145">
        <ele>470</ele>
        <time>2011-04-04T11:54:47Z</time>
      </trkpt>
      <trkpt lat="46.38837" lon="5.80138">
        <ele>471</ele>
        <time>2011-04-04T11:54:53Z</time>
      </trkpt>
      <trkpt lat="46.38834" lon="5.80132">
        <ele>471</ele>
        <time>2011-04-04T11:54:58Z</time>
      </trkpt>
      <trkpt lat="46.3883" lon="5.80125">
        <ele>472</ele>
        <time>2011-04-04T11:55:02Z</time>
      </trkpt>
      <trkpt lat="46.38816" lon="5.80107">
        <ele>472</ele>
        <time>2011-04-04T11:55:09Z</time>
      </trkpt>
      <trkpt lat="46.38799" lon="5.80086">
        <ele>474</ele>
        <time>2011-04-04T11:55:17Z</time>
      </trkpt>
      <trkpt lat="46.38786" lon="5.80062">
        <ele>475</ele>
        <time>2011-04-04T11:55:25Z</time>
      </trkpt>
      <trkpt lat="46.38771" lon="5.80038">
        <ele>477</ele>
        <time>2011-04-04T11:55:33Z</time>
      </trkpt>
      <trkpt lat="46.38759" lon="5.8001">
        <ele>478</ele>
        <time>2011-04-04T11:55:41Z</time>
      </trkpt>
      <trkpt lat="46.38744" lon="5.79978">
        <ele>480</ele>
        <time>2011-04-04T11:55:51Z</time>
      </trkpt>
      <trkpt lat="46.38728" lon="5.79952">
        <ele>482</ele>
        <time>2011-04-04T11:56:00Z</time>
      </trkpt>
      <trkpt lat="46.38715" lon="5.79927">
        <ele>483</ele>
        <time>2011-04-04T11:56:08Z</time>
      </trkpt>
      <trkpt lat="46.38702" lon="5.79897">
        <ele>485</ele>
        <time>2011-04-04T11:56:17Z</time>
      </trkpt>
      <trkpt lat="46.38692" lon="5.79872">
        <ele>486</ele>
        <time>2011-04-04T11:56:25Z</time>
      </trkpt>
      <trkpt lat="46.38695" lon="5.79856">
        <ele>486</ele>
        <time>2011-04-04T11:56:30Z</time>
      </trkpt>
      <trkpt lat="46.38699" lon="5.79851">
        <ele>486</ele>
        <time>2011-04-04T11:56:32Z</time>
      </trkpt>
      <trkpt lat="46.3871" lon="5.79848">
        <ele>486</ele>
        <time>2011-04-04T11:56:37Z</time>
      </trkpt>
      <trkpt lat="46.38712" lon="5.79851">
        <ele>486</ele>
        <time>2011-04-04T11:56:38Z</time>
      </trkpt>
      <trkpt lat="46.38738" lon="5.7988">
        <ele>486</ele>
        <time>2011-04-04T11:56:48Z</time>
      </trkpt>
      <trkpt lat="46.38761" lon="5.7991">
        <ele>486</ele>
        <time>2011-04-04T11:56:55Z</time>
      </trkpt>
      <trkpt lat="46.38776" lon="5.79933">
        <ele>486</ele>
        <time>2011-04-04T11:57:00Z</time>
      </trkpt>
      <trkpt lat="46.38795" lon="5.79939">
        <ele>487</ele>
        <time>2011-04-04T11:57:05Z</time>
      </trkpt>
      <trkpt lat="46.38804" lon="5.79927">
        <ele>488</ele>
        <time>2011-04-04T11:57:09Z</time>
      </trkpt>
      <trkpt lat="46.38805" lon="5.79911">
        <ele>490</ele>
        <time>2011-04-04T11:57:13Z</time>
      </trkpt>
      <trkpt lat="46.38805" lon="5.79907">
        <ele>490</ele>
        <time>2011-04-04T11:57:14Z</time>
      </trkpt>
      <trkpt lat="46.38798" lon="5.79876">
        <ele>493</ele>
        <time>2011-04-04T11:57:22Z</time>
      </trkpt>
      <trkpt lat="46.38789" lon="5.79842">
        <ele>495</ele>
        <time>2011-04-04T11:57:30Z</time>
      </trkpt>
      <trkpt lat="46.38789" lon="5.79838">
        <ele>495</ele>
        <time>2011-04-04T11:57:31Z</time>
      </trkpt>
      <trkpt lat="46.38797" lon="5.7983">
        <ele>496</ele>
        <time>2011-04-04T11:57:35Z</time>
      </trkpt>
      <trkpt lat="46.388" lon="5.79831">
        <ele>497</ele>
        <time>2011-04-04T11:57:36Z</time>
      </trkpt>
      <trkpt lat="46.38823" lon="5.79834">
        <ele>497</ele>
        <time>2011-04-04T11:57:43Z</time>
      </trkpt>
      <trkpt lat="46.38838" lon="5.79829">
        <ele>499</ele>
        <time>2011-04-04T11:57:48Z</time>
      </trkpt>
      <trkpt lat="46.38851" lon="5.79833">
        <ele>500</ele>
        <time>2011-04-04T11:57:52Z</time>
      </trkpt>
      <trkpt lat="46.3888" lon="5.79847">
        <ele>499</ele>
        <time>2011-04-04T11:57:59Z</time>
      </trkpt>
      <trkpt lat="46.38915" lon="5.79861">
        <ele>499</ele>
        <time>2011-04-04T11:58:07Z</time>
      </trkpt>
      <trkpt lat="46.38939" lon="5.79871">
        <ele>499</ele>
        <time>2011-04-04T11:58:12Z</time>
      </trkpt>
      <trkpt lat="46.38948" lon="5.79877">
        <ele>499</ele>
        <time>2011-04-04T11:58:14Z</time>
      </trkpt>
      <trkpt lat="46.38969" lon="5.79903">
        <ele>498</ele>
        <time>2011-04-04T11:58:19Z</time>
      </trkpt>
      <trkpt lat="46.38982" lon="5.79926">
        <ele>498</ele>
        <time>2011-04-04T11:58:23Z</time>
      </trkpt>
      <trkpt lat="46.38997" lon="5.79944">
        <ele>499</ele>
        <time>2011-04-04T11:58:27Z</time>
      </trkpt>
      <trkpt lat="46.39006" lon="5.79966">
        <ele>499</ele>
        <time>2011-04-04T11:58:31Z</time>
      </trkpt>
      <trkpt lat="46.39007" lon="5.79972">
        <ele>499</ele>
        <time>2011-04-04T11:58:32Z</time>
      </trkpt>
      <trkpt lat="46.39005" lon="5.80007">
        <ele>500</ele>
        <time>2011-04-04T11:58:38Z</time>
      </trkpt>
      <trkpt lat="46.39005" lon="5.80017">
        <ele>500</ele>
        <time>2011-04-04T11:58:40Z</time>
      </trkpt>
      <trkpt lat="46.39004" lon="5.80043">
        <ele>501</ele>
        <time>2011-04-04T11:58:45Z</time>
      </trkpt>
      <trkpt lat="46.39012" lon="5.80068">
        <ele>503</ele>
        <time>2011-04-04T11:58:51Z</time>
      </trkpt>
      <trkpt lat="46.39016" lon="5.80079">
        <ele>504</ele>
        <time>2011-04-04T11:58:55Z</time>
      </trkpt>
      <trkpt lat="46.39017" lon="5.80083">
        <ele>505</ele>
        <time>2011-04-04T11:58:57Z</time>
      </trkpt>
      <trkpt lat="46.39021" lon="5.80097">
        <ele>506</ele>
        <time>2011-04-04T11:59:05Z</time>
      </trkpt>
      <trkpt lat="46.39025" lon="5.80109">
        <ele>506</ele>
        <time>2011-04-04T11:59:10Z</time>
      </trkpt>
      <trkpt lat="46.39034" lon="5.80118">
        <ele>507</ele>
        <time>2011-04-04T11:59:17Z</time>
      </trkpt>
      <trkpt lat="46.39042" lon="5.80128">
        <ele>509</ele>
        <time>2011-04-04T11:59:25Z</time>
      </trkpt>
      <trkpt lat="46.39046" lon="5.80135">
        <ele>511</ele>
        <time>2011-04-04T11:59:30Z</time>
      </trkpt>
      <trkpt lat="46.39053" lon="5.80147">
        <ele>512</ele>
        <time>2011-04-04T11:59:37Z</time>
      </trkpt>
      <trkpt lat="46.39059" lon="5.80156">
        <ele>514</ele>
        <time>2011-04-04T11:59:43Z</time>
      </trkpt>
      <trkpt lat="46.39061" lon="5.80157">
        <ele>514</ele>
        <time>2011-04-04T11:59:44Z</time>
      </trkpt>
      <trkpt lat="46.39067" lon="5.80164">
        <ele>516</ele>
        <time>2011-04-04T11:59:50Z</time>
      </trkpt>
      <trkpt lat="46.39074" lon="5.8017">
        <ele>519</ele>
        <time>2011-04-04T11:59:57Z</time>
      </trkpt>
      <trkpt lat="46.39079" lon="5.80174">
        <ele>521</ele>
        <time>2011-04-04T12:00:03Z</time>
      </trkpt>
      <trkpt lat="46.39082" lon="5.80178">
        <ele>522</ele>
        <time>2011-04-04T12:00:06Z</time>
      </trkpt>
      <trkpt lat="46.39088" lon="5.80182">
        <ele>524</ele>
        <time>2011-04-04T12:00:13Z</time>
      </trkpt>
      <trkpt lat="46.39095" lon="5.80188">
        <ele>526</ele>
        <time>2011-04-04T12:00:21Z</time>
      </trkpt>
      <trkpt lat="46.39097" lon="5.80191">
        <ele>527</ele>
        <time>2011-04-04T12:00:24Z</time>
      </trkpt>
      <trkpt lat="46.39107" lon="5.80196">
        <ele>528</ele>
        <time>2011-04-04T12:00:33Z</time>
      </trkpt>
      <trkpt lat="46.39116" lon="5.80206">
        <ele>529</ele>
        <time>2011-04-04T12:00:40Z</time>
      </trkpt>
      <trkpt lat="46.39126" lon="5.80212">
        <ele>530</ele>
        <time>2011-04-04T12:00:47Z</time>
      </trkpt>
      <trkpt lat="46.39135" lon="5.80222">
        <ele>532</ele>
        <time>2011-04-04T12:00:53Z</time>
      </trkpt>
      <trkpt lat="46.39153" lon="5.80235">
        <ele>532</ele>
        <time>2011-04-04T12:01:02Z</time>
      </trkpt>
      <trkpt lat="46.39165" lon="5.8025">
        <ele>532</ele>
        <time>2011-04-04T12:01:07Z</time>
      </trkpt>
      <trkpt lat="46.39182" lon="5.80264">
        <ele>532</ele>
        <time>2011-04-04T12:01:12Z</time>
      </trkpt>
      <trkpt lat="46.392" lon="5.80273">
        <ele>532</ele>
        <time>2011-04-04T12:01:17Z</time>
      </trkpt>
      <trkpt lat="46.39213" lon="5.80277">
        <ele>534</ele>
        <time>2011-04-04T12:01:23Z</time>
      </trkpt>
      <trkpt lat="46.39228" lon="5.80279">
        <ele>536</ele>
        <time>2011-04-04T12:01:30Z</time>
      </trkpt>
      <trkpt lat="46.39242" lon="5.80277">
        <ele>538</ele>
        <time>2011-04-04T12:01:37Z</time>
      </trkpt>
      <trkpt lat="46.39259" lon="5.80273">
        <ele>541</ele>
        <time>2011-04-04T12:01:45Z</time>
      </trkpt>
      <trkpt lat="46.39275" lon="5.8027">
        <ele>543</ele>
        <time>2011-04-04T12:01:52Z</time>
      </trkpt>
      <trkpt lat="46.39293" lon="5.80269">
        <ele>545</ele>
        <time>2011-04-04T12:01:59Z</time>
      </trkpt>
      <trkpt lat="46.39316" lon="5.80269">
        <ele>545</ele>
        <time>2011-04-04T12:02:06Z</time>
      </trkpt>
      <trkpt lat="46.3934" lon="5.80268">
        <ele>546</ele>
        <time>2011-04-04T12:02:13Z</time>
      </trkpt>
      <trkpt lat="46.39364" lon="5.80263">
        <ele>547</ele>
        <time>2011-04-04T12:02:20Z</time>
      </trkpt>
      <trkpt lat="46.39384" lon="5.80267">
        <ele>547</ele>
        <time>2011-04-04T12:02:25Z</time>
      </trkpt>
      <trkpt lat="46.39412" lon="5.80265">
        <ele>547</ele>
        <time>2011-04-04T12:02:31Z</time>
      </trkpt>
      <trkpt lat="46.39444" lon="5.80262">
        <ele>545</ele>
        <time>2011-04-04T12:02:37Z</time>
      </trkpt>
      <trkpt lat="46.39466" lon="5.80262">
        <ele>545</ele>
        <time>2011-04-04T12:02:41Z</time>
      </trkpt>
      <trkpt lat="46.39485" lon="5.8027">
        <ele>545</ele>
        <time>2011-04-04T12:02:45Z</time>
      </trkpt>
      <trkpt lat="46.39513" lon="5.80286">
        <ele>545</ele>
        <time>2011-04-04T12:02:51Z</time>
      </trkpt>
      <trkpt lat="46.39531" lon="5.80298">
        <ele>546</ele>
        <time>2011-04-04T12:02:56Z</time>
      </trkpt>
      <trkpt lat="46.39551" lon="5.80318">
        <ele>549</ele>
        <time>2011-04-04T12:03:04Z</time>
      </trkpt>
      <trkpt lat="46.39574" lon="5.80332">
        <ele>552</ele>
        <time>2011-04-04T12:03:13Z</time>
      </trkpt>
      <trkpt lat="46.39598" lon="5.8035">
        <ele>555</ele>
        <time>2011-04-04T12:03:23Z</time>
      </trkpt>
      <trkpt lat="46.39617" lon="5.80359">
        <ele>558</ele>
        <time>2011-04-04T12:03:31Z</time>
      </trkpt>
      <trkpt lat="46.39622" lon="5.80369">
        <ele>558</ele>
        <time>2011-04-04T12:03:34Z</time>
      </trkpt>
      <trkpt lat="46.39638" lon="5.80384">
        <ele>557</ele>
        <time>2011-04-04T12:03:38Z</time>
      </trkpt>
      <trkpt lat="46.39643" lon="5.80385">
        <ele>556</ele>
        <time>2011-04-04T12:03:39Z</time>
      </trkpt>
      <trkpt lat="46.39667" lon="5.80386">
        <ele>554</ele>
        <time>2011-04-04T12:03:44Z</time>
      </trkpt>
      <trkpt lat="46.397" lon="5.80402">
        <ele>550</ele>
        <time>2011-04-04T12:03:48Z</time>
      </trkpt>
      <trkpt lat="46.39713" lon="5.80414">
        <ele>547</ele>
        <time>2011-04-04T12:03:50Z</time>
      </trkpt>
      <trkpt lat="46.39727" lon="5.80441">
        <ele>541</ele>
        <time>2011-04-04T12:03:54Z</time>
      </trkpt>
      <trkpt lat="46.3972" lon="5.80464">
        <ele>537</ele>
        <time>2011-04-04T12:03:57Z</time>
      </trkpt>
      <trkpt lat="46.3972" lon="5.80481">
        <ele>533</ele>
        <time>2011-04-04T12:04:00Z</time>
      </trkpt>
      <trkpt lat="46.39723" lon="5.80492">
        <ele>531</ele>
        <time>2011-04-04T12:04:02Z</time>
      </trkpt>
      <trkpt lat="46.39735" lon="5.80518">
        <ele>524</ele>
        <time>2011-04-04T12:04:07Z</time>
      </trkpt>
      <trkpt lat="46.39738" lon="5.80521">
        <ele>522</ele>
        <time>2011-04-04T12:04:08Z</time>
      </trkpt>
      <trkpt lat="46.39753" lon="5.80531">
        <ele>515</ele>
        <time>2011-04-04T12:04:12Z</time>
      </trkpt>
      <trkpt lat="46.39762" lon="5.80544">
        <ele>509</ele>
        <time>2011-04-04T12:04:16Z</time>
      </trkpt>
      <trkpt lat="46.3977" lon="5.80555">
        <ele>504</ele>
        <time>2011-04-04T12:04:20Z</time>
      </trkpt>
      <trkpt lat="46.39765" lon="5.80567">
        <ele>498</ele>
        <time>2011-04-04T12:04:25Z</time>
      </trkpt>
      <trkpt lat="46.39756" lon="5.80572">
        <ele>496</ele>
        <time>2011-04-04T12:04:28Z</time>
      </trkpt>
      <trkpt lat="46.39748" lon="5.80583">
        <ele>492</ele>
        <time>2011-04-04T12:04:31Z</time>
      </trkpt>
      <trkpt lat="46.3974" lon="5.80591">
        <ele>488</ele>
        <time>2011-04-04T12:04:35Z</time>
      </trkpt>
      <trkpt lat="46.39737" lon="5.80596">
        <ele>484</ele>
        <time>2011-04-04T12:04:39Z</time>
      </trkpt>
      <trkpt lat="46.39744" lon="5.80606">
        <ele>481</ele>
        <time>2011-04-04T12:04:43Z</time>
      </trkpt>
      <trkpt lat="46.39751" lon="5.80615">
        <ele>478</ele>
        <time>2011-04-04T12:04:47Z</time>
      </trkpt>
      <trkpt lat="46.39759" lon="5.8062">
        <ele>475</ele>
        <time>2011-04-04T12:04:51Z</time>
      </trkpt>
      <trkpt lat="46.39764" lon="5.80624">
        <ele>473</ele>
        <time>2011-04-04T12:04:56Z</time>
      </trkpt>
      <trkpt lat="46.39771" lon="5.80629">
        <ele>472</ele>
        <time>2011-04-04T12:05:05Z</time>
      </trkpt>
      <trkpt lat="46.39783" lon="5.80629">
        <ele>472</ele>
        <time>2011-04-04T12:05:11Z</time>
      </trkpt>
      <trkpt lat="46.39788" lon="5.80629">
        <ele>473</ele>
        <time>2011-04-04T12:05:15Z</time>
      </trkpt>
      <trkpt lat="46.39791" lon="5.80628">
        <ele>473</ele>
        <time>2011-04-04T12:05:19Z</time>
      </trkpt>
      <trkpt lat="46.39794" lon="5.80631">
        <ele>474</ele>
        <time>2011-04-04T12:05:25Z</time>
      </trkpt>
      <trkpt lat="46.39798" lon="5.80634">
        <ele>474</ele>
        <time>2011-04-04T12:05:32Z</time>
      </trkpt>
      <trkpt lat="46.39801" lon="5.80635">
        <ele>474</ele>
        <time>2011-04-04T12:05:37Z</time>
      </trkpt>
      <trkpt lat="46.39803" lon="5.80636">
        <ele>475</ele>
        <time>2011-04-04T12:05:45Z</time>
      </trkpt>
      <trkpt lat="46.3981" lon="5.80639">
        <ele>475</ele>
        <time>2011-04-04T12:05:53Z</time>
      </trkpt>
      <trkpt lat="46.39816" lon="5.80644">
        <ele>476</ele>
        <time>2011-04-04T12:05:59Z</time>
      </trkpt>
      <trkpt lat="46.39818" lon="5.80647">
        <ele>476</ele>
        <time>2011-04-04T12:06:05Z</time>
      </trkpt>
      <trkpt lat="46.39819" lon="5.80648">
        <ele>476</ele>
        <time>2011-04-04T12:06:09Z</time>
      </trkpt>
      <trkpt lat="46.39821" lon="5.80648">
        <ele>476</ele>
        <time>2011-04-04T12:06:14Z</time>
      </trkpt>
      <trkpt lat="46.39823" lon="5.8065">
        <ele>476</ele>
        <time>2011-04-04T12:06:18Z</time>
      </trkpt>
      <trkpt lat="46.39831" lon="5.80666">
        <ele>476</ele>
        <time>2011-04-04T12:06:24Z</time>
      </trkpt>
      <trkpt lat="46.39838" lon="5.80681">
        <ele>475</ele>
        <time>2011-04-04T12:06:28Z</time>
      </trkpt>
      <trkpt lat="46.39846" lon="5.80694">
        <ele>475</ele>
        <time>2011-04-04T12:06:32Z</time>
      </trkpt>
      <trkpt lat="46.39862" lon="5.80709">
        <ele>474</ele>
        <time>2011-04-04T12:06:38Z</time>
      </trkpt>
      <trkpt lat="46.39864" lon="5.80711">
        <ele>475</ele>
        <time>2011-04-04T12:06:39Z</time>
      </trkpt>
      <trkpt lat="46.39878" lon="5.80728">
        <ele>476</ele>
        <time>2011-04-04T12:06:45Z</time>
      </trkpt>
      <trkpt lat="46.39888" lon="5.80735">
        <ele>476</ele>
        <time>2011-04-04T12:06:49Z</time>
      </trkpt>
      <trkpt lat="46.39891" lon="5.80737">
        <ele>476</ele>
        <time>2011-04-04T12:06:51Z</time>
      </trkpt>
      <trkpt lat="46.39897" lon="5.80743">
        <ele>476</ele>
        <time>2011-04-04T12:06:57Z</time>
      </trkpt>
      <trkpt lat="46.399" lon="5.80747">
        <ele>476</ele>
        <time>2011-04-04T12:07:02Z</time>
      </trkpt>
      <trkpt lat="46.3991" lon="5.80752">
        <ele>475</ele>
        <time>2011-04-04T12:07:06Z</time>
      </trkpt>
      <trkpt lat="46.39925" lon="5.80759">
        <ele>475</ele>
        <time>2011-04-04T12:07:12Z</time>
      </trkpt>
      <trkpt lat="46.39936" lon="5.80762">
        <ele>475</ele>
        <time>2011-04-04T12:07:17Z</time>
      </trkpt>
      <trkpt lat="46.39943" lon="5.80763">
        <ele>476</ele>
        <time>2011-04-04T12:07:20Z</time>
      </trkpt>
      <trkpt lat="46.39951" lon="5.80764">
        <ele>477</ele>
        <time>2011-04-04T12:07:24Z</time>
      </trkpt>
      <trkpt lat="46.39964" lon="5.80765">
        <ele>477</ele>
        <time>2011-04-04T12:07:30Z</time>
      </trkpt>
      <trkpt lat="46.39968" lon="5.80767">
        <ele>478</ele>
        <time>2011-04-04T12:07:34Z</time>
      </trkpt>
      <trkpt lat="46.3997" lon="5.80769">
        <ele>478</ele>
        <time>2011-04-04T12:07:39Z</time>
      </trkpt>
      <trkpt lat="46.39974" lon="5.80768">
        <ele>478</ele>
        <time>2011-04-04T12:07:43Z</time>
      </trkpt>
      <trkpt lat="46.39976" lon="5.80769">
        <ele>478</ele>
        <time>2011-04-04T12:07:47Z</time>
      </trkpt>
      <trkpt lat="46.39981" lon="5.8077">
        <ele>478</ele>
        <time>2011-04-04T12:07:51Z</time>
      </trkpt>
      <trkpt lat="46.39989" lon="5.80772">
        <ele>478</ele>
        <time>2011-04-04T12:07:56Z</time>
      </trkpt>
      <trkpt lat="46.39992" lon="5.80771">
        <ele>478</ele>
        <time>2011-04-04T12:08:01Z</time>
      </trkpt>
      <trkpt lat="46.39994" lon="5.80768">
        <ele>479</ele>
        <time>2011-04-04T12:08:06Z</time>
      </trkpt>
      <trkpt lat="46.39998" lon="5.80767">
        <ele>481</ele>
        <time>2011-04-04T12:08:13Z</time>
      </trkpt>
      <trkpt lat="46.40001" lon="5.80767">
        <ele>481</ele>
        <time>2011-04-04T12:08:17Z</time>
      </trkpt>
      <trkpt lat="46.40008" lon="5.80768">
        <ele>481</ele>
        <time>2011-04-04T12:08:22Z</time>
      </trkpt>
      <trkpt lat="46.4002" lon="5.80768">
        <ele>482</ele>
        <time>2011-04-04T12:08:29Z</time>
      </trkpt>
      <trkpt lat="46.40027" lon="5.80771">
        <ele>482</ele>
        <time>2011-04-04T12:08:32Z</time>
      </trkpt>
      <trkpt lat="46.40038" lon="5.80775">
        <ele>482</ele>
        <time>2011-04-04T12:08:38Z</time>
      </trkpt>
      <trkpt lat="46.40049" lon="5.80782">
        <ele>483</ele>
        <time>2011-04-04T12:08:44Z</time>
      </trkpt>
      <trkpt lat="46.40061" lon="5.80787">
        <ele>483</ele>
        <time>2011-04-04T12:08:49Z</time>
      </trkpt>
      <trkpt lat="46.40072" lon="5.80792">
        <ele>483</ele>
        <time>2011-04-04T12:08:54Z</time>
      </trkpt>
      <trkpt lat="46.40087" lon="5.80796">
        <ele>484</ele>
        <time>2011-04-04T12:09:00Z</time>
      </trkpt>
      <trkpt lat="46.40099" lon="5.80802">
        <ele>484</ele>
        <time>2011-04-04T12:09:05Z</time>
      </trkpt>
      <trkpt lat="46.40116" lon="5.80807">
        <ele>484</ele>
        <time>2011-04-04T12:09:11Z</time>
      </trkpt>
      <trkpt lat="46.4013" lon="5.80813">
        <ele>484</ele>
        <time>2011-04-04T12:09:16Z</time>
      </trkpt>
      <trkpt lat="46.40142" lon="5.80817">
        <ele>485</ele>
        <time>2011-04-04T12:09:21Z</time>
      </trkpt>
      <trkpt lat="46.40157" lon="5.80824">
        <ele>487</ele>
        <time>2011-04-04T12:09:27Z</time>
      </trkpt>
      <trkpt lat="46.40171" lon="5.80834">
        <ele>487</ele>
        <time>2011-04-04T12:09:31Z</time>
      </trkpt>
      <trkpt lat="46.40182" lon="5.80849">
        <ele>487</ele>
        <time>2011-04-04T12:09:36Z</time>
      </trkpt>
      <trkpt lat="46.40193" lon="5.8086">
        <ele>487</ele>
        <time>2011-04-04T12:09:40Z</time>
      </trkpt>
      <trkpt lat="46.40209" lon="5.8087">
        <ele>487</ele>
        <time>2011-04-04T12:09:45Z</time>
      </trkpt>
      <trkpt lat="46.40226" lon="5.80877">
        <ele>488</ele>
        <time>2011-04-04T12:09:51Z</time>
      </trkpt>
      <trkpt lat="46.40239" lon="5.80883">
        <ele>490</ele>
        <time>2011-04-04T12:09:57Z</time>
      </trkpt>
      <trkpt lat="46.40251" lon="5.80889">
        <ele>492</ele>
        <time>2011-04-04T12:10:02Z</time>
      </trkpt>
      <trkpt lat="46.40264" lon="5.80896">
        <ele>494</ele>
        <time>2011-04-04T12:10:08Z</time>
      </trkpt>
      <trkpt lat="46.40278" lon="5.80905">
        <ele>495</ele>
        <time>2011-04-04T12:10:14Z</time>
      </trkpt>
      <trkpt lat="46.40284" lon="5.80913">
        <ele>495</ele>
        <time>2011-04-04T12:10:17Z</time>
      </trkpt>
      <trkpt lat="46.40291" lon="5.80919">
        <ele>495</ele>
        <time>2011-04-04T12:10:21Z</time>
      </trkpt>
      <trkpt lat="46.40309" lon="5.80931">
        <ele>496</ele>
        <time>2011-04-04T12:10:28Z</time>
      </trkpt>
      <trkpt lat="46.40324" lon="5.80942">
        <ele>497</ele>
        <time>2011-04-04T12:10:34Z</time>
      </trkpt>
      <trkpt lat="46.40337" lon="5.80947">
        <ele>498</ele>
        <time>2011-04-04T12:10:39Z</time>
      </trkpt>
      <trkpt lat="46.40351" lon="5.80952">
        <ele>499</ele>
        <time>2011-04-04T12:10:44Z</time>
      </trkpt>
      <trkpt lat="46.40371" lon="5.80956">
        <ele>500</ele>
        <time>2011-04-04T12:10:51Z</time>
      </trkpt>
      <trkpt lat="46.40375" lon="5.80957">
        <ele>501</ele>
        <time>2011-04-04T12:10:53Z</time>
      </trkpt>
      <trkpt lat="46.40389" lon="5.80962">
        <ele>502</ele>
        <time>2011-04-04T12:10:59Z</time>
      </trkpt>
      <trkpt lat="46.40405" lon="5.8097">
        <ele>503</ele>
        <time>2011-04-04T12:11:06Z</time>
      </trkpt>
      <trkpt lat="46.4043" lon="5.80982">
        <ele>505</ele>
        <time>2011-04-04T12:11:17Z</time>
      </trkpt>
      <trkpt lat="46.4045" lon="5.80993">
        <ele>506</ele>
        <time>2011-04-04T12:11:26Z</time>
      </trkpt>
      <trkpt lat="46.40476" lon="5.81007">
        <ele>509</ele>
        <time>2011-04-04T12:11:37Z</time>
      </trkpt>
      <trkpt lat="46.40493" lon="5.81019">
        <ele>510</ele>
        <time>2011-04-04T12:11:45Z</time>
      </trkpt>
      <trkpt lat="46.40509" lon="5.81031">
        <ele>512</ele>
        <time>2011-04-04T12:11:54Z</time>
      </trkpt>
      <trkpt lat="46.40523" lon="5.81041">
        <ele>513</ele>
        <time>2011-04-04T12:12:01Z</time>
      </trkpt>
      <trkpt lat="46.40535" lon="5.81056">
        <ele>514</ele>
        <time>2011-04-04T12:12:09Z</time>
      </trkpt>
      <trkpt lat="46.40545" lon="5.81063">
        <ele>515</ele>
        <time>2011-04-04T12:12:15Z</time>
      </trkpt>
      <trkpt lat="46.40557" lon="5.8107">
        <ele>515</ele>
        <time>2011-04-04T12:12:20Z</time>
      </trkpt>
      <trkpt lat="46.4057" lon="5.8108">
        <ele>516</ele>
        <time>2011-04-04T12:12:27Z</time>
      </trkpt>
      <trkpt lat="46.40577" lon="5.81083">
        <ele>516</ele>
        <time>2011-04-04T12:12:34Z</time>
      </trkpt>
      <trkpt lat="46.40585" lon="5.81079">
        <ele>517</ele>
        <time>2011-04-04T12:12:41Z</time>
      </trkpt>
      <trkpt lat="46.40586" lon="5.81078">
        <ele>517</ele>
        <time>2011-04-04T12:12:42Z</time>
      </trkpt>
      <trkpt lat="46.40594" lon="5.81074">
        <ele>519</ele>
        <time>2011-04-04T12:12:49Z</time>
      </trkpt>
      <trkpt lat="46.4061" lon="5.8107">
        <ele>522</ele>
        <time>2011-04-04T12:13:01Z</time>
      </trkpt>
      <trkpt lat="46.40617" lon="5.81067">
        <ele>524</ele>
        <time>2011-04-04T12:13:08Z</time>
      </trkpt>
      <trkpt lat="46.40621" lon="5.81062">
        <ele>525</ele>
        <time>2011-04-04T12:13:13Z</time>
      </trkpt>
      <trkpt lat="46.40618" lon="5.81055">
        <ele>526</ele>
        <time>2011-04-04T12:13:19Z</time>
      </trkpt>
      <trkpt lat="46.40611" lon="5.81052">
        <ele>529</ele>
        <time>2011-04-04T12:13:27Z</time>
      </trkpt>
      <trkpt lat="46.40606" lon="5.81043">
        <ele>531</ele>
        <time>2011-04-04T12:13:34Z</time>
      </trkpt>
      <trkpt lat="46.40606" lon="5.81042">
        <ele>532</ele>
        <time>2011-04-04T12:13:35Z</time>
      </trkpt>
      <trkpt lat="46.40608" lon="5.81037">
        <ele>533</ele>
        <time>2011-04-04T12:13:39Z</time>
      </trkpt>
      <trkpt lat="46.40615" lon="5.81029">
        <ele>535</ele>
        <time>2011-04-04T12:13:48Z</time>
      </trkpt>
      <trkpt lat="46.40621" lon="5.81021">
        <ele>537</ele>
        <time>2011-04-04T12:13:56Z</time>
      </trkpt>
      <trkpt lat="46.4063" lon="5.81013">
        <ele>539</ele>
        <time>2011-04-04T12:14:05Z</time>
      </trkpt>
      <trkpt lat="46.40634" lon="5.81007">
        <ele>540</ele>
        <time>2011-04-04T12:14:11Z</time>
      </trkpt>
      <trkpt lat="46.40636" lon="5.81003">
        <ele>540</ele>
        <time>2011-04-04T12:14:13Z</time>
      </trkpt>
      <trkpt lat="46.40641" lon="5.80994">
        <ele>541</ele>
        <time>2011-04-04T12:14:19Z</time>
      </trkpt>
      <trkpt lat="46.40651" lon="5.80982">
        <ele>542</ele>
        <time>2011-04-04T12:14:26Z</time>
      </trkpt>
      <trkpt lat="46.40653" lon="5.80981">
        <ele>542</ele>
        <time>2011-04-04T12:14:27Z</time>
      </trkpt>
      <trkpt lat="46.40658" lon="5.80972">
        <ele>543</ele>
        <time>2011-04-04T12:14:32Z</time>
      </trkpt>
      <trkpt lat="46.40666" lon="5.80956">
        <ele>544</ele>
        <time>2011-04-04T12:14:39Z</time>
      </trkpt>
      <trkpt lat="46.40675" lon="5.80941">
        <ele>544</ele>
        <time>2011-04-04T12:14:45Z</time>
      </trkpt>
      <trkpt lat="46.40679" lon="5.80931">
        <ele>545</ele>
        <time>2011-04-04T12:14:50Z</time>
      </trkpt>
      <trkpt lat="46.40682" lon="5.80919">
        <ele>547</ele>
        <time>2011-04-04T12:14:55Z</time>
      </trkpt>
      <trkpt lat="46.40689" lon="5.809">
        <ele>548</ele>
        <time>2011-04-04T12:15:01Z</time>
      </trkpt>
      <trkpt lat="46.40696" lon="5.80878">
        <ele>548</ele>
        <time>2011-04-04T12:15:07Z</time>
      </trkpt>
      <trkpt lat="46.40703" lon="5.8086">
        <ele>549</ele>
        <time>2011-04-04T12:15:13Z</time>
      </trkpt>
      <trkpt lat="46.40709" lon="5.80842">
        <ele>550</ele>
        <time>2011-04-04T12:15:19Z</time>
      </trkpt>
      <trkpt lat="46.40715" lon="5.80823">
        <ele>551</ele>
        <time>2011-04-04T12:15:24Z</time>
      </trkpt>
      <trkpt lat="46.40719" lon="5.80804">
        <ele>551</ele>
        <time>2011-04-04T12:15:30Z</time>
      </trkpt>
      <trkpt lat="46.40723" lon="5.80787">
        <ele>552</ele>
        <time>2011-04-04T12:15:35Z</time>
      </trkpt>
      <trkpt lat="46.4073" lon="5.8077">
        <ele>553</ele>
        <time>2011-04-04T12:15:40Z</time>
      </trkpt>
      <trkpt lat="46.40734" lon="5.80756">
        <ele>553</ele>
        <time>2011-04-04T12:15:44Z</time>
      </trkpt>
      <trkpt lat="46.40745" lon="5.8074">
        <ele>552</ele>
        <time>2011-04-04T12:15:48Z</time>
      </trkpt>
      <trkpt lat="46.40764" lon="5.80708">
        <ele>550</ele>
        <time>2011-04-04T12:15:53Z</time>
      </trkpt>
      <trkpt lat="46.40775" lon="5.80687">
        <ele>549</ele>
        <time>2011-04-04T12:15:57Z</time>
      </trkpt>
      <trkpt lat="46.40778" lon="5.80677">
        <ele>551</ele>
        <time>2011-04-04T12:16:01Z</time>
      </trkpt>
      <trkpt lat="46.40782" lon="5.80666">
        <ele>554</ele>
        <time>2011-04-04T12:16:06Z</time>
      </trkpt>
      <trkpt lat="46.40785" lon="5.80648">
        <ele>554</ele>
        <time>2011-04-04T12:16:12Z</time>
      </trkpt>
      <trkpt lat="46.40786" lon="5.80632">
        <ele>554</ele>
        <time>2011-04-04T12:16:16Z</time>
      </trkpt>
      <trkpt lat="46.40789" lon="5.80624">
        <ele>554</ele>
        <time>2011-04-04T12:16:19Z</time>
      </trkpt>
      <trkpt lat="46.40799" lon="5.80611">
        <ele>551</ele>
        <time>2011-04-04T12:16:25Z</time>
      </trkpt>
      <trkpt lat="46.40805" lon="5.80598">
        <ele>549</ele>
        <time>2011-04-04T12:16:30Z</time>
      </trkpt>
      <trkpt lat="46.40807" lon="5.80584">
        <ele>548</ele>
        <time>2011-04-04T12:16:35Z</time>
      </trkpt>
      <trkpt lat="46.40804" lon="5.80568">
        <ele>547</ele>
        <time>2011-04-04T12:16:41Z</time>
      </trkpt>
      <trkpt lat="46.40811" lon="5.80562">
        <ele>544</ele>
        <time>2011-04-04T12:16:46Z</time>
      </trkpt>
      <trkpt lat="46.40815" lon="5.80561">
        <ele>541</ele>
        <time>2011-04-04T12:16:49Z</time>
      </trkpt>
      <trkpt lat="46.4082" lon="5.80561">
        <ele>539</ele>
        <time>2011-04-04T12:16:52Z</time>
      </trkpt>
      <trkpt lat="46.40826" lon="5.80551">
        <ele>537</ele>
        <time>2011-04-04T12:16:58Z</time>
      </trkpt>
      <trkpt lat="46.40827" lon="5.8055">
        <ele>537</ele>
        <time>2011-04-04T12:16:59Z</time>
      </trkpt>
      <trkpt lat="46.40832" lon="5.80546">
        <ele>537</ele>
        <time>2011-04-04T12:17:05Z</time>
      </trkpt>
      <trkpt lat="46.4084" lon="5.8054">
        <ele>537</ele>
        <time>2011-04-04T12:17:12Z</time>
      </trkpt>
      <trkpt lat="46.40844" lon="5.80538">
        <ele>538</ele>
        <time>2011-04-04T12:17:18Z</time>
      </trkpt>
      <trkpt lat="46.40847" lon="5.80535">
        <ele>539</ele>
        <time>2011-04-04T12:17:49Z</time>
      </trkpt>
      <trkpt lat="46.40851" lon="5.80533">
        <ele>540</ele>
        <time>2011-04-04T12:17:56Z</time>
      </trkpt>
      <trkpt lat="46.40853" lon="5.8053">
        <ele>542</ele>
        <time>2011-04-04T12:18:01Z</time>
      </trkpt>
      <trkpt lat="46.40856" lon="5.80519">
        <ele>543</ele>
        <time>2011-04-04T12:18:07Z</time>
      </trkpt>
      <trkpt lat="46.40859" lon="5.80508">
        <ele>547</ele>
        <time>2011-04-04T12:18:26Z</time>
      </trkpt>
      <trkpt lat="46.40864" lon="5.80503">
        <ele>551</ele>
        <time>2011-04-04T12:18:45Z</time>
      </trkpt>
      <trkpt lat="46.40865" lon="5.80506">
        <ele>552</ele>
        <time>2011-04-04T12:18:53Z</time>
      </trkpt>
      <trkpt lat="46.40865" lon="5.80507">
        <ele>552</ele>
        <time>2011-04-04T12:19:01Z</time>
      </trkpt>
      <trkpt lat="46.40865" lon="5.80508">
        <ele>552</ele>
        <time>2011-04-04T12:19:03Z</time>
      </trkpt>
      <trkpt lat="46.4087" lon="5.80507">
        <ele>552</ele>
        <time>2011-04-04T12:19:07Z</time>
      </trkpt>
      <trkpt lat="46.40879" lon="5.80505">
        <ele>554</ele>
        <time>2011-04-04T12:19:14Z</time>
      </trkpt>
      <trkpt lat="46.40889" lon="5.80508">
        <ele>554</ele>
        <time>2011-04-04T12:19:20Z</time>
      </trkpt>
      <trkpt lat="46.40897" lon="5.80505">
        <ele>556</ele>
        <time>2011-04-04T12:19:26Z</time>
      </trkpt>
      <trkpt lat="46.40903" lon="5.80502">
        <ele>558</ele>
        <time>2011-04-04T12:19:31Z</time>
      </trkpt>
      <trkpt lat="46.40908" lon="5.80496">
        <ele>560</ele>
        <time>2011-04-04T12:19:37Z</time>
      </trkpt>
      <trkpt lat="46.40916" lon="5.80496">
        <ele>561</ele>
        <time>2011-04-04T12:19:43Z</time>
      </trkpt>
      <trkpt lat="46.40922" lon="5.80489">
        <ele>562</ele>
        <time>2011-04-04T12:19:48Z</time>
      </trkpt>
      <trkpt lat="46.40933" lon="5.80482">
        <ele>563</ele>
        <time>2011-04-04T12:19:55Z</time>
      </trkpt>
      <trkpt lat="46.40946" lon="5.80481">
        <ele>564</ele>
        <time>2011-04-04T12:20:03Z</time>
      </trkpt>
      <trkpt lat="46.40961" lon="5.80485">
        <ele>566</ele>
        <time>2011-04-04T12:20:12Z</time>
      </trkpt>
      <trkpt lat="46.40977" lon="5.80483">
        <ele>567</ele>
        <time>2011-04-04T12:20:19Z</time>
      </trkpt>
      <trkpt lat="46.40999" lon="5.80479">
        <ele>567</ele>
        <time>2011-04-04T12:20:26Z</time>
      </trkpt>
      <trkpt lat="46.41026" lon="5.80476">
        <ele>568</ele>
        <time>2011-04-04T12:20:35Z</time>
      </trkpt>
      <trkpt lat="46.41038" lon="5.80473">
        <ele>569</ele>
        <time>2011-04-04T12:20:40Z</time>
      </trkpt>
      <trkpt lat="46.4105" lon="5.80472">
        <ele>570</ele>
        <time>2011-04-04T12:20:45Z</time>
      </trkpt>
      <trkpt lat="46.41062" lon="5.80485">
        <ele>568</ele>
        <time>2011-04-04T12:20:50Z</time>
      </trkpt>
      <trkpt lat="46.41076" lon="5.80501">
        <ele>564</ele>
        <time>2011-04-04T12:20:55Z</time>
      </trkpt>
      <trkpt lat="46.41077" lon="5.80504">
        <ele>564</ele>
        <time>2011-04-04T12:20:56Z</time>
      </trkpt>
      <trkpt lat="46.4108" lon="5.80507">
        <ele>561</ele>
        <time>2011-04-04T12:21:01Z</time>
      </trkpt>
      <trkpt lat="46.41082" lon="5.80504">
        <ele>560</ele>
        <time>2011-04-04T12:21:04Z</time>
      </trkpt>
      <trkpt lat="46.41082" lon="5.80488">
        <ele>557</ele>
        <time>2011-04-04T12:21:09Z</time>
      </trkpt>
      <trkpt lat="46.41081" lon="5.80484">
        <ele>557</ele>
        <time>2011-04-04T12:21:10Z</time>
      </trkpt>
      <trkpt lat="46.41081" lon="5.80474">
        <ele>556</ele>
        <time>2011-04-04T12:21:16Z</time>
      </trkpt>
      <trkpt lat="46.41083" lon="5.80471">
        <ele>556</ele>
        <time>2011-04-04T12:21:23Z</time>
      </trkpt>
      <trkpt lat="46.41083" lon="5.80465">
        <ele>558</ele>
        <time>2011-04-04T12:21:30Z</time>
      </trkpt>
      <trkpt lat="46.41086" lon="5.8046">
        <ele>558</ele>
        <time>2011-04-04T12:21:35Z</time>
      </trkpt>
      <trkpt lat="46.41097" lon="5.80448">
        <ele>559</ele>
        <time>2011-04-04T12:21:42Z</time>
      </trkpt>
      <trkpt lat="46.41103" lon="5.80436">
        <ele>561</ele>
        <time>2011-04-04T12:21:48Z</time>
      </trkpt>
      <trkpt lat="46.41107" lon="5.80421">
        <ele>563</ele>
        <time>2011-04-04T12:21:54Z</time>
      </trkpt>
      <trkpt lat="46.41108" lon="5.80398">
        <ele>564</ele>
        <time>2011-04-04T12:22:01Z</time>
      </trkpt>
      <trkpt lat="46.4111" lon="5.80383">
        <ele>565</ele>
        <time>2011-04-04T12:22:06Z</time>
      </trkpt>
      <trkpt lat="46.41119" lon="5.80376">
        <ele>566</ele>
        <time>2011-04-04T12:22:12Z</time>
      </trkpt>
      <trkpt lat="46.41129" lon="5.8037">
        <ele>568</ele>
        <time>2011-04-04T12:22:19Z</time>
      </trkpt>
      <trkpt lat="46.41137" lon="5.80362">
        <ele>570</ele>
        <time>2011-04-04T12:22:25Z</time>
      </trkpt>
      <trkpt lat="46.41144" lon="5.80347">
        <ele>571</ele>
        <time>2011-04-04T12:22:31Z</time>
      </trkpt>
      <trkpt lat="46.41146" lon="5.80326">
        <ele>572</ele>
        <time>2011-04-04T12:22:38Z</time>
      </trkpt>
      <trkpt lat="46.4115" lon="5.80308">
        <ele>573</ele>
        <time>2011-04-04T12:22:44Z</time>
      </trkpt>
      <trkpt lat="46.41159" lon="5.80293">
        <ele>574</ele>
        <time>2011-04-04T12:22:50Z</time>
      </trkpt>
      <trkpt lat="46.41171" lon="5.80278">
        <ele>576</ele>
        <time>2011-04-04T12:22:58Z</time>
      </trkpt>
      <trkpt lat="46.41185" lon="5.80266">
        <ele>578</ele>
        <time>2011-04-04T12:23:05Z</time>
      </trkpt>
      <trkpt lat="46.41198" lon="5.80259">
        <ele>580</ele>
        <time>2011-04-04T12:23:12Z</time>
      </trkpt>
      <trkpt lat="46.41214" lon="5.8025">
        <ele>582</ele>
        <time>2011-04-04T12:23:20Z</time>
      </trkpt>
      <trkpt lat="46.41225" lon="5.80233">
        <ele>583</ele>
        <time>2011-04-04T12:23:27Z</time>
      </trkpt>
      <trkpt lat="46.41231" lon="5.8022">
        <ele>584</ele>
        <time>2011-04-04T12:23:33Z</time>
      </trkpt>
      <trkpt lat="46.41232" lon="5.80217">
        <ele>584</ele>
        <time>2011-04-04T12:23:34Z</time>
      </trkpt>
      <trkpt lat="46.41238" lon="5.80203">
        <ele>586</ele>
        <time>2011-04-04T12:23:40Z</time>
      </trkpt>
      <trkpt lat="46.41241" lon="5.80181">
        <ele>587</ele>
        <time>2011-04-04T12:23:47Z</time>
      </trkpt>
      <trkpt lat="46.41244" lon="5.80168">
        <ele>588</ele>
        <time>2011-04-04T12:23:52Z</time>
      </trkpt>
      <trkpt lat="46.41245" lon="5.80165">
        <ele>588</ele>
        <time>2011-04-04T12:23:53Z</time>
      </trkpt>
      <trkpt lat="46.41251" lon="5.80155">
        <ele>589</ele>
        <time>2011-04-04T12:23:58Z</time>
      </trkpt>
      <trkpt lat="46.4126" lon="5.80137">
        <ele>591</ele>
        <time>2011-04-04T12:24:06Z</time>
      </trkpt>
      <trkpt lat="46.41271" lon="5.80122">
        <ele>593</ele>
        <time>2011-04-04T12:24:14Z</time>
      </trkpt>
      <trkpt lat="46.41273" lon="5.8012">
        <ele>594</ele>
        <time>2011-04-04T12:24:19Z</time>
      </trkpt>
      <trkpt lat="46.41273" lon="5.80119">
        <ele>594</ele>
        <time>2011-04-04T12:24:26Z</time>
      </trkpt>
      <trkpt lat="46.41274" lon="5.80117">
        <ele>594</ele>
        <time>2011-04-04T12:24:33Z</time>
      </trkpt>
      <trkpt lat="46.41277" lon="5.80113">
        <ele>594</ele>
        <time>2011-04-04T12:24:41Z</time>
      </trkpt>
      <trkpt lat="46.41278" lon="5.80112">
        <ele>595</ele>
        <time>2011-04-04T12:24:43Z</time>
      </trkpt>
      <trkpt lat="46.41285" lon="5.8011">
        <ele>594</ele>
        <time>2011-04-04T12:24:49Z</time>
      </trkpt>
      <trkpt lat="46.41288" lon="5.80109">
        <ele>594</ele>
        <time>2011-04-04T12:24:51Z</time>
      </trkpt>
      <trkpt lat="46.41307" lon="5.8011">
        <ele>595</ele>
        <time>2011-04-04T12:24:59Z</time>
      </trkpt>
      <trkpt lat="46.41324" lon="5.80113">
        <ele>595</ele>
        <time>2011-04-04T12:25:06Z</time>
      </trkpt>
      <trkpt lat="46.41337" lon="5.80115">
        <ele>595</ele>
        <time>2011-04-04T12:25:12Z</time>
      </trkpt>
      <trkpt lat="46.41343" lon="5.80113">
        <ele>595</ele>
        <time>2011-04-04T12:25:14Z</time>
      </trkpt>
      <trkpt lat="46.41349" lon="5.80098">
        <ele>597</ele>
        <time>2011-04-04T12:25:19Z</time>
      </trkpt>
      <trkpt lat="46.41348" lon="5.80092">
        <ele>597</ele>
        <time>2011-04-04T12:25:21Z</time>
      </trkpt>
      <trkpt lat="46.41337" lon="5.80063">
        <ele>599</ele>
        <time>2011-04-04T12:25:30Z</time>
      </trkpt>
      <trkpt lat="46.4132" lon="5.80042">
        <ele>600</ele>
        <time>2011-04-04T12:25:37Z</time>
      </trkpt>
      <trkpt lat="46.41299" lon="5.80027">
        <ele>600</ele>
        <time>2011-04-04T12:25:44Z</time>
      </trkpt>
      <trkpt lat="46.41281" lon="5.80011">
        <ele>602</ele>
        <time>2011-04-04T12:25:51Z</time>
      </trkpt>
      <trkpt lat="46.41267" lon="5.7999">
        <ele>603</ele>
        <time>2011-04-04T12:25:58Z</time>
      </trkpt>
      <trkpt lat="46.41263" lon="5.79967">
        <ele>605</ele>
        <time>2011-04-04T12:26:04Z</time>
      </trkpt>
      <trkpt lat="46.41268" lon="5.79951">
        <ele>606</ele>
        <time>2011-04-04T12:26:09Z</time>
      </trkpt>
      <trkpt lat="46.4128" lon="5.79949">
        <ele>607</ele>
        <time>2011-04-04T12:26:13Z</time>
      </trkpt>
      <trkpt lat="46.41304" lon="5.79951">
        <ele>608</ele>
        <time>2011-04-04T12:26:20Z</time>
      </trkpt>
      <trkpt lat="46.4133" lon="5.79963">
        <ele>609</ele>
        <time>2011-04-04T12:26:28Z</time>
      </trkpt>
      <trkpt lat="46.41353" lon="5.79974">
        <ele>610</ele>
        <time>2011-04-04T12:26:35Z</time>
      </trkpt>
      <trkpt lat="46.41375" lon="5.79979">
        <ele>611</ele>
        <time>2011-04-04T12:26:41Z</time>
      </trkpt>
      <trkpt lat="46.41387" lon="5.79977">
        <ele>611</ele>
        <time>2011-04-04T12:26:44Z</time>
      </trkpt>
      <trkpt lat="46.41421" lon="5.79955">
        <ele>612</ele>
        <time>2011-04-04T12:26:53Z</time>
      </trkpt>
      <trkpt lat="46.41439" lon="5.79934">
        <ele>613</ele>
        <time>2011-04-04T12:26:59Z</time>
      </trkpt>
      <trkpt lat="46.41453" lon="5.79917">
        <ele>615</ele>
        <time>2011-04-04T12:27:05Z</time>
      </trkpt>
      <trkpt lat="46.4147" lon="5.7991">
        <ele>617</ele>
        <time>2011-04-04T12:27:13Z</time>
      </trkpt>
      <trkpt lat="46.41491" lon="5.79905">
        <ele>617</ele>
        <time>2011-04-04T12:27:19Z</time>
      </trkpt>
      <trkpt lat="46.41505" lon="5.7991">
        <ele>618</ele>
        <time>2011-04-04T12:27:23Z</time>
      </trkpt>
      <trkpt lat="46.41509" lon="5.7991">
        <ele>618</ele>
        <time>2011-04-04T12:27:24Z</time>
      </trkpt>
      <trkpt lat="46.4153" lon="5.79896">
        <ele>619</ele>
        <time>2011-04-04T12:27:31Z</time>
      </trkpt>
      <trkpt lat="46.41547" lon="5.79884">
        <ele>620</ele>
        <time>2011-04-04T12:27:36Z</time>
      </trkpt>
      <trkpt lat="46.41563" lon="5.7988">
        <ele>620</ele>
        <time>2011-04-04T12:27:40Z</time>
      </trkpt>
      <trkpt lat="46.41591" lon="5.79887">
        <ele>620</ele>
        <time>2011-04-04T12:27:46Z</time>
      </trkpt>
      <trkpt lat="46.4162" lon="5.79903">
        <ele>619</ele>
        <time>2011-04-04T12:27:52Z</time>
      </trkpt>
      <trkpt lat="46.41625" lon="5.79907">
        <ele>619</ele>
        <time>2011-04-04T12:27:53Z</time>
      </trkpt>
      <trkpt lat="46.41647" lon="5.79932">
        <ele>619</ele>
        <time>2011-04-04T12:27:58Z</time>
      </trkpt>
      <trkpt lat="46.4165" lon="5.79939">
        <ele>619</ele>
        <time>2011-04-04T12:27:59Z</time>
      </trkpt>
      <trkpt lat="46.41663" lon="5.79967">
        <ele>619</ele>
        <time>2011-04-04T12:28:03Z</time>
      </trkpt>
      <trkpt lat="46.41696" lon="5.80023">
        <ele>619</ele>
        <time>2011-04-04T12:28:12Z</time>
      </trkpt>
      <trkpt lat="46.41724" lon="5.80062">
        <ele>619</ele>
        <time>2011-04-04T12:28:19Z</time>
      </trkpt>
      <trkpt lat="46.41741" lon="5.80089">
        <ele>619</ele>
        <time>2011-04-04T12:28:24Z</time>
      </trkpt>
      <trkpt lat="46.4175" lon="5.80109">
        <ele>619</ele>
        <time>2011-04-04T12:28:29Z</time>
      </trkpt>
      <trkpt lat="46.4176" lon="5.80122">
        <ele>619</ele>
        <time>2011-04-04T12:28:33Z</time>
      </trkpt>
      <trkpt lat="46.41775" lon="5.80133">
        <ele>619</ele>
        <time>2011-04-04T12:28:38Z</time>
      </trkpt>
      <trkpt lat="46.41786" lon="5.80138">
        <ele>619</ele>
        <time>2011-04-04T12:28:41Z</time>
      </trkpt>
      <trkpt lat="46.41816" lon="5.80153">
        <ele>619</ele>
        <time>2011-04-04T12:28:48Z</time>
      </trkpt>
      <trkpt lat="46.41832" lon="5.80161">
        <ele>620</ele>
        <time>2011-04-04T12:28:52Z</time>
      </trkpt>
      <trkpt lat="46.41849" lon="5.80172">
        <ele>620</ele>
        <time>2011-04-04T12:28:56Z</time>
      </trkpt>
      <trkpt lat="46.41862" lon="5.80192">
        <ele>620</ele>
        <time>2011-04-04T12:29:00Z</time>
      </trkpt>
      <trkpt lat="46.41886" lon="5.80235">
        <ele>621</ele>
        <time>2011-04-04T12:29:08Z</time>
      </trkpt>
      <trkpt lat="46.41909" lon="5.80262">
        <ele>621</ele>
        <time>2011-04-04T12:29:14Z</time>
      </trkpt>
      <trkpt lat="46.41946" lon="5.80287">
        <ele>621</ele>
        <time>2011-04-04T12:29:22Z</time>
      </trkpt>
      <trkpt lat="46.41989" lon="5.80314">
        <ele>621</ele>
        <time>2011-04-04T12:29:31Z</time>
      </trkpt>
      <trkpt lat="46.42018" lon="5.80332">
        <ele>622</ele>
        <time>2011-04-04T12:29:37Z</time>
      </trkpt>
      <trkpt lat="46.42042" lon="5.80336">
        <ele>622</ele>
        <time>2011-04-04T12:29:42Z</time>
      </trkpt>
      <trkpt lat="46.42077" lon="5.80334">
        <ele>623</ele>
        <time>2011-04-04T12:29:49Z</time>
      </trkpt>
      <trkpt lat="46.4209" lon="5.80332">
        <ele>623</ele>
        <time>2011-04-04T12:29:52Z</time>
      </trkpt>
      <trkpt lat="46.42117" lon="5.8032">
        <ele>625</ele>
        <time>2011-04-04T12:29:59Z</time>
      </trkpt>
      <trkpt lat="46.42125" lon="5.80315">
        <ele>626</ele>
        <time>2011-04-04T12:30:01Z</time>
      </trkpt>
      <trkpt lat="46.42139" lon="5.80318">
        <ele>626</ele>
        <time>2011-04-04T12:30:05Z</time>
      </trkpt>
      <trkpt lat="46.42151" lon="5.80332">
        <ele>629</ele>
        <time>2011-04-04T12:30:12Z</time>
      </trkpt>
      <trkpt lat="46.42163" lon="5.80352">
        <ele>629</ele>
        <time>2011-04-04T12:30:18Z</time>
      </trkpt>
      <trkpt lat="46.4218" lon="5.80378">
        <ele>629</ele>
        <time>2011-04-04T12:30:24Z</time>
      </trkpt>
      <trkpt lat="46.42187" lon="5.80387">
        <ele>628</ele>
        <time>2011-04-04T12:30:26Z</time>
      </trkpt>
      <trkpt lat="46.42218" lon="5.80419">
        <ele>629</ele>
        <time>2011-04-04T12:30:34Z</time>
      </trkpt>
      <trkpt lat="46.42245" lon="5.80432">
        <ele>629</ele>
        <time>2011-04-04T12:30:40Z</time>
      </trkpt>
      <trkpt lat="46.4225" lon="5.80433">
        <ele>629</ele>
        <time>2011-04-04T12:30:41Z</time>
      </trkpt>
      <trkpt lat="46.42275" lon="5.80448">
        <ele>630</ele>
        <time>2011-04-04T12:30:47Z</time>
      </trkpt>
      <trkpt lat="46.42282" lon="5.80458">
        <ele>630</ele>
        <time>2011-04-04T12:30:49Z</time>
      </trkpt>
      <trkpt lat="46.42291" lon="5.80475">
        <ele>630</ele>
        <time>2011-04-04T12:30:52Z</time>
      </trkpt>
      <trkpt lat="46.42302" lon="5.80513">
        <ele>631</ele>
        <time>2011-04-04T12:30:58Z</time>
      </trkpt>
      <trkpt lat="46.42321" lon="5.80547">
        <ele>631</ele>
        <time>2011-04-04T12:31:05Z</time>
      </trkpt>
      <trkpt lat="46.42343" lon="5.80574">
        <ele>631</ele>
        <time>2011-04-04T12:31:12Z</time>
      </trkpt>
      <trkpt lat="46.42362" lon="5.80596">
        <ele>631</ele>
        <time>2011-04-04T12:31:19Z</time>
      </trkpt>
      <trkpt lat="46.42379" lon="5.80618">
        <ele>631</ele>
        <time>2011-04-04T12:31:26Z</time>
      </trkpt>
      <trkpt lat="46.42407" lon="5.80644">
        <ele>632</ele>
        <time>2011-04-04T12:31:34Z</time>
      </trkpt>
      <trkpt lat="46.42439" lon="5.80661">
        <ele>632</ele>
        <time>2011-04-04T12:31:42Z</time>
      </trkpt>
      <trkpt lat="46.42477" lon="5.80681">
        <ele>632</ele>
        <time>2011-04-04T12:31:51Z</time>
      </trkpt>
      <trkpt lat="46.42513" lon="5.80706">
        <ele>634</ele>
        <time>2011-04-04T12:32:01Z</time>
      </trkpt>
      <trkpt lat="46.42554" lon="5.80733">
        <ele>636</ele>
        <time>2011-04-04T12:32:13Z</time>
      </trkpt>
      <trkpt lat="46.42577" lon="5.80734">
        <ele>637</ele>
        <time>2011-04-04T12:32:19Z</time>
      </trkpt>
      <trkpt lat="46.426" lon="5.8073">
        <ele>638</ele>
        <time>2011-04-04T12:32:25Z</time>
      </trkpt>
      <trkpt lat="46.42616" lon="5.80727">
        <ele>640</ele>
        <time>2011-04-04T12:32:30Z</time>
      </trkpt>
      <trkpt lat="46.42636" lon="5.80726">
        <ele>641</ele>
        <time>2011-04-04T12:32:35Z</time>
      </trkpt>
      <trkpt lat="46.42657" lon="5.80732">
        <ele>641</ele>
        <time>2011-04-04T12:32:40Z</time>
      </trkpt>
      <trkpt lat="46.42672" lon="5.80743">
        <ele>641</ele>
        <time>2011-04-04T12:32:44Z</time>
      </trkpt>
      <trkpt lat="46.42701" lon="5.80753">
        <ele>642</ele>
        <time>2011-04-04T12:32:51Z</time>
      </trkpt>
      <trkpt lat="46.42709" lon="5.80755">
        <ele>642</ele>
        <time>2011-04-04T12:32:53Z</time>
      </trkpt>
      <trkpt lat="46.4273" lon="5.80757">
        <ele>643</ele>
        <time>2011-04-04T12:32:58Z</time>
      </trkpt>
      <trkpt lat="46.42746" lon="5.80765">
        <ele>643</ele>
        <time>2011-04-04T12:33:02Z</time>
      </trkpt>
      <trkpt lat="46.42765" lon="5.80774">
        <ele>644</ele>
        <time>2011-04-04T12:33:07Z</time>
      </trkpt>
      <trkpt lat="46.42785" lon="5.80774">
        <ele>644</ele>
        <time>2011-04-04T12:33:12Z</time>
      </trkpt>
      <trkpt lat="46.42808" lon="5.80777">
        <ele>644</ele>
        <time>2011-04-04T12:33:17Z</time>
      </trkpt>
      <trkpt lat="46.42841" lon="5.80788">
        <ele>643</ele>
        <time>2011-04-04T12:33:24Z</time>
      </trkpt>
      <trkpt lat="46.42869" lon="5.80799">
        <ele>643</ele>
        <time>2011-04-04T12:33:30Z</time>
      </trkpt>
      <trkpt lat="46.42909" lon="5.80817">
        <ele>644</ele>
        <time>2011-04-04T12:33:39Z</time>
      </trkpt>
      <trkpt lat="46.42939" lon="5.80832">
        <ele>645</ele>
        <time>2011-04-04T12:33:46Z</time>
      </trkpt>
      <trkpt lat="46.42957" lon="5.80834">
        <ele>645</ele>
        <time>2011-04-04T12:33:50Z</time>
      </trkpt>
      <trkpt lat="46.42986" lon="5.80819">
        <ele>646</ele>
        <time>2011-04-04T12:33:58Z</time>
      </trkpt>
      <trkpt lat="46.43016" lon="5.80811">
        <ele>647</ele>
        <time>2011-04-04T12:34:06Z</time>
      </trkpt>
      <trkpt lat="46.43037" lon="5.8081">
        <ele>648</ele>
        <time>2011-04-04T12:34:12Z</time>
      </trkpt>
      <trkpt lat="46.43053" lon="5.80802">
        <ele>650</ele>
        <time>2011-04-04T12:34:18Z</time>
      </trkpt>
      <trkpt lat="46.43069" lon="5.80786">
        <ele>651</ele>
        <time>2011-04-04T12:34:24Z</time>
      </trkpt>
      <trkpt lat="46.43073" lon="5.80775">
        <ele>651</ele>
        <time>2011-04-04T12:34:26Z</time>
      </trkpt>
      <trkpt lat="46.43094" lon="5.80713">
        <ele>649</ele>
        <time>2011-04-04T12:34:35Z</time>
      </trkpt>
      <trkpt lat="46.43109" lon="5.80683">
        <ele>651</ele>
        <time>2011-04-04T12:34:41Z</time>
      </trkpt>
      <trkpt lat="46.43124" lon="5.80662">
        <ele>653</ele>
        <time>2011-04-04T12:34:48Z</time>
      </trkpt>
      <trkpt lat="46.43143" lon="5.80637">
        <ele>656</ele>
        <time>2011-04-04T12:34:57Z</time>
      </trkpt>
      <trkpt lat="46.43145" lon="5.80621">
        <ele>657</ele>
        <time>2011-04-04T12:35:01Z</time>
      </trkpt>
      <trkpt lat="46.43151" lon="5.80623">
        <ele>658</ele>
        <time>2011-04-04T12:35:05Z</time>
      </trkpt>
      <trkpt lat="46.43161" lon="5.80661">
        <ele>661</ele>
        <time>2011-04-04T12:35:15Z</time>
      </trkpt>
      <trkpt lat="46.43174" lon="5.80698">
        <ele>665</ele>
        <time>2011-04-04T12:35:26Z</time>
      </trkpt>
      <trkpt lat="46.43187" lon="5.80728">
        <ele>668</ele>
        <time>2011-04-04T12:35:35Z</time>
      </trkpt>
      <trkpt lat="46.43205" lon="5.80759">
        <ele>668</ele>
        <time>2011-04-04T12:35:43Z</time>
      </trkpt>
      <trkpt lat="46.43225" lon="5.80787">
        <ele>669</ele>
        <time>2011-04-04T12:35:51Z</time>
      </trkpt>
      <trkpt lat="46.43236" lon="5.8081">
        <ele>670</ele>
        <time>2011-04-04T12:35:57Z</time>
      </trkpt>
      <trkpt lat="46.43233" lon="5.80819">
        <ele>671</ele>
        <time>2011-04-04T12:36:02Z</time>
      </trkpt>
      <trkpt lat="46.43228" lon="5.80825">
        <ele>671</ele>
        <time>2011-04-04T12:36:06Z</time>
      </trkpt>
      <trkpt lat="46.43233" lon="5.80822">
        <ele>671</ele>
        <time>2011-04-04T12:36:09Z</time>
      </trkpt>
      <trkpt lat="46.43242" lon="5.80821">
        <ele>672</ele>
        <time>2011-04-04T12:36:13Z</time>
      </trkpt>
      <trkpt lat="46.43244" lon="5.80824">
        <ele>672</ele>
        <time>2011-04-04T12:36:14Z</time>
      </trkpt>
      <trkpt lat="46.43268" lon="5.80866">
        <ele>670</ele>
        <time>2011-04-04T12:36:23Z</time>
      </trkpt>
      <trkpt lat="46.43275" lon="5.80876">
        <ele>670</ele>
        <time>2011-04-04T12:36:25Z</time>
      </trkpt>
      <trkpt lat="46.43297" lon="5.80889">
        <ele>669</ele>
        <time>2011-04-04T12:36:30Z</time>
      </trkpt>
      <trkpt lat="46.43342" lon="5.80892">
        <ele>669</ele>
        <time>2011-04-04T12:36:39Z</time>
      </trkpt>
      <trkpt lat="46.4336" lon="5.80901">
        <ele>671</ele>
        <time>2011-04-04T12:36:44Z</time>
      </trkpt>
      <trkpt lat="46.43383" lon="5.80914">
        <ele>674</ele>
        <time>2011-04-04T12:36:53Z</time>
      </trkpt>
      <trkpt lat="46.43401" lon="5.80922">
        <ele>675</ele>
        <time>2011-04-04T12:37:00Z</time>
      </trkpt>
      <trkpt lat="46.43425" lon="5.80934">
        <ele>677</ele>
        <time>2011-04-04T12:37:10Z</time>
      </trkpt>
      <trkpt lat="46.43448" lon="5.80944">
        <ele>680</ele>
        <time>2011-04-04T12:37:21Z</time>
      </trkpt>
      <trkpt lat="46.43461" lon="5.80946">
        <ele>682</ele>
        <time>2011-04-04T12:37:28Z</time>
      </trkpt>
      <trkpt lat="46.43473" lon="5.80946">
        <ele>686</ele>
        <time>2011-04-04T12:37:37Z</time>
      </trkpt>
      <trkpt lat="46.43482" lon="5.80944">
        <ele>689</ele>
        <time>2011-04-04T12:37:44Z</time>
      </trkpt>
      <trkpt lat="46.43492" lon="5.80941">
        <ele>691</ele>
        <time>2011-04-04T12:37:52Z</time>
      </trkpt>
      <trkpt lat="46.43501" lon="5.80933">
        <ele>693</ele>
        <time>2011-04-04T12:38:00Z</time>
      </trkpt>
      <trkpt lat="46.43513" lon="5.80927">
        <ele>696</ele>
        <time>2011-04-04T12:38:10Z</time>
      </trkpt>
      <trkpt lat="46.43522" lon="5.80922">
        <ele>698</ele>
        <time>2011-04-04T12:38:17Z</time>
      </trkpt>
      <trkpt lat="46.43531" lon="5.80905">
        <ele>700</ele>
        <time>2011-04-04T12:38:27Z</time>
      </trkpt>
      <trkpt lat="46.43542" lon="5.80897">
        <ele>700</ele>
        <time>2011-04-04T12:38:33Z</time>
      </trkpt>
      <trkpt lat="46.43553" lon="5.80892">
        <ele>701</ele>
        <time>2011-04-04T12:38:39Z</time>
      </trkpt>
      <trkpt lat="46.43563" lon="5.80888">
        <ele>702</ele>
        <time>2011-04-04T12:38:46Z</time>
      </trkpt>
      <trkpt lat="46.43572" lon="5.80884">
        <ele>703</ele>
        <time>2011-04-04T12:38:51Z</time>
      </trkpt>
      <trkpt lat="46.43587" lon="5.8088">
        <ele>704</ele>
        <time>2011-04-04T12:38:57Z</time>
      </trkpt>
      <trkpt lat="46.43589" lon="5.8088">
        <ele>704</ele>
        <time>2011-04-04T12:38:58Z</time>
      </trkpt>
      <trkpt lat="46.436" lon="5.8088">
        <ele>705</ele>
        <time>2011-04-04T12:39:03Z</time>
      </trkpt>
      <trkpt lat="46.43613" lon="5.80878">
        <ele>706</ele>
        <time>2011-04-04T12:39:10Z</time>
      </trkpt>
      <trkpt lat="46.43617" lon="5.8088">
        <ele>707</ele>
        <time>2011-04-04T12:39:13Z</time>
      </trkpt>
      <trkpt lat="46.43624" lon="5.80879">
        <ele>709</ele>
        <time>2011-04-04T12:39:17Z</time>
      </trkpt>
      <trkpt lat="46.43632" lon="5.80875">
        <ele>710</ele>
        <time>2011-04-04T12:39:22Z</time>
      </trkpt>
      <trkpt lat="46.43637" lon="5.80871">
        <ele>710</ele>
        <time>2011-04-04T12:39:25Z</time>
      </trkpt>
      <trkpt lat="46.43636" lon="5.80865">
        <ele>711</ele>
        <time>2011-04-04T12:39:30Z</time>
      </trkpt>
      <trkpt lat="46.4363" lon="5.80858">
        <ele>713</ele>
        <time>2011-04-04T12:39:36Z</time>
      </trkpt>
      <trkpt lat="46.43622" lon="5.80848">
        <ele>715</ele>
        <time>2011-04-04T12:39:43Z</time>
      </trkpt>
      <trkpt lat="46.4362" lon="5.80843">
        <ele>716</ele>
        <time>2011-04-04T12:39:45Z</time>
      </trkpt>
      <trkpt lat="46.43623" lon="5.80826">
        <ele>716</ele>
        <time>2011-04-04T12:39:51Z</time>
      </trkpt>
      <trkpt lat="46.43626" lon="5.80813">
        <ele>716</ele>
        <time>2011-04-04T12:39:56Z</time>
      </trkpt>
      <trkpt lat="46.43626" lon="5.80795">
        <ele>718</ele>
        <time>2011-04-04T12:40:02Z</time>
      </trkpt>
      <trkpt lat="46.43622" lon="5.80777">
        <ele>719</ele>
        <time>2011-04-04T12:40:07Z</time>
      </trkpt>
      <trkpt lat="46.43614" lon="5.80755">
        <ele>720</ele>
        <time>2011-04-04T12:40:12Z</time>
      </trkpt>
      <trkpt lat="46.43603" lon="5.80736">
        <ele>719</ele>
        <time>2011-04-04T12:40:17Z</time>
      </trkpt>
      <trkpt lat="46.43593" lon="5.80713">
        <ele>718</ele>
        <time>2011-04-04T12:40:21Z</time>
      </trkpt>
      <trkpt lat="46.43576" lon="5.80669">
        <ele>715</ele>
        <time>2011-04-04T12:40:27Z</time>
      </trkpt>
      <trkpt lat="46.43569" lon="5.80657">
        <ele>715</ele>
        <time>2011-04-04T12:40:29Z</time>
      </trkpt>
      <trkpt lat="46.4355" lon="5.80637">
        <ele>713</ele>
        <time>2011-04-04T12:40:33Z</time>
      </trkpt>
      <trkpt lat="46.43512" lon="5.80619">
        <ele>709</ele>
        <time>2011-04-04T12:40:39Z</time>
      </trkpt>
      <trkpt lat="46.43505" lon="5.80615">
        <ele>708</ele>
        <time>2011-04-04T12:40:40Z</time>
      </trkpt>
      <trkpt lat="46.43474" lon="5.80593">
        <ele>706</ele>
        <time>2011-04-04T12:40:45Z</time>
      </trkpt>
      <trkpt lat="46.43464" lon="5.80584">
        <ele>705</ele>
        <time>2011-04-04T12:40:47Z</time>
      </trkpt>
      <trkpt lat="46.43437" lon="5.80577">
        <ele>706</ele>
        <time>2011-04-04T12:40:52Z</time>
      </trkpt>
      <trkpt lat="46.43432" lon="5.80577">
        <ele>706</ele>
        <time>2011-04-04T12:40:53Z</time>
      </trkpt>
      <trkpt lat="46.43423" lon="5.80578">
        <ele>707</ele>
        <time>2011-04-04T12:40:55Z</time>
      </trkpt>
      <trkpt lat="46.43397" lon="5.80576">
        <ele>708</ele>
        <time>2011-04-04T12:41:01Z</time>
      </trkpt>
      <trkpt lat="46.43379" lon="5.80571">
        <ele>710</ele>
        <time>2011-04-04T12:41:06Z</time>
      </trkpt>
      <trkpt lat="46.43358" lon="5.80558">
        <ele>710</ele>
        <time>2011-04-04T12:41:11Z</time>
      </trkpt>
      <trkpt lat="46.43337" lon="5.80537">
        <ele>709</ele>
        <time>2011-04-04T12:41:17Z</time>
      </trkpt>
      <trkpt lat="46.4333" lon="5.8053">
        <ele>708</ele>
        <time>2011-04-04T12:41:19Z</time>
      </trkpt>
      <trkpt lat="46.43303" lon="5.80505">
        <ele>706</ele>
        <time>2011-04-04T12:41:24Z</time>
      </trkpt>
      <trkpt lat="46.43285" lon="5.80492">
        <ele>704</ele>
        <time>2011-04-04T12:41:27Z</time>
      </trkpt>
      <trkpt lat="46.43262" lon="5.80468">
        <ele>701</ele>
        <time>2011-04-04T12:41:31Z</time>
      </trkpt>
      <trkpt lat="46.43243" lon="5.80431">
        <ele>699</ele>
        <time>2011-04-04T12:41:36Z</time>
      </trkpt>
      <trkpt lat="46.43229" lon="5.80402">
        <ele>701</ele>
        <time>2011-04-04T12:41:41Z</time>
      </trkpt>
      <trkpt lat="46.43213" lon="5.80371">
        <ele>703</ele>
        <time>2011-04-04T12:41:47Z</time>
      </trkpt>
      <trkpt lat="46.43195" lon="5.80343">
        <ele>704</ele>
        <time>2011-04-04T12:41:53Z</time>
      </trkpt>
      <trkpt lat="46.43182" lon="5.80329">
        <ele>704</ele>
        <time>2011-04-04T12:41:56Z</time>
      </trkpt>
      <trkpt lat="46.43162" lon="5.80309">
        <ele>703</ele>
        <time>2011-04-04T12:42:01Z</time>
      </trkpt>
      <trkpt lat="46.43145" lon="5.80295">
        <ele>703</ele>
        <time>2011-04-04T12:42:06Z</time>
      </trkpt>
      <trkpt lat="46.43133" lon="5.80293">
        <ele>704</ele>
        <time>2011-04-04T12:42:11Z</time>
      </trkpt>
      <trkpt lat="46.43122" lon="5.80293">
        <ele>706</ele>
        <time>2011-04-04T12:42:17Z</time>
      </trkpt>
      <trkpt lat="46.43109" lon="5.803">
        <ele>706</ele>
        <time>2011-04-04T12:42:22Z</time>
      </trkpt>
      <trkpt lat="46.43093" lon="5.80311">
        <ele>705</ele>
        <time>2011-04-04T12:42:29Z</time>
      </trkpt>
      <trkpt lat="46.4309" lon="5.80314">
        <ele>705</ele>
        <time>2011-04-04T12:42:31Z</time>
      </trkpt>
      <trkpt lat="46.43079" lon="5.80321">
        <ele>705</ele>
        <time>2011-04-04T12:42:36Z</time>
      </trkpt>
      <trkpt lat="46.43062" lon="5.80331">
        <ele>706</ele>
        <time>2011-04-04T12:42:43Z</time>
      </trkpt>
      <trkpt lat="46.43047" lon="5.80334">
        <ele>705</ele>
        <time>2011-04-04T12:42:47Z</time>
      </trkpt>
      <trkpt lat="46.43043" lon="5.80332">
        <ele>705</ele>
        <time>2011-04-04T12:42:48Z</time>
      </trkpt>
      <trkpt lat="46.43025" lon="5.80331">
        <ele>704</ele>
        <time>2011-04-04T12:42:52Z</time>
      </trkpt>
      <trkpt lat="46.42997" lon="5.80318">
        <ele>702</ele>
        <time>2011-04-04T12:42:57Z</time>
      </trkpt>
      <trkpt lat="46.42989" lon="5.80306">
        <ele>702</ele>
        <time>2011-04-04T12:42:59Z</time>
      </trkpt>
      <trkpt lat="46.42969" lon="5.80266">
        <ele>702</ele>
        <time>2011-04-04T12:43:05Z</time>
      </trkpt>
      <trkpt lat="46.42961" lon="5.80232">
        <ele>703</ele>
        <time>2011-04-04T12:43:10Z</time>
      </trkpt>
      <trkpt lat="46.42962" lon="5.80197">
        <ele>704</ele>
        <time>2011-04-04T12:43:17Z</time>
      </trkpt>
      <trkpt lat="46.4296" lon="5.80187">
        <ele>705</ele>
        <time>2011-04-04T12:43:22Z</time>
      </trkpt>
      <trkpt lat="46.42953" lon="5.80165">
        <ele>705</ele>
        <time>2011-04-04T12:43:27Z</time>
      </trkpt>
      <trkpt lat="46.42954" lon="5.8014">
        <ele>706</ele>
        <time>2011-04-04T12:43:32Z</time>
      </trkpt>
      <trkpt lat="46.42966" lon="5.8011">
        <ele>708</ele>
        <time>2011-04-04T12:43:39Z</time>
      </trkpt>
      <trkpt lat="46.42985" lon="5.80086">
        <ele>710</ele>
        <time>2011-04-04T12:43:47Z</time>
      </trkpt>
      <trkpt lat="46.43008" lon="5.8007">
        <ele>712</ele>
        <time>2011-04-04T12:43:55Z</time>
      </trkpt>
      <trkpt lat="46.43039" lon="5.80063">
        <ele>715</ele>
        <time>2011-04-04T12:44:05Z</time>
      </trkpt>
      <trkpt lat="46.43059" lon="5.80044">
        <ele>717</ele>
        <time>2011-04-04T12:44:14Z</time>
      </trkpt>
      <trkpt lat="46.43082" lon="5.80017">
        <ele>721</ele>
        <time>2011-04-04T12:44:25Z</time>
      </trkpt>
      <trkpt lat="46.43098" lon="5.79989">
        <ele>722</ele>
        <time>2011-04-04T12:44:35Z</time>
      </trkpt>
      <trkpt lat="46.43107" lon="5.79966">
        <ele>724</ele>
        <time>2011-04-04T12:44:42Z</time>
      </trkpt>
      <trkpt lat="46.4311" lon="5.79924">
        <ele>727</ele>
        <time>2011-04-04T12:44:53Z</time>
      </trkpt>
      <trkpt lat="46.43113" lon="5.79892">
        <ele>728</ele>
        <time>2011-04-04T12:45:01Z</time>
      </trkpt>
      <trkpt lat="46.43113" lon="5.79859">
        <ele>732</ele>
        <time>2011-04-04T12:45:11Z</time>
      </trkpt>
      <trkpt lat="46.43111" lon="5.7983">
        <ele>734</ele>
        <time>2011-04-04T12:45:20Z</time>
      </trkpt>
      <trkpt lat="46.43104" lon="5.79806">
        <ele>736</ele>
        <time>2011-04-04T12:45:28Z</time>
      </trkpt>
      <trkpt lat="46.43095" lon="5.7978">
        <ele>738</ele>
        <time>2011-04-04T12:45:37Z</time>
      </trkpt>
      <trkpt lat="46.43084" lon="5.79747">
        <ele>742</ele>
        <time>2011-04-04T12:45:49Z</time>
      </trkpt>
      <trkpt lat="46.43075" lon="5.79719">
        <ele>744</ele>
        <time>2011-04-04T12:45:59Z</time>
      </trkpt>
      <trkpt lat="46.4307" lon="5.79704">
        <ele>746</ele>
        <time>2011-04-04T12:46:05Z</time>
      </trkpt>
      <trkpt lat="46.43064" lon="5.7969">
        <ele>748</ele>
        <time>2011-04-04T12:46:11Z</time>
      </trkpt>
      <trkpt lat="46.43055" lon="5.79666">
        <ele>751</ele>
        <time>2011-04-04T12:46:21Z</time>
      </trkpt>
      <trkpt lat="46.43049" lon="5.79645">
        <ele>753</ele>
        <time>2011-04-04T12:46:29Z</time>
      </trkpt>
      <trkpt lat="46.43043" lon="5.7962">
        <ele>756</ele>
        <time>2011-04-04T12:46:39Z</time>
      </trkpt>
      <trkpt lat="46.43038" lon="5.79603">
        <ele>758</ele>
        <time>2011-04-04T12:46:46Z</time>
      </trkpt>
      <trkpt lat="46.4303" lon="5.79577">
        <ele>761</ele>
        <time>2011-04-04T12:46:57Z</time>
      </trkpt>
      <trkpt lat="46.43024" lon="5.79556">
        <ele>764</ele>
        <time>2011-04-04T12:47:07Z</time>
      </trkpt>
      <trkpt lat="46.43024" lon="5.79542">
        <ele>766</ele>
        <time>2011-04-04T12:47:14Z</time>
      </trkpt>
      <trkpt lat="46.43028" lon="5.79533">
        <ele>768</ele>
        <time>2011-04-04T12:47:19Z</time>
      </trkpt>
      <trkpt lat="46.4303" lon="5.79515">
        <ele>770</ele>
        <time>2011-04-04T12:47:28Z</time>
      </trkpt>
      <trkpt lat="46.43027" lon="5.79497">
        <ele>772</ele>
        <time>2011-04-04T12:47:37Z</time>
      </trkpt>
      <trkpt lat="46.43021" lon="5.7948">
        <ele>774</ele>
        <time>2011-04-04T12:47:45Z</time>
      </trkpt>
      <trkpt lat="46.43023" lon="5.79469">
        <ele>776</ele>
        <time>2011-04-04T12:47:51Z</time>
      </trkpt>
      <trkpt lat="46.43023" lon="5.79467">
        <ele>777</ele>
        <time>2011-04-04T12:47:52Z</time>
      </trkpt>
      <trkpt lat="46.43023" lon="5.79458">
        <ele>778</ele>
        <time>2011-04-04T12:47:57Z</time>
      </trkpt>
      <trkpt lat="46.43022" lon="5.7945">
        <ele>779</ele>
        <time>2011-04-04T12:48:01Z</time>
      </trkpt>
      <trkpt lat="46.43022" lon="5.79438">
        <ele>781</ele>
        <time>2011-04-04T12:48:07Z</time>
      </trkpt>
      <trkpt lat="46.43023" lon="5.79432">
        <ele>782</ele>
        <time>2011-04-04T12:48:10Z</time>
      </trkpt>
      <trkpt lat="46.43023" lon="5.79416">
        <ele>785</ele>
        <time>2011-04-04T12:48:20Z</time>
      </trkpt>
      <trkpt lat="46.43022" lon="5.79416">
        <ele>785</ele>
        <time>2011-04-04T12:48:21Z</time>
      </trkpt>
      <trkpt lat="46.4302" lon="5.7941">
        <ele>786</ele>
        <time>2011-04-04T12:48:26Z</time>
      </trkpt>
      <trkpt lat="46.43019" lon="5.79405">
        <ele>787</ele>
        <time>2011-04-04T12:48:29Z</time>
      </trkpt>
      <trkpt lat="46.43018" lon="5.79402">
        <ele>788</ele>
        <time>2011-04-04T12:48:32Z</time>
      </trkpt>
      <trkpt lat="46.43016" lon="5.79398">
        <ele>789</ele>
        <time>2011-04-04T12:48:38Z</time>
      </trkpt>
      <trkpt lat="46.43013" lon="5.79393">
        <ele>790</ele>
        <time>2011-04-04T12:48:48Z</time>
      </trkpt>
      <trkpt lat="46.43007" lon="5.79385">
        <ele>792</ele>
        <time>2011-04-04T12:48:56Z</time>
      </trkpt>
      <trkpt lat="46.43005" lon="5.7938">
        <ele>793</ele>
        <time>2011-04-04T12:49:01Z</time>
      </trkpt>
      <trkpt lat="46.43" lon="5.79378">
        <ele>794</ele>
        <time>2011-04-04T12:49:08Z</time>
      </trkpt>
      <trkpt lat="46.42998" lon="5.79373">
        <ele>795</ele>
        <time>2011-04-04T12:49:16Z</time>
      </trkpt>
      <trkpt lat="46.42996" lon="5.79367">
        <ele>796</ele>
        <time>2011-04-04T12:49:23Z</time>
      </trkpt>
      <trkpt lat="46.42993" lon="5.7936">
        <ele>797</ele>
        <time>2011-04-04T12:49:29Z</time>
      </trkpt>
      <trkpt lat="46.4299" lon="5.79354">
        <ele>798</ele>
        <time>2011-04-04T12:49:35Z</time>
      </trkpt>
      <trkpt lat="46.42988" lon="5.79346">
        <ele>799</ele>
        <time>2011-04-04T12:49:42Z</time>
      </trkpt>
      <trkpt lat="46.42989" lon="5.79341">
        <ele>800</ele>
        <time>2011-04-04T12:49:49Z</time>
      </trkpt>
      <trkpt lat="46.42988" lon="5.79331">
        <ele>800</ele>
        <time>2011-04-04T12:49:56Z</time>
      </trkpt>
      <trkpt lat="46.42989" lon="5.79323">
        <ele>801</ele>
        <time>2011-04-04T12:50:00Z</time>
      </trkpt>
      <trkpt lat="46.42989" lon="5.79318">
        <ele>802</ele>
        <time>2011-04-04T12:50:04Z</time>
      </trkpt>
      <trkpt lat="46.4299" lon="5.79301">
        <ele>803</ele>
        <time>2011-04-04T12:50:12Z</time>
      </trkpt>
      <trkpt lat="46.42991" lon="5.79296">
        <ele>805</ele>
        <time>2011-04-04T12:50:17Z</time>
      </trkpt>
      <trkpt lat="46.42988" lon="5.79283">
        <ele>807</ele>
        <time>2011-04-04T12:50:24Z</time>
      </trkpt>
      <trkpt lat="46.42981" lon="5.7927">
        <ele>807</ele>
        <time>2011-04-04T12:50:31Z</time>
      </trkpt>
      <trkpt lat="46.42977" lon="5.7926">
        <ele>809</ele>
        <time>2011-04-04T12:50:37Z</time>
      </trkpt>
      <trkpt lat="46.42976" lon="5.79256">
        <ele>810</ele>
        <time>2011-04-04T12:50:39Z</time>
      </trkpt>
      <trkpt lat="46.42971" lon="5.7925">
        <ele>811</ele>
        <time>2011-04-04T12:50:44Z</time>
      </trkpt>
      <trkpt lat="46.42967" lon="5.79244">
        <ele>812</ele>
        <time>2011-04-04T12:50:49Z</time>
      </trkpt>
      <trkpt lat="46.4296" lon="5.79235">
        <ele>813</ele>
        <time>2011-04-04T12:50:56Z</time>
      </trkpt>
      <trkpt lat="46.42954" lon="5.79224">
        <ele>815</ele>
        <time>2011-04-04T12:51:02Z</time>
      </trkpt>
      <trkpt lat="46.42951" lon="5.79212">
        <ele>816</ele>
        <time>2011-04-04T12:51:08Z</time>
      </trkpt>
      <trkpt lat="46.42951" lon="5.79197">
        <ele>819</ele>
        <time>2011-04-04T12:51:15Z</time>
      </trkpt>
      <trkpt lat="46.4295" lon="5.79193">
        <ele>819</ele>
        <time>2011-04-04T12:51:17Z</time>
      </trkpt>
      <trkpt lat="46.42948" lon="5.79185">
        <ele>820</ele>
        <time>2011-04-04T12:51:21Z</time>
      </trkpt>
      <trkpt lat="46.42944" lon="5.79172">
        <ele>822</ele>
        <time>2011-04-04T12:51:28Z</time>
      </trkpt>
      <trkpt lat="46.42943" lon="5.79171">
        <ele>822</ele>
        <time>2011-04-04T12:51:29Z</time>
      </trkpt>
      <trkpt lat="46.42942" lon="5.79166">
        <ele>823</ele>
        <time>2011-04-04T12:51:32Z</time>
      </trkpt>
      <trkpt lat="46.42947" lon="5.79158">
        <ele>825</ele>
        <time>2011-04-04T12:51:38Z</time>
      </trkpt>
      <trkpt lat="46.42951" lon="5.79158">
        <ele>825</ele>
        <time>2011-04-04T12:51:40Z</time>
      </trkpt>
      <trkpt lat="46.42962" lon="5.79157">
        <ele>826</ele>
        <time>2011-04-04T12:51:49Z</time>
      </trkpt>
      <trkpt lat="46.42978" lon="5.79146">
        <ele>827</ele>
        <time>2011-04-04T12:51:57Z</time>
      </trkpt>
      <trkpt lat="46.42991" lon="5.79141">
        <ele>827</ele>
        <time>2011-04-04T12:52:02Z</time>
      </trkpt>
      <trkpt lat="46.43019" lon="5.79137">
        <ele>829</ele>
        <time>2011-04-04T12:52:12Z</time>
      </trkpt>
      <trkpt lat="46.43043" lon="5.79139">
        <ele>831</ele>
        <time>2011-04-04T12:52:21Z</time>
      </trkpt>
      <trkpt lat="46.4306" lon="5.7915">
        <ele>833</ele>
        <time>2011-04-04T12:52:28Z</time>
      </trkpt>
      <trkpt lat="46.43083" lon="5.79168">
        <ele>835</ele>
        <time>2011-04-04T12:52:37Z</time>
      </trkpt>
      <trkpt lat="46.43109" lon="5.7918">
        <ele>837</ele>
        <time>2011-04-04T12:52:46Z</time>
      </trkpt>
      <trkpt lat="46.43137" lon="5.79188">
        <ele>840</ele>
        <time>2011-04-04T12:52:55Z</time>
      </trkpt>
      <trkpt lat="46.43167" lon="5.79194">
        <ele>842</ele>
        <time>2011-04-04T12:53:05Z</time>
      </trkpt>
      <trkpt lat="46.43185" lon="5.79199">
        <ele>844</ele>
        <time>2011-04-04T12:53:12Z</time>
      </trkpt>
      <trkpt lat="46.43196" lon="5.792">
        <ele>844</ele>
        <time>2011-04-04T12:53:17Z</time>
      </trkpt>
      <trkpt lat="46.43216" lon="5.79211">
        <ele>844</ele>
        <time>2011-04-04T12:53:23Z</time>
      </trkpt>
      <trkpt lat="46.43244" lon="5.79217">
        <ele>844</ele>
        <time>2011-04-04T12:53:29Z</time>
      </trkpt>
      <trkpt lat="46.43287" lon="5.79224">
        <ele>842</ele>
        <time>2011-04-04T12:53:36Z</time>
      </trkpt>
      <trkpt lat="46.43338" lon="5.79234">
        <ele>841</ele>
        <time>2011-04-04T12:53:44Z</time>
      </trkpt>
      <trkpt lat="46.43379" lon="5.79251">
        <ele>841</ele>
        <time>2011-04-04T12:53:51Z</time>
      </trkpt>
      <trkpt lat="46.43413" lon="5.79278">
        <ele>841</ele>
        <time>2011-04-04T12:53:58Z</time>
      </trkpt>
      <trkpt lat="46.43453" lon="5.79314">
        <ele>842</ele>
        <time>2011-04-04T12:54:06Z</time>
      </trkpt>
      <trkpt lat="46.43495" lon="5.79338">
        <ele>841</ele>
        <time>2011-04-04T12:54:13Z</time>
      </trkpt>
      <trkpt lat="46.43542" lon="5.79353">
        <ele>839</ele>
        <time>2011-04-04T12:54:20Z</time>
      </trkpt>
      <trkpt lat="46.43595" lon="5.79365">
        <ele>838</ele>
        <time>2011-04-04T12:54:28Z</time>
      </trkpt>
      <trkpt lat="46.43638" lon="5.79359">
        <ele>837</ele>
        <time>2011-04-04T12:54:34Z</time>
      </trkpt>
      <trkpt lat="46.43683" lon="5.79353">
        <ele>836</ele>
        <time>2011-04-04T12:54:40Z</time>
      </trkpt>
      <trkpt lat="46.43745" lon="5.79364">
        <ele>836</ele>
        <time>2011-04-04T12:54:49Z</time>
      </trkpt>
      <trkpt lat="46.43789" lon="5.79383">
        <ele>837</ele>
        <time>2011-04-04T12:54:56Z</time>
      </trkpt>
      <trkpt lat="46.43818" lon="5.79397">
        <ele>839</ele>
        <time>2011-04-04T12:55:02Z</time>
      </trkpt>
      <trkpt lat="46.43851" lon="5.79406">
        <ele>841</ele>
        <time>2011-04-04T12:55:09Z</time>
      </trkpt>
      <trkpt lat="46.43904" lon="5.79413">
        <ele>842</ele>
        <time>2011-04-04T12:55:19Z</time>
      </trkpt>
      <trkpt lat="46.4395" lon="5.79421">
        <ele>844</ele>
        <time>2011-04-04T12:55:28Z</time>
      </trkpt>
      <trkpt lat="46.43986" lon="5.79429">
        <ele>846</ele>
        <time>2011-04-04T12:55:35Z</time>
      </trkpt>
      <trkpt lat="46.44017" lon="5.79434">
        <ele>847</ele>
        <time>2011-04-04T12:55:41Z</time>
      </trkpt>
      <trkpt lat="46.44057" lon="5.79443">
        <ele>847</ele>
        <time>2011-04-04T12:55:48Z</time>
      </trkpt>
      <trkpt lat="46.44103" lon="5.79456">
        <ele>847</ele>
        <time>2011-04-04T12:55:56Z</time>
      </trkpt>
      <trkpt lat="46.44155" lon="5.79469">
        <ele>848</ele>
        <time>2011-04-04T12:56:05Z</time>
      </trkpt>
      <trkpt lat="46.44206" lon="5.79481">
        <ele>849</ele>
        <time>2011-04-04T12:56:14Z</time>
      </trkpt>
      <trkpt lat="46.44262" lon="5.79485">
        <ele>850</ele>
        <time>2011-04-04T12:56:24Z</time>
      </trkpt>
      <trkpt lat="46.44327" lon="5.7949">
        <ele>849</ele>
        <time>2011-04-04T12:56:35Z</time>
      </trkpt>
      <trkpt lat="46.44364" lon="5.79501">
        <ele>849</ele>
        <time>2011-04-04T12:56:41Z</time>
      </trkpt>
      <trkpt lat="46.44411" lon="5.79526">
        <ele>850</ele>
        <time>2011-04-04T12:56:49Z</time>
      </trkpt>
      <trkpt lat="46.44453" lon="5.79542">
        <ele>852</ele>
        <time>2011-04-04T12:56:56Z</time>
      </trkpt>
      <trkpt lat="46.44503" lon="5.79554">
        <ele>854</ele>
        <time>2011-04-04T12:57:05Z</time>
      </trkpt>
      <trkpt lat="46.44545" lon="5.79556">
        <ele>854</ele>
        <time>2011-04-04T12:57:12Z</time>
      </trkpt>
      <trkpt lat="46.44617" lon="5.79559">
        <ele>851</ele>
        <time>2011-04-04T12:57:22Z</time>
      </trkpt>
      <trkpt lat="46.44678" lon="5.79562">
        <ele>849</ele>
        <time>2011-04-04T12:57:30Z</time>
      </trkpt>
      <trkpt lat="46.44719" lon="5.79564">
        <ele>849</ele>
        <time>2011-04-04T12:57:36Z</time>
      </trkpt>
      <trkpt lat="46.44746" lon="5.79568">
        <ele>851</ele>
        <time>2011-04-04T12:57:41Z</time>
      </trkpt>
      <trkpt lat="46.44771" lon="5.79573">
        <ele>853</ele>
        <time>2011-04-04T12:57:47Z</time>
      </trkpt>
      <trkpt lat="46.44773" lon="5.79576">
        <ele>854</ele>
        <time>2011-04-04T12:57:48Z</time>
      </trkpt>
      <trkpt lat="46.44772" lon="5.79601">
        <ele>853</ele>
        <time>2011-04-04T12:57:52Z</time>
      </trkpt>
      <trkpt lat="46.44791" lon="5.79662">
        <ele>845</ele>
        <time>2011-04-04T12:57:58Z</time>
      </trkpt>
      <trkpt lat="46.44817" lon="5.79686">
        <ele>842</ele>
        <time>2011-04-04T12:58:01Z</time>
      </trkpt>
      <trkpt lat="46.44828" lon="5.79691">
        <ele>840</ele>
        <time>2011-04-04T12:58:02Z</time>
      </trkpt>
      <trkpt lat="46.4486" lon="5.79706">
        <ele>835</ele>
        <time>2011-04-04T12:58:05Z</time>
      </trkpt>
      <trkpt lat="46.44873" lon="5.79717">
        <ele>834</ele>
        <time>2011-04-04T12:58:07Z</time>
      </trkpt>
      <trkpt lat="46.44884" lon="5.79748">
        <ele>831</ele>
        <time>2011-04-04T12:58:11Z</time>
      </trkpt>
      <trkpt lat="46.44889" lon="5.7979">
        <ele>826</ele>
        <time>2011-04-04T12:58:15Z</time>
      </trkpt>
      <trkpt lat="46.44892" lon="5.79831">
        <ele>819</ele>
        <time>2011-04-04T12:58:19Z</time>
      </trkpt>
      <trkpt lat="46.44896" lon="5.7985">
        <ele>816</ele>
        <time>2011-04-04T12:58:22Z</time>
      </trkpt>
      <trkpt lat="46.4491" lon="5.79847">
        <ele>813</ele>
        <time>2011-04-04T12:58:26Z</time>
      </trkpt>
      <trkpt lat="46.44924" lon="5.79838">
        <ele>811</ele>
        <time>2011-04-04T12:58:28Z</time>
      </trkpt>
      <trkpt lat="46.4494" lon="5.79827">
        <ele>809</ele>
        <time>2011-04-04T12:58:30Z</time>
      </trkpt>
      <trkpt lat="46.44961" lon="5.79798">
        <ele>806</ele>
        <time>2011-04-04T12:58:34Z</time>
      </trkpt>
      <trkpt lat="46.44996" lon="5.79787">
        <ele>800</ele>
        <time>2011-04-04T12:58:39Z</time>
      </trkpt>
      <trkpt lat="46.4503" lon="5.79819">
        <ele>795</ele>
        <time>2011-04-04T12:58:44Z</time>
      </trkpt>
      <trkpt lat="46.45038" lon="5.79836">
        <ele>794</ele>
        <time>2011-04-04T12:58:46Z</time>
      </trkpt>
      <trkpt lat="46.45041" lon="5.79841">
        <ele>794</ele>
        <time>2011-04-04T12:58:48Z</time>
      </trkpt>
      <trkpt lat="46.45038" lon="5.79841">
        <ele>795</ele>
        <time>2011-04-04T12:58:57Z</time>
      </trkpt>
      <trkpt lat="46.45035" lon="5.79844">
        <ele>794</ele>
        <time>2011-04-04T13:00:21Z</time>
      </trkpt>
      <trkpt lat="46.45033" lon="5.79838">
        <ele>794</ele>
        <time>2011-04-04T13:00:24Z</time>
      </trkpt>
    </trkseg>
  </trk>
</gpx>